[[{"header":{"parameterUnit":"m.s-1","parameterCategory":1,"la1":30.6,"la2":28.766,"lo1":-90.7593,"lo2":-88.6598,"dy":0.0162,"dx":0.0183,"nx":116,"ny":114,"refTime":"2023-06-29T00:00:00:Z","depth":0,"parameterNumber":2,"parameterNumberName":"U-component_of_WINDS"},"data":[0.0,0.0,0.0,0.0,0.0,0.0,0.0,0.0,0.0,0.0,0.0,0.0,0.0,0.0,0.0,0.0,0.0,0.0,0.0,0.0,0.0,0.0,0.0,0.0,0.0,0.0,0.0,0.0,0.0,0.0,0.0,0.0,0.0,0.0,0.0,0.0,0.0,0.0,0.0,0.0,0.0,0.0,0.0,0.0,0.0,0.0,0.0,0.0,0.0,0.0,0.0,0.0,0.0,0.0,0.0,0.0,0.0,0.0,0.0,0.0,0.0,0.0,0.0,0.0,0.0,0.0,0.0,0.0,0.0,0.0,0.0,0.0,0.0,0.0,0.0,0.0,0.0,0.0,0.0,0.0,0.0,0.0,0.0,0.0,0.0,0.0,0.0,0.0,0.0,0.0,0.0,0.0,0.0,0.0,0.0,0.0,0.0,0.0,0.0,0.0,0.0,0.0,0.0,0.0,0.0,0.0,0.0,0.0,0.0,0.0,0.0,0.0,0.0,0.0,0.0,0.0,0.0,0.0,0.0,0.0,0.0,0.0,0.0,0.0,0.0,0.0,0.0,0.0,0.0,0.0,0.0,0.0,0.0,0.0,0.0,0.0,0.0,0.0,0.0,0.0,0.0,0.0,0.0,0.0,0.0,0.0,0.0,0.0,0.0,0.0,0.0,0.0,0.0,0.0,0.0,0.0,0.0,0.0,0.0,0.0,0.0,0.0,0.0,0.0,0.0,0.0,0.0,0.0,0.0,0.0,0.0,0.0,0.0,0.0,0.0,0.0,0.0,0.0,0.0,0.0,0.0,0.0,0.0,0.0,0.0,0.0,0.0,0.0,0.0,0.0,0.0,0.0,0.0,0.0,0.0,0.0,0.0,0.0,0.0,0.0,0.0,0.0,0.0,0.0,0.0,0.0,0.0,0.0,0.0,0.0,0.0,0.0,0.0,0.0,0.0,0.0,0.0,0.0,0.0,0.0,0.0,0.0,0.0,0.0,0.0,0.0,0.0,0.0,0.0,0.0,0.0,0.0,0.0,0.0,0.0,0.0,0.0,0.0,0.0,0.0,0.0,0.0,0.0,0.0,0.0,0.0,0.0,0.0,0.0,0.0,0.0,0.0,0.0,0.0,0.0,0.0,0.0,0.0,0.0,0.0,0.0,0.0,0.0,0.0,0.0,0.0,0.0,0.0,0.0,0.0,0.0,0.0,0.0,0.0,0.0,0.0,0.0,0.0,0.0,0.0,0.0,0.0,0.0,0.0,0.0,0.0,0.0,0.0,0.0,0.0,0.0,0.0,0.0,0.0,0.0,0.0,0.0,0.0,0.0,0.0,0.0,0.0,0.0,0.0,0.0,0.0,0.0,0.0,0.0,0.0,0.0,0.0,0.0,0.0,0.0,0.0,0.0,0.0,0.0,0.0,0.0,0.0,0.0,0.0,0.0,0.0,0.0,0.0,0.0,0.0,0.0,0.0,0.0,0.0,0.0,0.0,0.0,0.0,0.0,0.0,0.0,0.0,0.0,0.0,0.0,0.0,0.0,0.0,0.0,0.0,0.0,0.0,0.0,0.0,0.0,0.0,0.0,0.0,0.0,0.0,0.0,0.0,0.0,0.0,0.0,0.0,0.0,0.0,0.0,0.0,0.0,0.0,0.0,0.0,0.0,0.0,0.0,0.0,0.0,0.0,0.0,0.0,0.0,0.0,0.0,0.0,0.0,0.0,0.0,0.0,0.0,0.0,0.0,0.0,0.0,0.0,0.0,0.0,0.0,0.0,0.0,0.0,0.0,0.0,0.0,0.0,0.0,0.0,0.0,0.0,0.0,0.0,0.0,0.0,0.0,0.0,0.0,0.0,0.0,0.0,0.0,0.0,0.0,0.0,0.0,0.0,0.0,0.0,0.0,0.0,0.0,0.0,0.0,0.0,0.0,0.0,0.0,0.0,0.0,0.0,0.0,0.0,0.0,0.0,0.0,0.0,0.0,0.0,0.0,0.0,0.0,0.0,0.0,0.0,0.0,0.0,0.0,0.0,0.0,0.0,0.0,0.0,0.0,0.0,0.0,0.0,0.0,0.0,0.0,0.0,0.0,0.0,0.0,0.0,0.0,0.0,0.0,0.0,0.0,0.0,0.0,0.0,0.0,0.0,0.0,0.0,0.0,0.0,0.0,0.0,0.0,0.0,0.0,0.0,0.0,0.0,0.0,0.0,0.0,0.0,0.0,0.0,0.0,0.0,0.0,0.0,0.0,0.0,0.0,0.0,0.0,0.0,0.0,0.0,0.0,0.0,0.0,0.0,0.0,0.0,0.0,0.0,0.0,0.0,0.0,0.0,0.0,0.0,0.0,0.0,0.0,0.0,0.0,0.0,0.0,0.0,0.0,0.0,0.0,0.0,0.0,0.0,0.0,0.0,0.0,0.0,0.0,0.0,0.0,0.0,0.0,0.0,0.0,0.0,0.0,0.0,0.0,0.0,0.0,0.0,0.0,0.0,0.0,0.0,0.0,0.0,0.0,0.0,0.0,0.0,0.0,0.0,0.0,0.0,0.0,0.0,0.0,0.0,0.0,0.0,0.0,0.0,0.0,0.0,0.0,0.0,0.0,0.0,0.0,0.0,0.0,0.0,0.0,0.0,0.0,0.0,0.0,0.0,0.0,0.0,0.0,0.0,0.0,0.0,0.0,0.0,0.0,0.0,0.0,0.0,0.0,0.0,0.0,0.0,0.0,0.0,0.0,0.0,0.0,0.0,0.0,0.0,0.0,0.0,0.0,0.0,0.0,0.0,0.0,0.0,0.0,0.0,0.0,0.0,0.0,0.0,0.0,0.0,0.0,0.0,0.0,0.0,0.0,0.0,0.0,0.0,0.0,0.0,0.0,0.0,0.0,0.0,0.0,0.0,0.0,0.0,0.0,0.0,0.0,0.0,0.0,0.0,0.0,0.0,0.0,0.0,0.0,0.0,0.0,0.0,0.0,0.0,0.0,0.0,0.0,0.0,0.0,0.0,0.0,0.0,0.0,0.0,0.0,0.0,0.0,0.0,0.0,0.0,0.0,0.0,0.0,0.0,0.0,0.0,0.0,0.0,0.0,0.0,0.0,0.0,0.0,0.0,0.0,0.0,0.0,0.0,0.0,0.0,0.0,0.0,0.0,0.0,0.0,0.0,0.0,0.0,0.0,0.0,0.0,0.0,0.0,0.0,0.0,0.0,0.0,0.0,0.0,0.0,0.0,0.0,0.0,0.0,0.0,0.0,0.0,0.0,0.0,0.0,0.0,0.0,0.0,0.0,0.0,0.0,0.0,0.0,0.0,0.0,0.0,0.0,0.0,0.0,0.0,0.0,0.0,0.0,0.0,0.0,0.0,0.0,0.0,0.0,0.0,0.0,0.0,0.0,0.0,0.0,0.0,0.0,0.0,0.0,0.0,0.0,0.0,0.0,0.0,0.0,0.0,0.0,0.0,0.0,0.0,0.0,0.0,0.0,0.0,0.0,0.0,0.0,0.0,0.0,0.0,0.0,0.0,0.0,0.0,0.0,0.0,0.0,0.0,0.0,0.0,0.0,0.0,0.0,0.0,0.0,0.0,0.0,0.0,0.0,0.0,0.0,0.0,0.0,0.0,0.0,0.0,0.0,0.0,0.0,0.0,0.0,0.0,0.0,0.0,0.0,0.0,0.0,0.0,0.0,0.0,0.0,0.0,0.0,0.0,0.0,0.0,0.0,0.0,0.0,0.0,0.0,0.0,0.0,0.0,0.0,0.0,0.0,0.0,0.0,0.0,0.0,0.0,0.0,0.0,0.0,0.0,0.0,0.0,0.0,0.0,0.0,0.0,0.0,0.0,0.0,0.0,0.0,0.0,0.0,0.0,0.0,0.0,0.0,0.0,0.0,0.0,0.0,0.0,0.0,0.0,0.0,0.0,0.0,0.0,0.0,0.0,0.0,0.0,0.0,0.0,0.0,0.0,0.0,0.0,0.0,0.0,0.0,0.0,0.0,0.0,0.0,0.0,0.0,0.0,0.0,0.0,0.0,0.0,0.0,0.0,0.0,0.0,0.0,0.0,0.0,0.0,0.0,0.0,0.0,0.0,0.0,0.0,0.0,0.0,0.0,0.0,0.0,0.0,0.0,0.0,0.0,0.0,0.0,0.0,0.0,0.0,0.0,0.0,0.0,0.0,0.0,0.0,0.0,0.0,0.0,0.0,0.0,0.0,0.0,0.0,0.0,0.0,0.0,0.0,0.0,0.0,0.0,0.0,0.0,0.0,0.0,0.0,0.0,0.0,0.0,0.0,0.0,0.0,0.0,0.0,0.0,0.0,0.0,0.0,0.0,0.0,0.0,0.0,0.0,0.0,0.0,0.0,0.0,0.0,0.0,0.0,0.0,0.0,0.0,0.0,0.0,0.0,0.0,0.0,0.0,0.0,0.0,0.0,0.0,0.0,0.0,0.0,0.0,0.0,0.0,0.0,0.0,0.0,0.0,0.0,0.0,0.0,0.0,0.0,0.0,0.0,0.0,0.0,0.0,0.0,0.0,0.0,0.0,0.0,0.0,0.0,0.0,0.0,0.0,0.0,0.0,0.0,0.0,0.0,0.0,0.0,0.0,0.0,0.0,0.0,0.0,0.0,0.0,0.0,0.0,0.0,0.0,0.0,0.0,0.0,0.0,0.0,0.0,0.0,0.0,0.0,0.0,0.0,0.0,0.0,0.0,0.0,0.0,0.0,0.0,0.0,0.0,0.0,0.0,0.0,0.0,0.0,0.0,0.0,0.0,0.0,0.0,0.0,0.0,0.0,0.0,0.0,0.0,0.0,0.0,0.0,0.0,0.0,0.0,0.0,0.0,0.0,0.0,0.0,0.0,0.0,0.0,0.0,0.0,0.0,0.0,0.0,0.0,0.0,0.0,0.0,0.0,0.0,0.0,0.0,0.0,0.0,0.0,0.0,0.0,0.0,0.0,0.0,0.0,0.0,0.0,0.0,0.0,0.0,0.0,0.0,0.0,0.0,0.0,0.0,0.0,0.0,0.0,0.0,0.0,0.0,0.0,0.0,0.0,0.0,0.0,0.0,0.0,0.0,0.0,0.0,0.0,0.0,0.0,0.0,0.0,0.0,0.0,0.0,0.0,0.0,0.0,0.0,0.0,0.0,0.0,0.0,0.0,0.0,0.0,0.0,0.0,0.0,0.0,0.0,0.0,0.0,0.0,0.0,0.0,0.0,0.0,0.0,0.0,0.0,0.0,0.0,0.0,0.0,0.0,0.0,0.0,0.0,0.0,0.0,0.0,0.0,0.0,0.0,0.0,0.0,0.0,0.0,0.0,0.0,0.0,0.0,0.0,0.0,0.0,0.0,0.0,0.0,0.0,0.0,0.0,0.0,0.0,0.0,0.0,0.0,0.0,0.0,0.0,0.0,0.0,0.0,0.0,0.0,0.0,0.0,0.0,0.0,0.0,0.0,0.0,0.0,0.0,0.0,0.0,0.0,0.0,0.0,0.0,0.0,0.0,0.0,0.0,0.0,0.0,0.0,0.0,0.0,0.0,0.0,0.0,0.0,0.0,0.0,0.0,0.0,0.0,0.0,0.0,0.0,0.0,0.0,0.0,0.0,0.0,0.0,0.0,0.0,0.0,0.0,0.0,0.0,0.0,0.0,0.0,0.0,0.0,0.0,0.0,0.0,0.0,0.0,0.0,0.0,0.0,0.0,0.0,0.0,0.0,0.0,0.0,0.0,0.0,0.0,0.0,0.0,0.0,0.0,0.0,0.0,0.0,0.0,0.0,0.0,0.0,0.0,0.0,0.0,0.0,0.0,0.0,0.0,0.0,0.0,0.0,0.0,0.0,0.0,0.0,0.0,0.0,0.0,0.0,0.0,0.0,0.0,0.0,0.0,0.0,0.0,0.0,0.0,0.0,0.0,0.0,0.0,0.0,0.0,0.0,0.0,0.0,0.0,0.0,0.0,0.0,0.0,0.0,0.0,0.0,0.0,0.0,0.0,0.0,0.0,0.0,0.0,0.0,0.0,0.0,0.0,0.0,0.0,0.0,0.0,0.0,0.0,0.0,0.0,0.0,0.0,0.0,0.0,0.0,0.0,0.0,0.0,0.0,-2.9834,0.0,0.0,0.0,0.0,0.0,0.0,0.0,0.0,0.0,0.0,0.0,0.0,0.0,0.0,0.0,0.0,0.0,0.0,0.0,0.0,0.0,0.0,0.0,0.0,0.0,0.0,0.0,0.0,0.0,0.0,0.0,0.0,0.0,0.0,0.0,0.0,0.0,0.0,0.0,0.0,0.0,0.0,0.0,0.0,0.0,0.0,0.0,0.0,0.0,0.0,0.0,0.0,0.0,0.0,0.0,0.0,0.0,0.0,0.0,0.0,0.0,0.0,0.0,0.0,0.0,0.0,0.0,0.0,0.0,0.0,0.0,0.0,0.0,0.0,0.0,0.0,0.0,0.0,0.0,0.0,0.0,0.0,0.0,0.0,0.0,0.0,0.0,0.0,0.0,0.0,0.0,0.0,0.0,0.0,0.0,0.0,0.0,0.0,0.0,0.0,0.0,0.0,0.0,0.0,0.0,0.0,0.0,0.0,0.0,0.0,0.0,0.0,0.0,0.0,0.0,0.0,-3.065,0.0,0.0,0.0,0.0,0.0,0.0,0.0,0.0,0.0,0.0,0.0,0.0,0.0,0.0,0.0,0.0,0.0,0.0,0.0,0.0,0.0,0.0,0.0,0.0,0.0,0.0,0.0,0.0,0.0,0.0,0.0,0.0,0.0,0.0,0.0,0.0,0.0,0.0,0.0,0.0,0.0,0.0,0.0,0.0,0.0,0.0,0.0,0.0,0.0,0.0,0.0,0.0,0.0,0.0,0.0,0.0,0.0,0.0,0.0,0.0,0.0,0.0,0.0,0.0,0.0,0.0,0.0,0.0,0.0,0.0,0.0,0.0,0.0,0.0,0.0,0.0,0.0,0.0,0.0,0.0,0.0,0.0,0.0,0.0,0.0,0.0,0.0,0.0,0.0,0.0,0.0,0.0,0.0,0.0,0.0,0.0,0.0,0.0,0.0,0.0,0.0,0.0,0.0,0.0,0.0,0.0,0.0,0.0,-3.7616,-3.8093,-3.8646,-3.8834,-3.8063,-3.6482,-3.5115,-3.2888,-3.025,0.0,0.0,0.0,0.0,0.0,0.0,0.0,0.0,0.0,0.0,0.0,0.0,0.0,0.0,0.0,0.0,0.0,0.0,0.0,0.0,0.0,0.0,0.0,0.0,0.0,0.0,0.0,0.0,0.0,0.0,0.0,0.0,0.0,0.0,0.0,0.0,0.0,0.0,0.0,-2.6612,-2.81,-2.8939,-2.9179,-2.7815,0.0,0.0,0.0,0.0,0.0,0.0,0.0,0.0,0.0,0.0,0.0,0.0,0.0,0.0,0.0,0.0,0.0,0.0,0.0,0.0,0.0,0.0,0.0,0.0,0.0,0.0,0.0,0.0,0.0,0.0,0.0,0.0,0.0,0.0,0.0,0.0,0.0,0.0,0.0,0.0,0.0,0.0,0.0,-3.0287,-3.0324,0.0,0.0,0.0,0.0,0.0,0.0,0.0,0.0,0.0,0.0,0.0,0.0,0.0,0.0,-3.7624,-3.9238,-3.9681,-3.8994,-4.0578,-4.0998,-4.038,-4.0577,-4.0125,-3.9188,-3.9099,0.0,-3.2772,-3.143,0.0,0.0,0.0,0.0,0.0,0.0,0.0,0.0,0.0,0.0,0.0,0.0,0.0,0.0,0.0,0.0,0.0,0.0,0.0,0.0,0.0,0.0,0.0,0.0,0.0,0.0,0.0,0.0,0.0,0.0,0.0,0.0,0.0,0.0,0.0,0.0,-2.6252,-2.6959,-2.7963,-2.8844,-2.956,-3.0018,-2.8878,-2.8084,-2.7571,-2.6679,0.0,0.0,0.0,0.0,0.0,0.0,0.0,0.0,0.0,0.0,0.0,0.0,0.0,0.0,0.0,0.0,0.0,0.0,0.0,0.0,0.0,0.0,0.0,0.0,0.0,0.0,0.0,0.0,0.0,0.0,0.0,0.0,0.0,0.0,0.0,0.0,0.0,0.0,0.0,-3.2088,-3.2801,-3.1452,-3.3245,-3.3793,0.0,0.0,0.0,0.0,0.0,0.0,0.0,0.0,0.0,-3.7441,-3.8748,-3.952,-3.9704,-4.1382,-4.2225,-4.2226,-4.3098,-4.3596,-4.3746,-4.3899,-4.3491,-4.2651,-4.2226,-4.043,-3.7558,-3.4729,-3.2992,-3.1981,0.0,0.0,0.0,0.0,0.0,-2.9444,0.0,0.0,0.0,0.0,0.0,0.0,0.0,0.0,0.0,0.0,0.0,0.0,0.0,0.0,0.0,-2.5911,0.0,0.0,0.0,0.0,0.0,0.0,0.0,0.0,0.0,0.0,0.0,-2.6585,-2.6809,-2.7755,-2.9383,-2.9822,-3.0474,-3.1233,-3.0488,-2.9542,-2.8452,-2.7351,-2.6357,0.0,0.0,0.0,0.0,0.0,0.0,0.0,0.0,0.0,0.0,0.0,0.0,0.0,0.0,0.0,0.0,0.0,0.0,0.0,0.0,0.0,0.0,0.0,0.0,0.0,0.0,0.0,0.0,0.0,0.0,0.0,0.0,0.0,0.0,0.0,0.0,0.0,0.0,-3.394,-3.4738,-3.25,-3.51,-3.6026,0.0,0.0,0.0,0.0,0.0,0.0,-3.6934,-3.9375,-4.0488,-3.9922,-4.1387,-4.2173,-4.2155,-4.3416,-4.4317,-4.4863,-4.4968,-4.5397,-4.6093,-4.6246,-4.582,-4.4961,-4.4316,-4.3203,-4.1542,-3.7698,-3.5211,-3.3725,-3.2268,-3.1833,-3.1891,-3.0814,-3.0948,-3.1679,0.0,0.0,0.0,0.0,0.0,0.0,0.0,0.0,0.0,0.0,0.0,0.0,0.0,0.0,-2.5051,-2.6002,-2.5589,-2.5296,0.0,0.0,0.0,0.0,0.0,0.0,0.0,0.0,0.0,-2.6787,-2.7429,-2.8652,-3.0443,-3.1354,-3.2246,-3.3031,-3.2233,-3.0974,-2.9325,-2.755,-2.6342,-2.5593,0.0,0.0,0.0,0.0,0.0,0.0,0.0,0.0,0.0,0.0,0.0,0.0,0.0,0.0,0.0,0.0,0.0,0.0,0.0,0.0,0.0,0.0,0.0,0.0,0.0,0.0,0.0,0.0,0.0,0.0,0.0,0.0,0.0,0.0,0.0,0.0,0.0,0.0,0.0,-3.3349,-3.763,0.0,0.0,0.0,0.0,-3.832,-3.7812,-3.8164,-3.9629,-4.2656,-4.4062,-4.3457,-4.4336,-4.5131,-4.5831,-4.5792,-4.5782,-4.5832,-4.584,-4.5935,-4.6093,-4.6246,-4.582,-4.5,-4.4941,-4.4414,-4.3222,-3.877,-3.645,-3.5392,-3.2742,-3.2179,-3.2641,-3.1006,-3.0948,-3.1583,0.0,0.0,0.0,0.0,0.0,0.0,0.0,0.0,0.0,0.0,0.0,0.0,0.0,-2.5266,-2.6223,-2.6286,-2.7256,-2.7181,-2.5572,0.0,0.0,0.0,0.0,0.0,0.0,0.0,-2.7221,-2.9312,-2.9453,-3.0746,-3.3075,-3.3332,-3.3926,-3.4776,-3.4003,-3.3055,-3.1813,-2.892,-2.7195,-2.6283,-2.5174,-2.4824,0.0,0.0,0.0,0.0,0.0,0.0,0.0,0.0,0.0,0.0,0.0,0.0,0.0,0.0,0.0,0.0,0.0,0.0,0.0,0.0,0.0,0.0,0.0,0.0,0.0,0.0,0.0,0.0,0.0,0.0,0.0,0.0,0.0,0.0,0.0,0.0,0.0,-3.8976,-4.2018,0.0,0.0,-4.0916,-4.1326,-4.1074,-4.1367,-4.2285,-4.3926,-4.5625,-4.6699,-4.7031,-4.7344,-4.734,-4.6932,-4.6889,-4.6534,-4.5899,-4.5988,-4.605,-4.6093,-4.6246,-4.6133,-4.5801,-4.5234,-4.4763,-4.4198,-4.1409,-3.9804,-3.8739,-3.5446,-3.4641,-3.5141,-3.3468,-3.341,-3.4103,0.0,0.0,0.0,0.0,0.0,0.0,0.0,0.0,0.0,0.0,0.0,-2.4012,-2.3975,-2.5225,-2.62,-2.6538,-2.7307,-2.7065,-2.5428,0.0,0.0,0.0,0.0,0.0,0.0,-2.6952,-2.8344,-3.0696,-3.0585,-3.1898,-3.451,-3.435,-3.4787,-3.564,-3.5152,-3.4519,-3.3629,-3.1035,-2.8742,-2.678,-2.5666,-2.5488,-2.5815,0.0,0.0,0.0,0.0,0.0,0.0,0.0,0.0,0.0,0.0,0.0,0.0,0.0,0.0,0.0,0.0,0.0,0.0,0.0,0.0,0.0,0.0,0.0,0.0,0.0,0.0,0.0,0.0,0.0,0.0,0.0,0.0,0.0,0.0,0.0,-4.2557,-4.2147,-4.492,-4.602,-4.3925,-4.4512,-4.4902,-4.4629,-4.5391,-4.6269,-4.7129,-4.7715,-4.8301,-4.8887,-4.8906,-4.8436,-4.7481,-4.7428,-4.6938,-4.6039,-4.6033,-4.608,-4.6173,-4.6202,-4.6225,-4.6205,-4.562,-4.5308,-4.5033,-4.3225,-4.2159,-4.1344,-3.8067,-3.7276,-3.7738,-3.5776,-3.5603,-3.6257,0.0,0.0,0.0,0.0,0.0,0.0,0.0,0.0,0.0,0.0,0.0,-2.3631,-2.3884,-2.4014,-2.483,-2.6726,-2.548,-2.4746,-2.4997,-2.4616,0.0,0.0,0.0,0.0,-2.6723,-2.7647,-2.902,-3.0817,-3.0751,-3.2034,-3.4549,-3.4428,-3.4836,-3.5649,-3.5669,-3.531,-3.4612,-3.375,-3.0979,-2.7187,-2.707,-2.7008,-2.6888,0.0,0.0,0.0,0.0,0.0,0.0,0.0,0.0,0.0,0.0,0.0,0.0,0.0,0.0,0.0,0.0,0.0,0.0,0.0,0.0,0.0,0.0,0.0,0.0,0.0,0.0,0.0,0.0,0.0,0.0,0.0,0.0,0.0,-3.732,-4.1408,-4.4017,-4.2486,-4.6125,-4.8174,-4.664,-4.8789,-4.9941,-4.9121,-4.9824,-4.9902,-4.9062,-4.8984,-4.8984,-4.8984,-4.8984,-4.8555,-4.7695,-4.7523,-4.7071,-4.6328,-4.6059,-4.6045,-4.6289,-4.617,-4.6108,-4.6089,-4.6089,-4.6008,-4.5715,-4.3932,-4.3175,-4.2898,-4.0309,-3.9777,-4.0162,-3.7661,-3.7257,-3.7719,0.0,0.0,0.0,0.0,0.0,0.0,0.0,0.0,0.0,0.0,-2.3981,-2.4524,-2.4151,-2.5256,-2.6101,-2.6237,-2.5484,-2.5117,-2.5283,0.0,0.0,0.0,0.0,0.0,-2.9331,-3.0321,-3.1682,-3.3459,-3.3443,-3.4086,-3.5392,-3.594,-3.6308,-3.6579,-3.7149,-3.7031,-3.6364,-3.5525,-3.381,-3.1426,-2.8898,-2.8207,-2.8471,0.0,0.0,0.0,0.0,0.0,0.0,0.0,0.0,0.0,0.0,0.0,0.0,0.0,0.0,0.0,0.0,0.0,0.0,0.0,0.0,0.0,0.0,0.0,0.0,0.0,0.0,0.0,0.0,0.0,0.0,0.0,0.0,-4.2679,-4.1542,-4.4187,-4.6351,-4.6707,-4.8931,-5.0563,-5.0917,-5.1582,-5.2187,-5.2578,-5.2226,-5.1914,-5.168,-5.1055,-5.0703,-5.0703,-5.0703,-5.0312,-4.9492,-4.8827,-4.802,-4.7087,-4.6488,-4.614,-4.6001,-4.6075,-4.6045,-4.5947,-4.5947,-4.555,-4.4804,-4.3671,-4.2808,-4.199,-4.0057,-3.9431,-3.9469,-3.8123,-3.7392,-3.6911,0.0,0.0,0.0,0.0,0.0,0.0,0.0,0.0,0.0,0.0,-2.4127,-2.4659,-2.3567,-2.4631,-2.5286,-2.4931,-2.465,-2.4526,-2.4651,0.0,0.0,0.0,0.0,-2.9057,-3.0211,-3.1265,-3.2635,-3.433,-3.4437,-3.5096,-3.6241,-3.6723,-3.7084,-3.7385,-3.7848,-3.7899,-3.7576,-3.7108,-3.6394,-3.5351,-3.2876,-3.1534,-3.0779,-2.8469,-2.8318,-2.9193,-2.7958,-2.844,-2.9541,-2.8557,0.0,0.0,0.0,0.0,0.0,0.0,0.0,0.0,0.0,0.0,0.0,0.0,0.0,0.0,0.0,0.0,0.0,0.0,0.0,0.0,0.0,0.0,0.0,0.0,-4.4014,-4.5628,-4.5789,-4.7105,-4.829,-4.8964,-5.0559,-5.1888,-5.2635,-5.3359,-5.3848,-5.3984,-5.3867,-5.3633,-5.3262,-5.2422,-5.1933,-5.1933,-5.1582,-5.084,-4.9668,-4.9141,-4.824,-4.6939,-4.6381,-4.608,-4.5981,-4.5979,-4.5929,0.0,-4.5861,-4.5517,-4.4873,-4.3656,-4.283,0.0,0.0,0.0,0.0,0.0,-3.7238,-3.6142,0.0,0.0,0.0,0.0,0.0,0.0,0.0,0.0,0.0,0.0,0.0,-2.4173,-2.2447,-2.284,-2.3261,-2.3304,-2.3288,-2.3404,0.0,0.0,0.0,-2.6787,-2.8414,-2.9613,-3.0224,-3.1358,-3.2694,-3.4246,-3.4593,-3.5541,-3.6993,-3.7179,-3.7579,-3.8142,-3.8238,-3.8342,-3.8447,-3.8447,-3.8517,-3.8515,-3.7547,-3.5766,-3.352,-3.1696,-3.1938,-3.3045,-3.1452,-3.0994,-3.1138,-3.0983,0.0,0.0,0.0,0.0,0.0,0.0,0.0,0.0,0.0,0.0,0.0,0.0,0.0,0.0,0.0,0.0,0.0,0.0,0.0,0.0,0.0,0.0,0.0,0.0,-4.6892,-4.8218,-4.9819,-5.004,-5.0013,-4.9828,-5.1297,-5.2467,-5.2812,-5.4336,-5.5019,-5.4336,-5.4922,-5.4961,-5.4199,0.0,0.0,0.0,0.0,-5.0683,-4.9199,-4.8984,-4.8125,-4.6582,-4.6142,-4.5981,-4.6075,-4.588,-4.5783,-4.5789,-4.5789,-4.565,-4.5316,-4.3739,-4.2989,-4.2643,-4.1104,-4.0489,-4.0296,-3.8623,-3.7065,-3.5757,0.0,0.0,0.0,0.0,0.0,0.0,0.0,0.0,0.0,-2.1708,-2.2968,-2.3226,-2.1541,-2.1585,-2.2005,-2.27,-2.2271,-2.259,0.0,0.0,-2.6165,-2.7381,-2.9034,-3.0513,-3.1748,-3.2842,-3.3928,-3.5078,-3.5981,-3.6621,-3.7039,-3.8336,-3.8987,-3.9084,-3.9719,-3.976,-3.9354,-3.9354,-3.9058,-3.8574,-3.8205,-3.7332,-3.6086,-3.4206,-3.3538,-3.3508,-3.2724,-3.3631,-3.4998,-3.3868,-3.5129,-3.6579,-3.3166,0.0,0.0,0.0,0.0,0.0,0.0,0.0,0.0,0.0,0.0,0.0,0.0,0.0,0.0,0.0,0.0,0.0,0.0,0.0,0.0,-4.7259,-4.9697,-5.1622,-5.2526,-5.2845,-5.2227,-5.0191,-5.1439,-5.2796,-5.3652,-5.4687,-5.5527,-5.6055,-5.5605,-5.5234,-5.5058,-5.3555,0.0,-5.2695,-5.1855,-5.123,-5.0918,-4.957,-4.873,-4.8379,0.0,0.0,-4.5944,-4.5836,-4.5733,-4.5635,-4.5635,-4.5233,-4.447,-4.3508,-4.2277,-4.0969,-4.0623,-4.0489,-4.0296,-3.8623,-3.7796,-3.7315,0.0,0.0,0.0,0.0,0.0,0.0,0.0,0.0,0.0,0.0,-2.2655,-2.2988,-2.1907,-2.2277,-2.2642,-2.274,-2.2896,0.0,0.0,-2.6091,-2.6959,-2.787,-2.9554,-3.0862,-3.1631,-3.3048,-3.4438,-3.5743,-3.6526,-3.7381,-3.8335,-3.9508,-4.0223,-4.0585,-4.1456,-4.1722,-4.1502,-4.1501,-4.1107,-4.0441,-4.0264,-3.993,-3.931,-3.6972,-3.5895,-3.5583,-3.5499,-3.5815,-3.629,-3.6157,-3.6834,-3.7406,-3.5422,-3.5174,-3.514,0.0,0.0,0.0,0.0,0.0,0.0,0.0,0.0,0.0,0.0,0.0,0.0,0.0,0.0,-4.1066,0.0,0.0,-4.8182,-5.0317,-5.1959,-5.3233,-5.4045,-5.4008,-5.3243,-5.1464,-5.2767,-5.3842,-5.3984,-5.5176,-5.6133,-5.6562,-5.6191,-5.5957,-5.5957,-5.4707,-5.3808,-5.3359,-5.2519,-5.1641,-5.0801,-4.9531,-4.8672,-4.8223,-4.6713,-4.5955,-4.589,-4.5764,-4.5665,-4.5586,-4.5586,-4.5336,-4.4855,-4.3605,-4.2335,-4.1104,-4.0662,-4.0239,-3.9796,-3.895,-3.8373,-3.7815,0.0,0.0,0.0,0.0,0.0,0.0,0.0,0.0,0.0,0.0,0.0,-2.2489,-2.2105,-2.2756,-2.3149,0.0,0.0,0.0,0.0,-2.6641,-2.7209,-2.7782,-2.9607,-3.0843,-3.131,-3.2732,-3.4369,-3.6171,-3.6812,-3.7948,-3.9583,-4.0496,-4.1225,-4.1835,-4.277,-4.3253,-4.3368,-4.3281,-4.2939,-4.2407,-4.2262,-4.2119,-4.1737,-3.9596,-3.858,-3.8265,-3.8255,-3.7406,-3.6439,-3.742,-3.7175,-3.6535,-3.6972,-3.6825,-3.6155,-3.4597,-3.2373,0.0,0.0,0.0,0.0,0.0,0.0,0.0,0.0,0.0,-3.8065,-4.1123,-4.2701,-4.4316,-4.6913,-4.8894,-5.0875,-5.3087,-5.3805,-5.4343,-5.5052,-5.463,-5.3885,-5.2905,-5.4033,-5.4652,-5.4062,-5.543,-5.6426,-5.6582,-5.6601,-5.6601,-5.6601,-5.5762,-5.4902,-5.4023,-5.3144,-5.1973,-5.0449,-4.9414,-4.8555,-4.7832,-4.6521,-4.5899,-4.589,-4.5699,-4.5586,-4.5586,-4.5586,-4.5413,-4.5009,-4.3662,-4.2489,-4.1489,-4.0758,-4.0085,-3.9508,-3.9354,-3.8854,-3.8123,0.0,0.0,0.0,0.0,0.0,0.0,0.0,0.0,0.0,0.0,0.0,0.0,0.0,0.0,0.0,0.0,0.0,0.0,-2.5193,-2.4709,-2.4939,-2.6358,-2.8501,-3.0429,-3.2047,-3.2272,-3.3597,-3.6126,-3.7288,-3.8405,-3.9454,-4.0976,-4.1715,-4.1831,-4.2713,-4.3143,-4.3193,-4.2896,-4.2801,-4.2819,-4.2684,-4.2163,-4.148,-4.1537,-4.1344,-4.0893,-3.9604,-3.7923,-3.636,-3.6723,-3.6301,-3.5974,-3.7949,-3.9191,-3.9334,-3.6222,0.0,-3.1436,-3.6163,-3.6689,-3.6192,-3.7506,-3.7327,-3.8393,0.0,0.0,-4.3855,-4.5797,-4.8067,-4.9567,-4.9183,-5.1125,-5.3126,-5.4184,-5.5234,-5.5939,-5.6036,-5.5548,-5.4824,-5.3945,-5.4003,-5.4081,-5.4004,-5.4883,-5.5762,-5.6543,-5.6601,-5.6601,-5.6601,-5.5762,-5.4902,-5.4023,-5.3144,-5.2246,-5.1289,-4.9687,-4.8848,-4.873,-4.6813,-4.5899,-4.589,-4.5699,-4.5586,-4.5586,-4.5586,-4.4759,-4.3374,-4.3181,-4.2124,-4.0642,-4.0527,-4.0431,-4.0277,-3.9546,-3.9238,-3.9027,0.0,0.0,0.0,0.0,0.0,0.0,0.0,0.0,0.0,0.0,0.0,0.0,0.0,0.0,0.0,0.0,0.0,0.0,-2.4156,-2.4417,-2.5522,-2.7725,-2.8738,-3.0153,-3.2164,-3.2974,-3.4405,-3.6577,-3.8118,-3.937,-4.0362,-4.1948,-4.266,-4.2719,-4.363,-4.405,-4.4045,-4.3596,-4.3139,-4.2678,-4.2144,-4.174,-4.1251,-3.9974,-3.9414,-3.9165,-3.8276,-3.633,0.0,0.0,-3.4036,-3.3644,-3.5002,-3.6461,-3.7569,-3.7091,-3.5242,0.0,-3.8442,-3.8867,0.0,0.0,-4.136,-4.3105,-4.6416,-4.6976,-4.7255,-4.8899,-5.0858,-5.214,-5.1703,-5.328,-5.4761,0.0,-5.5757,-5.6016,-5.551,-5.4923,-5.4023,-5.2656,-5.207,-5.2168,-5.3144,-5.4492,-5.5449,-5.582,-5.6308,-5.6601,-5.6601,-5.5762,-5.4902,-5.4023,-5.3144,-5.2285,-5.1406,-4.9746,-4.8906,-4.8887,-4.6932,-4.5981,-4.5899,-4.577,-4.568,-4.5586,-4.5586,-4.5201,-4.447,-4.3508,-4.2662,-4.1912,-4.0893,-4.0489,-4.045,-4.0123,-3.9988,-3.9873,0.0,0.0,0.0,0.0,0.0,0.0,0.0,0.0,0.0,0.0,0.0,0.0,0.0,0.0,0.0,0.0,0.0,0.0,0.0,-2.3681,-2.5095,-2.7555,-2.8407,-2.9758,-3.1716,-3.3351,-3.5063,-3.6832,-3.8632,-4.0015,-4.0985,-4.2546,-4.3311,-4.3336,-4.4257,-4.4583,-4.4382,-4.3895,-4.3138,-4.2146,-4.1362,-4.0838,-4.0322,-3.7978,-3.6764,-3.6255,-3.5985,-3.4109,0.0,0.0,-3.1479,-3.102,-3.2016,-3.3222,-3.4664,-3.677,-3.6989,-3.6915,-3.8732,0.0,0.0,-4.2105,-4.46,-4.7021,-4.8139,-4.9013,-4.9936,-5.1049,-5.2427,-5.334,-5.2972,-5.4092,-5.5132,-5.5403,-5.5652,-5.5618,-5.5045,-5.4209,-5.3086,-5.1582,-5.0488,-5.0312,-5.1523,-5.3203,-5.4414,-5.4902,-5.5742,-5.623,-5.623,-5.5644,-5.4902,-5.4023,-5.3144,-5.2285,-5.1406,-4.998,-4.9141,-4.8887,-4.7247,-4.6267,-4.5899,-4.5796,-4.5692,-4.5586,-4.5586,-4.5451,-4.5143,-4.3932,-4.3162,-4.2624,-4.1354,-4.07,-4.0489,-4.0489,-4.0489,-4.0412,0.0,0.0,0.0,0.0,0.0,0.0,0.0,0.0,0.0,0.0,0.0,0.0,0.0,0.0,0.0,0.0,0.0,0.0,0.0,-2.1745,-2.2365,-2.4261,-2.6954,-2.9119,-3.0625,-3.298,-3.5019,-3.6702,-3.8568,-3.9953,-4.0844,-4.2529,-4.3284,-4.3341,-4.4216,-4.4277,-4.3711,-4.3365,-4.2481,-4.1162,-4.0437,-3.948,-3.8276,-3.6311,-3.4394,-3.2794,-3.3027,0.0,0.0,0.0,-2.8884,-2.8501,-3.0153,-3.075,0.0,-3.4873,-3.7397,-3.8643,0.0,0.0,-4.2444,-4.3333,-4.612,-4.9059,-5.0713,-5.1666,-5.2213,-5.2242,-5.2971,-5.3285,-5.2298,-5.2868,-5.3739,-5.4587,-5.4854,-5.4976,-5.5087,-5.374,-5.2402,-5.1504,-4.9941,-4.8965,0.0,-5.0527,-5.2226,-5.3906,-5.4844,-5.5332,-5.5332,-5.5312,-5.4902,-5.4023,-5.3144,-5.2285,-5.1406,-5.0586,-4.9746,-4.8887,-4.7852,-4.6858,-4.589,-4.5699,-4.5603,-4.5586,-4.5586,-4.5124,-4.4335,-4.4278,-4.3316,-4.1835,-4.1777,-4.1239,-4.0489,-4.0489,-4.0489,-4.0489,0.0,0.0,0.0,0.0,0.0,0.0,0.0,0.0,0.0,0.0,0.0,0.0,0.0,0.0,0.0,0.0,0.0,0.0,0.0,-2.252,-2.2867,-2.5292,-2.6561,-2.8053,-2.9903,-3.1126,-3.2678,-3.4592,-3.6168,-3.7461,-3.8503,-3.9577,-4.0359,-4.0868,-4.1141,-4.1161,-4.0962,-4.0449,-3.9946,-3.9341,-3.7091,-3.6397,-3.6355,-3.2696,-3.1016,-3.0453,0.0,0.0,0.0,0.0,-2.7034,-2.7462,-2.7986,-2.899,-3.0621,-3.4008,-3.7054,-3.9555,-4.0596,0.0,-4.6282,-4.822,-5.0476,-5.2359,-5.2925,-5.3698,-5.378,-5.196,-5.1798,-5.137,-4.924,-5.0001,-5.1042,-5.1334,-5.2952,-5.419,-5.4234,-5.3857,-5.2832,-5.084,-4.9609,0.0,0.0,0.0,0.0,-5.2187,-5.3613,-5.4433,-5.4433,-5.4433,-5.4043,-5.3164,-5.2285,-5.1699,-5.1406,-5.0605,-4.9766,-4.8887,-4.7192,-4.6232,-4.589,-4.5699,-4.5586,-4.5586,-4.5586,-4.5432,-4.5124,-4.4528,-4.3643,-4.2604,-4.2027,-4.1277,-4.0489,-4.0489,-4.0489,-4.0489,0.0,0.0,0.0,0.0,0.0,0.0,0.0,0.0,0.0,0.0,0.0,0.0,0.0,0.0,0.0,0.0,0.0,0.0,0.0,0.0,-2.3153,-2.5024,-2.6026,-2.7209,-2.8702,-2.9981,-3.125,-3.2526,-3.4229,-3.5436,-3.6197,-3.7076,-3.79,-3.8595,-3.8445,-3.8433,-3.8443,-3.7795,-3.7168,-3.6374,-3.3883,-3.3158,-3.3214,-2.9527,-2.8389,0.0,0.0,0.0,0.0,-2.5701,-2.6145,-2.7009,-2.7245,-2.9174,-3.1844,-3.4335,-3.7615,-4.0953,-4.3333,-4.641,-4.9413,-5.1318,-5.3141,-5.4375,-5.4062,-5.3945,-5.332,-5.1274,-5.0094,-4.8806,-4.6719,-4.6967,-4.7784,-4.8727,-5.0355,-5.1967,-5.3237,-5.2964,-5.2266,-5.1211,-5.0078,0.0,0.0,0.0,0.0,-5.1348,-5.3301,-5.4199,-5.3574,-5.3828,-5.3594,-5.2734,-5.1855,-5.1269,-5.0976,-5.0469,-4.9609,-4.8418,-4.6716,-4.5899,-4.589,-4.5699,-4.5586,-4.5586,-4.5586,-4.5586,-4.5547,-4.4989,-4.4105,-4.3047,-4.2489,-4.1546,-4.0489,-4.0489,-4.0489,-4.0489,0.0,0.0,0.0,0.0,0.0,0.0,0.0,0.0,0.0,0.0,0.0,0.0,0.0,0.0,0.0,0.0,0.0,0.0,0.0,0.0,0.0,-2.3512,-2.5319,-2.6599,-2.7137,-2.9399,-3.0603,-3.0659,-3.2747,-3.3814,-3.3877,-3.4882,-3.5738,-3.6432,-3.6058,-3.5982,-3.6105,-3.5431,-3.4146,-3.2504,-3.0955,-2.9951,-2.9197,-2.6931,0.0,0.0,0.0,0.0,0.0,0.0,0.0,0.0,-2.8228,-3.1345,-3.4892,-3.5927,-3.9224,-4.2985,-4.4882,-4.8496,-5.1933,-5.2754,-5.418,-5.5117,-5.4141,-5.2558,-5.1016,-5.0117,-4.7851,-4.5721,0.0,0.0,-4.4265,-4.6811,-4.7435,-4.8802,-5.2285,-5.1465,-5.1074,0.0,0.0,0.0,0.0,0.0,0.0,-5.1484,0.0,-5.4433,-5.2793,-5.3535,-5.3574,-5.2656,-5.1797,-5.0996,-5.0273,-5.0176,-4.9277,-4.7578,-4.6437,-4.589,-4.5881,-4.5684,-4.5586,-4.5586,-4.5586,-4.5586,-4.5586,-4.5586,-4.4643,-4.3162,-4.3162,-4.2104,-4.0566,-4.0566,-4.0527,-4.0489,0.0,0.0,0.0,0.0,0.0,0.0,0.0,0.0,0.0,0.0,0.0,0.0,0.0,0.0,0.0,0.0,0.0,0.0,0.0,0.0,0.0,0.0,0.0,0.0,0.0,0.0,0.0,0.0,0.0,-2.9677,-3.0369,-3.0661,-3.11,-3.1635,-3.1538,-3.151,-3.155,-3.1358,-3.106,-3.0452,0.0,-2.7975,-2.8236,0.0,0.0,0.0,0.0,0.0,0.0,0.0,0.0,0.0,0.0,-3.5376,-3.7712,-3.9994,-4.3259,-4.6788,-4.9882,-5.3437,-5.6308,-5.6523,-5.6426,-5.5703,-5.3535,-5.1211,-4.8926,-4.6777,-4.4297,-4.2031,0.0,0.0,0.0,-4.443,-4.7868,0.0,-5.3359,-5.4414,0.0,-5.3769,0.0,-5.2851,-5.2402,-5.2773,0.0,0.0,-5.3359,-5.3164,-5.2715,-5.3535,-5.3301,-5.1777,-5.0937,-5.0703,-5.1094,-4.9756,-4.8474,-4.7288,-4.6309,-4.582,-4.582,-4.5661,-4.5586,-4.5586,-4.5586,-4.5586,-4.5586,-4.5586,-4.497,-4.3989,-4.3989,-4.2951,-4.147,-4.147,-4.1066,-4.0489,0.0,0.0,0.0,0.0,0.0,0.0,0.0,0.0,0.0,0.0,0.0,0.0,0.0,0.0,0.0,0.0,0.0,0.0,0.0,0.0,0.0,0.0,0.0,0.0,0.0,0.0,0.0,0.0,0.0,0.0,0.0,-2.7713,-2.8066,-2.867,-2.8529,-2.8631,-2.8912,0.0,0.0,0.0,0.0,0.0,0.0,0.0,0.0,0.0,0.0,0.0,0.0,0.0,0.0,-3.5222,-3.721,-3.8991,-4.0955,-4.4025,0.0,-5.0146,-5.3331,-5.6493,-5.8739,-5.7957,-5.6891,-5.5136,-5.1756,-4.9022,-4.623,-4.2849,-4.1034,0.0,0.0,0.0,0.0,0.0,0.0,0.0,-5.2402,-5.3691,-5.4512,0.0,-5.4743,0.0,-5.4325,-5.4423,-5.461,0.0,-5.4622,-5.3906,-5.2754,-5.3535,-5.3203,-5.1465,-5.0957,-5.0565,-5.0227,-4.845,-4.7248,-4.6627,-4.6077,-4.5796,-4.5796,-4.5648,-4.5586,-4.5586,0.0,-4.5586,-4.5586,-4.5586,-4.4874,-4.3778,-4.3778,-4.272,-4.1239,-4.1239,-4.0912,-4.0489,0.0,0.0,0.0,0.0,0.0,0.0,0.0,0.0,0.0,0.0,0.0,0.0,0.0,0.0,0.0,0.0,0.0,0.0,0.0,0.0,0.0,0.0,0.0,0.0,0.0,0.0,0.0,0.0,0.0,0.0,0.0,0.0,0.0,0.0,0.0,0.0,0.0,0.0,0.0,0.0,0.0,0.0,0.0,0.0,0.0,0.0,0.0,0.0,0.0,0.0,-3.517,-3.6887,-4.0094,-4.2406,-4.4578,-4.785,-5.0598,-5.3175,-5.5753,-5.8344,-5.9924,-5.8182,-5.6493,-5.4076,-4.9625,-4.6456,-4.3279,-3.9025,0.0,-3.7226,-3.4941,-3.6055,-3.791,-3.9766,0.0,-4.5762,-5.0703,-5.1581,-5.2889,-5.6034,-5.5712,-5.5535,-5.6296,-5.5691,-5.5502,-5.6144,-5.6421,-5.5465,-5.2946,-5.3553,-5.3124,-5.1308,-5.121,-5.0344,-4.8523,-4.6986,-4.6118,-4.5872,-4.5796,-4.5769,-4.5775,-4.5648,-4.5586,-4.5586,0.0,0.0,-4.5586,-4.5586,-4.4682,-4.3278,-4.3393,-4.2297,-4.0681,-4.0796,-4.07,-4.0489,0.0,0.0,0.0,0.0,0.0,0.0,0.0,0.0,0.0,0.0,0.0,0.0,0.0,0.0,0.0,0.0,0.0,0.0,0.0,0.0,0.0,0.0,0.0,0.0,0.0,0.0,0.0,0.0,0.0,0.0,0.0,0.0,0.0,0.0,0.0,0.0,0.0,0.0,0.0,0.0,0.0,0.0,0.0,0.0,0.0,0.0,0.0,0.0,0.0,0.0,-3.8079,-4.1046,-4.3022,-4.5796,-4.8718,-5.0825,-5.3266,-5.5748,-5.7733,-5.9647,-6.0681,-5.8928,-5.6709,-5.3677,-4.869,-4.4523,0.0,0.0,0.0,-3.416,-3.3711,-3.5644,-3.8105,-4.0566,0.0,0.0,0.0,0.0,-5.3884,0.0,0.0,0.0,0.0,0.0,0.0,0.0,0.0,0.0,-5.3552,-5.3682,-5.2775,-5.0488,-5.03,-4.9343,-4.7478,-4.7105,-4.6487,-4.5645,-4.5632,-4.5635,-4.5635,-4.5603,-4.5586,-4.5586,0.0,0.0,-4.5586,-4.5586,-4.4989,-4.4162,-4.4893,-4.3682,-4.1662,-4.2374,-4.1739,-4.0489,0.0,0.0,0.0,0.0,0.0,0.0,0.0,0.0,0.0,0.0,0.0,0.0,0.0,0.0,0.0,0.0,0.0,0.0,0.0,0.0,0.0,0.0,0.0,0.0,0.0,0.0,0.0,0.0,0.0,0.0,0.0,0.0,0.0,0.0,0.0,0.0,0.0,0.0,0.0,0.0,0.0,0.0,0.0,0.0,0.0,0.0,0.0,0.0,0.0,0.0,-3.695,-4.0912,-4.4512,-4.7682,-5.0433,-5.2162,-5.4495,-5.6907,-5.8639,-6.0115,-6.073,-5.9008,-5.6387,-5.2737,-4.7116,0.0,0.0,0.0,-3.3565,-3.3082,-3.2246,0.0,0.0,0.0,0.0,0.0,0.0,0.0,0.0,0.0,0.0,0.0,0.0,0.0,0.0,0.0,0.0,0.0,-5.3701,-5.2823,-5.1681,-5.0142,-4.9599,-4.8674,-4.7327,-4.6756,-4.6215,-4.5708,-4.5635,-4.5586,-4.5586,-4.5586,-4.5586,-4.5586,-4.5586,0.0,-4.5586,-4.5586,-4.5086,-4.4335,-4.4759,-4.3912,-4.247,-4.245,-4.1893,-4.1104,0.0,0.0,0.0,0.0,0.0,0.0,0.0,0.0,0.0,0.0,0.0,0.0,0.0,0.0,0.0,0.0,0.0,0.0,0.0,0.0,0.0,0.0,0.0,0.0,0.0,0.0,0.0,0.0,0.0,0.0,0.0,0.0,0.0,0.0,0.0,0.0,0.0,0.0,0.0,0.0,0.0,0.0,0.0,0.0,0.0,0.0,0.0,0.0,0.0,0.0,-3.4546,-3.8344,-4.3347,-4.7337,-5.0394,-5.1722,-5.4184,-5.6819,-5.8511,-5.9686,-6.0054,-5.8547,-5.5564,-5.145,-4.5551,-4.1509,0.0,0.0,-3.2348,-3.2365,-3.1091,0.0,-3.457,0.0,0.0,0.0,0.0,0.0,0.0,0.0,0.0,0.0,0.0,0.0,0.0,0.0,0.0,0.0,-5.3627,-5.1967,-5.0733,-5.0025,-4.9137,-4.8259,-4.742,-4.638,-4.585,-4.5796,-4.5665,-4.5586,-4.5586,-4.5586,-4.5586,-4.5586,-4.5586,0.0,0.0,-4.5586,-4.5086,-4.4316,-4.4509,-4.397,-4.3028,-4.2335,-4.197,-4.1681,0.0,0.0,0.0,0.0,0.0,0.0,0.0,0.0,0.0,0.0,0.0,0.0,0.0,0.0,0.0,0.0,0.0,0.0,0.0,0.0,0.0,0.0,0.0,0.0,0.0,0.0,0.0,0.0,0.0,0.0,0.0,0.0,0.0,0.0,0.0,0.0,0.0,0.0,0.0,0.0,0.0,0.0,0.0,0.0,0.0,0.0,0.0,0.0,0.0,0.0,0.0,-3.3561,-3.7276,-4.3003,-4.8375,-4.8529,0.0,0.0,-5.6761,-5.7879,-5.8325,-5.7362,-5.4033,-4.9603,-4.4424,0.0,0.0,-3.2522,-3.1357,-3.0891,-3.0757,-3.1655,-3.3203,0.0,0.0,-3.9119,0.0,0.0,0.0,0.0,0.0,0.0,0.0,0.0,0.0,0.0,0.0,0.0,0.0,-5.1828,-5.0631,-5.0025,-4.904,-4.8164,-4.742,-4.6338,-4.5822,-4.5796,-4.5665,-4.5586,-4.5586,-4.5586,-4.5586,-4.5586,0.0,0.0,0.0,-4.5586,-4.5086,-4.4374,-4.5163,-4.4509,-4.3085,-4.3008,-4.2489,-4.1681,0.0,0.0,0.0,0.0,0.0,0.0,0.0,0.0,0.0,0.0,0.0,0.0,0.0,0.0,0.0,0.0,0.0,0.0,0.0,0.0,0.0,0.0,0.0,0.0,0.0,0.0,0.0,0.0,0.0,0.0,0.0,0.0,0.0,0.0,0.0,0.0,0.0,0.0,0.0,0.0,0.0,0.0,0.0,0.0,0.0,0.0,0.0,0.0,0.0,0.0,0.0,0.0,-3.3437,-3.7477,0.0,0.0,-4.8856,-5.2683,-5.4895,-5.6663,-5.7602,-5.6486,-5.2864,-4.8424,-4.409,0.0,-3.5218,-3.2377,-3.1146,-3.06,-3.0624,-3.0981,-3.1737,-3.3282,0.0,0.0,0.0,0.0,0.0,0.0,0.0,0.0,0.0,0.0,0.0,0.0,0.0,0.0,0.0,-5.0908,-4.9668,-4.9001,-4.8156,-4.7326,-4.6507,-4.6075,-4.5836,-4.5796,-4.5665,-4.5586,-4.5586,-4.5586,-4.5586,-4.5586,0.0,0.0,0.0,-4.5586,-4.5393,-4.5124,-4.5451,-4.5182,-4.4528,-4.4008,-4.3297,-4.247,0.0,0.0,0.0,0.0,0.0,0.0,0.0,0.0,0.0,0.0,0.0,0.0,0.0,0.0,0.0,0.0,0.0,0.0,0.0,0.0,0.0,0.0,0.0,0.0,0.0,0.0,0.0,0.0,0.0,0.0,0.0,0.0,0.0,0.0,0.0,0.0,0.0,0.0,0.0,0.0,0.0,0.0,0.0,0.0,0.0,0.0,0.0,0.0,0.0,0.0,0.0,0.0,0.0,0.0,0.0,0.0,-4.5643,-4.974,-5.2299,-5.4242,-5.5389,-5.4756,-5.0979,-4.6562,0.0,0.0,-3.4475,-3.224,-3.1091,-3.0505,-3.0554,-3.0587,-3.0898,-3.176,0.0,-3.2986,0.0,0.0,0.0,0.0,0.0,0.0,0.0,0.0,0.0,0.0,0.0,0.0,0.0,-4.9933,-4.881,-4.8324,-4.7544,-4.6727,-4.5918,-4.5881,-4.5859,-4.5796,-4.5665,-4.5586,-4.5586,-4.5586,-4.5586,-4.5586,0.0,0.0,0.0,-4.5586,-4.5586,-4.5586,-4.5586,-4.5586,-4.547,-4.4355,-4.3585,-4.2931,0.0,0.0,0.0,0.0,0.0,0.0,0.0,0.0,0.0,0.0,0.0,0.0,0.0,0.0,0.0,0.0,0.0,0.0,0.0,0.0,0.0,0.0,0.0,0.0,0.0,0.0,0.0,0.0,0.0,0.0,0.0,0.0,0.0,0.0,0.0,0.0,0.0,0.0,0.0,0.0,0.0,0.0,0.0,0.0,0.0,0.0,0.0,0.0,0.0,0.0,0.0,0.0,0.0,0.0,0.0,0.0,-4.1662,-4.6201,-4.8759,-5.0106,-5.0952,-5.1741,-4.8125,-4.3682,0.0,-3.7238,-3.3737,-3.2045,-3.107,-3.0498,-3.0498,-3.0567,-3.0898,-3.176,-3.2616,0.0,0.0,0.0,0.0,0.0,0.0,0.0,0.0,0.0,0.0,0.0,0.0,0.0,0.0,-4.9067,-4.8174,-4.8305,-4.7467,-4.6647,-4.5918,-4.5825,-4.5796,-4.5796,-4.5665,-4.5586,-4.5586,-4.5586,-4.5586,0.0,0.0,0.0,0.0,-4.5586,-4.5586,-4.5586,-4.5586,-4.5586,-4.5393,-4.372,-4.3104,-4.2854,0.0,0.0,0.0,0.0,0.0,0.0,0.0,0.0,0.0,0.0,0.0,0.0,0.0,0.0,0.0,0.0,0.0,0.0,0.0,0.0,0.0,0.0,0.0,0.0,0.0,0.0,0.0,0.0,0.0,0.0,0.0,0.0,0.0,0.0,0.0,0.0,0.0,0.0,0.0,0.0,0.0,0.0,0.0,0.0,0.0,0.0,0.0,0.0,0.0,0.0,0.0,0.0,0.0,0.0,0.0,-3.2955,0.0,0.0,-4.2951,-4.4595,-4.5759,-4.5148,-4.2276,-3.9145,-3.7482,-3.4699,-3.2179,-3.1044,-3.108,-3.1133,-3.0535,-3.0934,-3.1621,-3.2463,-3.3313,0.0,0.0,0.0,0.0,0.0,0.0,0.0,0.0,0.0,0.0,0.0,0.0,0.0,0.0,-4.8202,-4.7314,-4.7345,-4.6598,-4.6021,-4.5699,-4.5769,-4.5761,-4.5665,-4.562,-4.5586,-4.5586,-4.5586,0.0,0.0,0.0,0.0,0.0,-4.4951,-4.4701,-4.4662,-4.4105,-4.3893,-4.3835,-4.3297,-4.272,-4.2143,0.0,0.0,0.0,0.0,0.0,0.0,0.0,0.0,0.0,0.0,0.0,0.0,0.0,0.0,0.0,0.0,0.0,0.0,0.0,0.0,0.0,0.0,0.0,0.0,0.0,0.0,0.0,0.0,0.0,0.0,0.0,0.0,0.0,0.0,0.0,0.0,0.0,0.0,0.0,0.0,0.0,0.0,-2.2935,0.0,0.0,0.0,0.0,0.0,0.0,0.0,0.0,0.0,0.0,0.0,0.0,0.0,-3.3293,-3.6588,0.0,-4.0156,-4.1125,-4.0436,-3.8307,0.0,0.0,-3.2914,-3.1335,-3.0559,-3.0833,-3.1044,-3.0494,-3.0852,-3.1371,-3.1891,-3.2949,0.0,0.0,0.0,0.0,0.0,0.0,0.0,0.0,0.0,0.0,0.0,0.0,0.0,0.0,0.0,-4.6759,-4.6413,-4.5951,-4.5677,-4.5586,-4.5677,-4.5677,-4.5586,-4.5586,-4.5586,-4.5586,-4.5586,0.0,0.0,0.0,0.0,0.0,-4.4066,-4.3855,-4.3797,-4.3297,-4.3104,-4.3066,-4.2739,-4.2277,-4.1758,0.0,0.0,0.0,0.0,0.0,0.0,0.0,0.0,0.0,0.0,0.0,0.0,0.0,0.0,0.0,0.0,0.0,0.0,0.0,0.0,0.0,0.0,0.0,0.0,0.0,0.0,0.0,0.0,-2.4722,-2.5307,-2.5623,0.0,0.0,0.0,0.0,0.0,0.0,0.0,0.0,0.0,0.0,0.0,0.0,0.0,0.0,0.0,0.0,0.0,0.0,0.0,0.0,0.0,0.0,0.0,0.0,0.0,0.0,0.0,0.0,-3.653,0.0,0.0,0.0,0.0,-3.2721,-3.1779,0.0,-3.0496,-3.0436,-3.0513,-3.0571,-3.0533,-3.0571,-3.0802,-3.2122,0.0,0.0,0.0,0.0,0.0,0.0,0.0,0.0,0.0,0.0,0.0,0.0,0.0,0.0,0.0,-4.6432,-4.5624,-4.5586,-4.5586,-4.5586,-4.5586,-4.5586,-4.5586,-4.5586,-4.5586,-4.5586,-4.5586,0.0,0.0,0.0,0.0,0.0,-4.3028,-4.3008,-4.3008,-4.2931,-4.2912,-4.2816,-4.2008,-4.172,-4.1585,0.0,0.0,0.0,0.0,0.0,0.0,0.0,0.0,0.0,0.0,0.0,0.0,0.0,0.0,0.0,0.0,0.0,0.0,0.0,0.0,0.0,0.0,0.0,0.0,0.0,0.0,0.0,-2.3979,-2.4983,-2.597,-2.6887,-2.7244,0.0,0.0,0.0,0.0,0.0,0.0,0.0,0.0,0.0,0.0,0.0,0.0,0.0,0.0,-2.3753,-2.4339,0.0,0.0,0.0,0.0,0.0,0.0,0.0,0.0,-2.9624,-3.002,-3.1065,0.0,-3.2335,-3.1727,-3.1238,-3.0806,0.0,-3.0345,-3.0261,-3.0114,-3.0804,-3.1583,-3.2199,-3.1814,-3.2237,-3.4814,-3.5026,0.0,0.0,0.0,0.0,0.0,0.0,0.0,0.0,0.0,0.0,0.0,0.0,0.0,0.0,0.0,-4.5797,-4.5605,-4.5586,-4.5586,-4.5586,-4.5586,-4.5586,-4.5586,-4.5586,-4.5586,-4.5586,-4.5586,0.0,0.0,0.0,0.0,-4.3047,-4.2374,-4.2104,-4.2047,-4.1373,-4.1104,-4.1085,-4.0873,-4.0796,-4.0777,0.0,0.0,0.0,0.0,0.0,0.0,0.0,0.0,0.0,0.0,0.0,0.0,0.0,0.0,0.0,0.0,0.0,0.0,0.0,0.0,0.0,0.0,0.0,0.0,0.0,0.0,0.0,0.0,0.0,-2.5941,0.0,0.0,0.0,0.0,0.0,0.0,0.0,0.0,0.0,0.0,-2.231,0.0,0.0,0.0,0.0,0.0,-2.3014,-2.3457,0.0,-2.4812,-2.5729,-2.6548,0.0,0.0,0.0,0.0,-2.8114,-2.8155,-2.8258,-2.9434,-3.0463,-2.9739,-2.9736,-2.9844,-2.9626,-2.9662,-2.978,0.0,0.0,0.0,0.0,0.0,0.0,0.0,0.0,0.0,0.0,0.0,0.0,0.0,0.0,0.0,0.0,0.0,0.0,0.0,0.0,0.0,0.0,0.0,-4.5586,-4.5586,-4.5586,-4.5586,-4.5586,-4.5586,-4.5586,-4.5586,-4.5586,-4.5393,-4.4989,-4.4989,0.0,0.0,0.0,0.0,-4.1873,-4.1393,-4.12,-4.1162,-4.0681,-4.0489,-4.0489,-4.0489,-4.0489,-4.0489,0.0,0.0,0.0,0.0,0.0,0.0,0.0,0.0,0.0,0.0,0.0,0.0,0.0,0.0,0.0,0.0,0.0,0.0,0.0,0.0,0.0,0.0,0.0,0.0,0.0,0.0,0.0,0.0,0.0,0.0,0.0,0.0,0.0,0.0,0.0,0.0,0.0,0.0,0.0,0.0,-2.231,0.0,0.0,0.0,0.0,0.0,0.0,0.0,0.0,-2.3653,-2.4471,-2.5407,-2.5787,0.0,0.0,0.0,0.0,0.0,-2.6759,-2.8466,-3.0018,-2.9326,-2.9677,-3.006,-2.9474,0.0,0.0,0.0,0.0,0.0,0.0,0.0,0.0,0.0,0.0,0.0,0.0,0.0,0.0,0.0,0.0,0.0,0.0,0.0,0.0,0.0,0.0,0.0,0.0,0.0,0.0,-4.5586,-4.5586,-4.5586,-4.5586,-4.5586,-4.5586,-4.5586,-4.547,-4.5009,-4.4297,-4.4162,-4.3278,0.0,0.0,0.0,-4.0489,-4.0489,-4.0489,-4.0489,-4.0489,-4.0489,-4.0489,-4.0489,-4.0489,-4.0508,0.0,0.0,0.0,0.0,0.0,0.0,0.0,0.0,0.0,0.0,0.0,0.0,0.0,0.0,0.0,0.0,0.0,0.0,0.0,0.0,0.0,0.0,0.0,0.0,0.0,0.0,0.0,0.0,0.0,0.0,-2.6911,-2.9364,-2.9144,0.0,0.0,0.0,0.0,-2.231,-2.231,-2.231,-2.231,0.0,0.0,0.0,0.0,0.0,0.0,0.0,0.0,-2.2798,-2.3648,-2.4626,-2.4972,0.0,0.0,0.0,0.0,0.0,-2.742,-2.8888,-2.9843,-2.8423,-2.9136,-2.9989,-2.9246,-2.9225,0.0,0.0,0.0,0.0,0.0,0.0,0.0,0.0,0.0,0.0,0.0,0.0,0.0,0.0,0.0,0.0,0.0,0.0,0.0,0.0,0.0,0.0,0.0,0.0,0.0,-4.5586,-4.5586,-4.5586,-4.5586,-4.5586,-4.5586,-4.5586,-4.4855,-4.4432,-4.4278,-4.3585,-4.2739,0.0,0.0,-4.1316,-4.0489,-4.0489,-4.0489,-4.0489,-4.0489,-4.0489,-4.0489,-4.0489,-4.0489,-4.0604,0.0,0.0,0.0,0.0,0.0,0.0,0.0,0.0,0.0,0.0,0.0,0.0,0.0,0.0,0.0,0.0,0.0,0.0,0.0,0.0,0.0,0.0,0.0,0.0,0.0,0.0,0.0,0.0,0.0,-2.7334,-2.8552,-2.911,-2.7977,-2.5439,0.0,0.0,0.0,-2.231,-2.231,-2.231,0.0,0.0,0.0,0.0,0.0,0.0,0.0,0.0,0.0,0.0,-2.2946,-2.3523,-2.388,0.0,0.0,0.0,0.0,0.0,-2.575,-2.7034,-2.8191,-2.7879,-2.9659,-3.1292,-3.0485,-3.0401,0.0,0.0,0.0,0.0,0.0,0.0,0.0,0.0,0.0,0.0,0.0,0.0,0.0,0.0,0.0,0.0,0.0,0.0,0.0,0.0,0.0,0.0,0.0,0.0,0.0,0.0,-4.447,-4.4239,-4.4239,-4.4239,-4.4701,-4.5586,-4.5182,-4.4528,-4.3643,-4.3278,-4.2374,-4.1104,0.0,-4.0873,-4.0489,-4.0489,-4.0489,-4.0489,-4.0489,-4.0219,-3.9835,-3.9835,-4.0123,-4.0546,0.0,0.0,0.0,0.0,0.0,0.0,0.0,0.0,0.0,0.0,0.0,0.0,0.0,0.0,0.0,0.0,0.0,0.0,0.0,0.0,0.0,0.0,0.0,0.0,0.0,0.0,0.0,-2.3794,-2.573,-2.7774,-2.982,-2.8264,-2.6556,0.0,0.0,0.0,0.0,-2.231,-2.231,-2.231,0.0,0.0,0.0,0.0,0.0,0.0,0.0,0.0,0.0,0.0,0.0,0.0,0.0,0.0,0.0,-2.3996,-2.4016,-2.4012,-2.4213,-2.5287,-2.653,-2.7218,0.0,-3.1568,-3.188,-3.1659,0.0,0.0,0.0,0.0,0.0,0.0,0.0,0.0,0.0,0.0,0.0,0.0,0.0,0.0,0.0,0.0,0.0,0.0,0.0,0.0,0.0,0.0,0.0,0.0,0.0,0.0,-4.3412,-4.3104,-4.3104,-4.3104,-4.3835,-4.5278,-4.4893,-4.4143,-4.3085,-4.2681,-4.1662,-4.0219,-4.0219,-4.0219,-4.02,-3.9988,-4.0142,-4.045,-4.0065,-3.9662,-3.9296,-3.9296,-3.9796,-4.0489,0.0,0.0,0.0,0.0,0.0,0.0,0.0,0.0,0.0,0.0,0.0,0.0,0.0,0.0,0.0,0.0,0.0,0.0,0.0,0.0,0.0,0.0,0.0,0.0,0.0,-2.1292,-2.2163,-2.2276,-2.5246,-2.7503,-2.9025,-2.7486,-2.6336,-2.5456,0.0,0.0,0.0,-2.231,-2.231,-2.231,-2.231,0.0,0.0,0.0,0.0,0.0,0.0,0.0,0.0,0.0,0.0,0.0,0.0,0.0,-2.33,-2.3649,-2.3522,-2.3419,-2.4189,-2.5013,-2.5772,-2.6128,-2.7187,0.0,-3.2797,-3.2467,0.0,-3.534,0.0,0.0,0.0,0.0,0.0,0.0,0.0,0.0,0.0,0.0,0.0,0.0,0.0,0.0,0.0,0.0,0.0,0.0,0.0,0.0,0.0,0.0,0.0,0.0,0.0,-4.3104,-4.3104,-4.3104,-4.3547,-4.4374,-4.2816,-4.2431,-4.3047,-4.1412,-4.02,-3.9392,-3.9392,-3.9392,-3.9315,-3.8507,-3.9104,-4.0335,-3.8796,-3.8642,-3.9296,-3.9296,-3.9796,-4.0489,0.0,0.0,0.0,0.0,0.0,0.0,0.0,0.0,0.0,0.0,0.0,0.0,0.0,0.0,0.0,0.0,0.0,0.0,0.0,0.0,0.0,0.0,0.0,-1.9818,-2.007,-2.1379,-2.2549,-2.3468,-2.6114,-2.7689,-2.8213,-2.6251,0.0,0.0,0.0,0.0,0.0,-2.231,-2.231,-2.231,-2.231,-2.231,0.0,0.0,0.0,0.0,0.0,0.0,0.0,0.0,-2.236,-2.25,0.0,-2.2898,-2.2947,-2.33,-2.33,-2.3259,-2.3584,-2.4587,-2.5693,-2.6364,-2.6798,0.0,0.0,-3.3366,-3.4156,-3.5936,-3.6904,0.0,0.0,0.0,0.0,0.0,0.0,0.0,0.0,0.0,0.0,0.0,0.0,0.0,0.0,0.0,0.0,0.0,0.0,0.0,0.0,0.0,0.0,0.0,0.0,-4.147,-4.147,-4.147,-4.1912,-4.2739,-4.2643,-4.2508,-4.2258,-4.1046,-4.0046,-3.9296,-3.9296,-3.8988,-3.8507,-3.8719,-3.9181,-3.9642,-3.845,-3.82,-3.843,-3.7873,-3.8565,-3.9738,0.0,0.0,0.0,0.0,0.0,0.0,0.0,0.0,0.0,0.0,0.0,0.0,0.0,0.0,0.0,0.0,0.0,0.0,0.0,0.0,0.0,0.0,0.0,-2.0035,-2.028,-2.1373,-2.2539,-2.3791,-2.5764,-2.6776,-2.6742,0.0,0.0,0.0,0.0,0.0,0.0,0.0,-2.2086,-2.1886,-2.1886,-2.1886,0.0,0.0,0.0,0.0,0.0,0.0,0.0,0.0,0.0,0.0,0.0,0.0,0.0,0.0,-2.2989,-2.2908,-2.2908,-2.3868,-2.5055,-2.6008,0.0,0.0,-3.2347,-3.3923,-3.52,-3.7484,0.0,0.0,0.0,0.0,0.0,0.0,0.0,0.0,0.0,0.0,0.0,0.0,0.0,0.0,0.0,0.0,0.0,0.0,0.0,0.0,0.0,0.0,0.0,0.0,0.0,-4.0239,-4.0489,-4.0239,-4.0412,-4.1008,-4.1335,-4.1604,-4.1777,-4.0893,-3.9912,-3.8892,-3.8892,-3.8392,-3.7623,-3.7969,-3.8104,-3.8065,-3.7719,-3.7584,-3.7526,-3.693,-3.7623,-3.8892,0.0,0.0,0.0,0.0,0.0,0.0,0.0,0.0,0.0,0.0,0.0,0.0,0.0,0.0,0.0,0.0,0.0,0.0,0.0,0.0,0.0,0.0,0.0,-2.0314,-2.0314,-2.1165,-2.1974,-2.2714,-2.3885,-2.4506,-2.4506,0.0,0.0,0.0,0.0,0.0,0.0,0.0,-2.1598,-2.0991,-2.0991,-2.0991,-2.1023,0.0,0.0,0.0,0.0,0.0,0.0,0.0,-2.231,0.0,0.0,0.0,0.0,0.0,-2.25,-2.2282,-2.231,-2.2852,-2.365,0.0,0.0,0.0,-3.3741,-3.4129,-3.5119,-4.0401,0.0,0.0,0.0,0.0,0.0,0.0,0.0,0.0,0.0,0.0,0.0,0.0,0.0,0.0,0.0,0.0,0.0,0.0,0.0,0.0,0.0,0.0,0.0,0.0,0.0,0.0,-4.0469,-3.9681,-3.9296,-3.9277,-3.8411,-3.9315,-4.1739,-4.0854,-3.9546,-3.7988,-3.7988,-3.7488,-3.6642,-3.5853,-3.5526,-3.5584,-3.6392,-3.6699,-3.6699,-3.6699,-3.7238,-3.7988,0.0,0.0,0.0,0.0,0.0,0.0,0.0,0.0,0.0,0.0,0.0,0.0,0.0,0.0,0.0,0.0,0.0,0.0,0.0,0.0,0.0,0.0,0.0,0.0,0.0,0.0,-2.2459,-2.318,-2.3536,-2.3985,0.0,0.0,0.0,-2.4797,0.0,0.0,0.0,0.0,0.0,-2.0991,-2.0991,-2.0991,-2.0991,0.0,0.0,0.0,0.0,0.0,0.0,0.0,0.0,0.0,0.0,0.0,0.0,-2.2569,-2.2483,-2.2532,-2.2343,-2.2999,0.0,-2.5807,0.0,0.0,0.0,-3.4516,0.0,0.0,0.0,0.0,0.0,0.0,0.0,0.0,0.0,0.0,0.0,0.0,0.0,0.0,0.0,0.0,0.0,0.0,0.0,0.0,0.0,0.0,0.0,0.0,0.0,0.0,0.0,0.0,-3.8738,-3.9104,-3.8988,-3.8373,-3.8123,-3.8392,-3.9104,-3.8219,-3.7565,-3.7084,-3.7084,-3.6622,-3.5892,-3.6219,-3.6007,-3.5584,-3.6392,-3.6353,-3.5872,-3.5872,-3.6392,-3.7084,0.0,0.0,0.0,0.0,0.0,0.0,0.0,0.0,0.0,0.0,0.0,0.0,0.0,0.0,0.0,0.0,0.0,0.0,0.0,0.0,0.0,0.0,0.0,0.0,0.0,-2.1524,-2.1996,0.0,0.0,0.0,0.0,0.0,0.0,-2.5355,0.0,-2.3925,0.0,0.0,0.0,-2.0481,-2.0481,-2.0481,-2.0499,0.0,0.0,0.0,0.0,0.0,0.0,0.0,0.0,0.0,0.0,0.0,0.0,-2.2166,-2.2032,-2.2034,-2.2153,-2.3256,0.0,-2.6801,-2.9168,-3.1579,-3.3947,0.0,0.0,0.0,0.0,0.0,0.0,0.0,0.0,0.0,0.0,0.0,0.0,0.0,0.0,0.0,0.0,0.0,0.0,0.0,0.0,0.0,0.0,0.0,0.0,0.0,0.0,0.0,0.0,0.0,-3.7843,-3.8016,-3.7894,-3.7488,-3.7161,-3.7007,-3.7007,-3.7161,-3.7026,-3.668,-3.6372,-3.5949,-3.5545,-3.6026,-3.5949,-3.5565,-3.6045,-3.593,-3.5493,-3.5493,-3.5815,-3.6219,0.0,0.0,0.0,0.0,0.0,0.0,0.0,0.0,0.0,0.0,0.0,0.0,0.0,0.0,0.0,0.0,0.0,0.0,0.0,0.0,0.0,0.0,0.0,0.0,0.0,0.0,0.0,0.0,0.0,0.0,0.0,0.0,-2.5124,-2.6404,0.0,-2.4686,0.0,0.0,0.0,-1.969,-1.969,-1.969,-1.9747,-2.0089,0.0,0.0,0.0,0.0,0.0,0.0,0.0,0.0,0.0,-2.1949,-2.1634,-2.1584,-2.1293,-2.1198,-2.1837,0.0,0.0,-2.7641,-3.0439,0.0,0.0,0.0,0.0,0.0,0.0,0.0,0.0,0.0,0.0,0.0,0.0,0.0,0.0,0.0,0.0,0.0,0.0,0.0,0.0,0.0,0.0,0.0,0.0,0.0,0.0,0.0,0.0,0.0,0.0,0.0,-3.7336,-3.6573,-3.6313,0.0,-3.5762,-3.543,-3.5565,-3.7084,-3.7334,-3.6546,-3.5834,-3.5493,-3.5493,-3.5493,-3.5493,-3.5493,-3.5493,-3.5493,-3.5493,-3.5493,-3.5493,-3.5493,0.0,0.0,0.0,0.0,0.0,0.0,0.0,0.0,0.0,0.0,0.0,0.0,0.0,0.0,0.0,0.0,0.0,0.0,0.0,0.0,0.0,0.0,0.0,0.0,0.0,0.0,0.0,0.0,0.0,0.0,0.0,0.0,0.0,-2.4624,0.0,-2.3427,0.0,0.0,0.0,-1.969,-1.969,-1.969,-1.9726,-1.9782,-2.0035,0.0,0.0,0.0,0.0,0.0,0.0,0.0,-2.126,-2.1601,-2.1892,-2.1311,-2.1259,-2.1478,-2.1879,-2.2426,0.0,0.0,-3.1651,0.0,0.0,0.0,0.0,0.0,0.0,0.0,0.0,0.0,0.0,0.0,0.0,0.0,0.0,0.0,0.0,0.0,0.0,0.0,0.0,0.0,0.0,0.0,0.0,0.0,0.0,0.0,0.0,0.0,0.0,-3.5718,-3.5342,-3.536,-3.5389,0.0,-3.4784,-3.4834,-3.5512,-3.5872,-3.5949,-3.5757,-3.5584,-3.5493,-3.5493,-3.5493,-3.5493,-3.5493,-3.5493,-3.5493,-3.5493,-3.5493,-3.5493,-3.5493,0.0,0.0,0.0,0.0,0.0,0.0,0.0,0.0,0.0,0.0,0.0,0.0,0.0,0.0,0.0,0.0,0.0,0.0,0.0,0.0,0.0,0.0,0.0,0.0,0.0,0.0,0.0,0.0,0.0,0.0,0.0,0.0,0.0,-2.4601,0.0,-2.3033,0.0,0.0,0.0,-1.969,-1.969,-1.969,-1.969,-1.969,-1.9839,-2.0,-2.0,0.0,0.0,0.0,0.0,0.0,0.0,0.0,-2.1173,-2.0793,-2.0662,-2.0732,-2.1219,0.0,0.0,-2.8295,0.0,0.0,0.0,0.0,0.0,0.0,0.0,0.0,0.0,0.0,0.0,0.0,0.0,0.0,0.0,0.0,0.0,0.0,0.0,0.0,0.0,0.0,0.0,0.0,0.0,0.0,0.0,0.0,0.0,0.0,-3.316,-3.3608,-3.3304,-3.3448,-3.3638,-3.3901,-3.357,-3.3728,-3.4276,-3.5122,-3.5493,-3.5488,-3.5064,-3.4872,-3.4853,-3.443,-3.4507,-3.4834,-3.443,-3.4776,-3.5411,-3.4564,-3.4776,-3.5449,0.0,0.0,0.0,0.0,0.0,0.0,0.0,0.0,0.0,0.0,0.0,0.0,0.0,0.0,0.0,0.0,0.0,0.0,0.0,0.0,0.0,0.0,0.0,0.0,0.0,0.0,0.0,0.0,0.0,0.0,0.0,0.0,0.0,-2.4879,0.0,0.0,0.0,0.0,0.0,-1.9406,-1.9406,-1.9406,-1.9406,-1.9406,-1.9479,-1.9545,-1.9561,-1.9619,-1.9762,-2.0071,0.0,0.0,0.0,0.0,-2.0193,-2.0193,-1.9965,-1.9839,-2.0528,0.0,-2.4786,-2.8955,0.0,0.0,0.0,0.0,0.0,0.0,0.0,0.0,0.0,0.0,0.0,0.0,0.0,0.0,0.0,0.0,0.0,0.0,0.0,0.0,0.0,0.0,0.0,0.0,0.0,0.0,0.0,0.0,-3.0991,-3.0556,-3.1107,-3.1513,-3.1734,-3.1629,-3.1919,-3.2537,-3.2615,-3.2737,-3.2949,-3.4391,-3.5064,-3.5007,-3.4295,-3.3968,-3.391,-3.3199,-3.3314,-3.3891,-3.3179,-3.3776,-3.4891,-3.343,-3.3814,-3.4949,0.0,0.0,0.0,0.0,0.0,0.0,0.0,0.0,0.0,0.0,0.0,0.0,0.0,0.0,0.0,0.0,0.0,0.0,-1.8765,0.0,0.0,-1.969,0.0,0.0,0.0,0.0,0.0,0.0,0.0,0.0,0.0,0.0,0.0,-2.3764,0.0,0.0,0.0,0.0,0.0,0.0,0.0,-1.8302,-1.8302,-1.8302,-1.8612,-1.9003,-1.9023,-1.9315,-1.9692,-1.9744,-1.9759,0.0,0.0,0.0,-1.9782,-1.9782,-1.9747,-1.9839,0.0,0.0,-2.5046,0.0,0.0,0.0,0.0,0.0,0.0,0.0,0.0,0.0,0.0,0.0,0.0,0.0,0.0,0.0,0.0,0.0,0.0,0.0,0.0,0.0,0.0,0.0,0.0,0.0,0.0,0.0,0.0,-2.9554,-3.0344,-3.0257,-3.1005,-3.1409,-3.144,-3.0995,-3.1274,-3.2278,-3.2675,-3.2865,-3.291,-3.3141,-3.3256,-3.3237,-3.3122,-3.3064,-3.3064,-3.2949,-3.2968,-3.3064,-3.2949,-3.3045,-3.3218,-3.2987,-3.3045,-3.3237,0.0,0.0,0.0,0.0,0.0,0.0,0.0,0.0,0.0,0.0,0.0,0.0,0.0,0.0,0.0,-1.7175,-1.7787,-1.8458,-1.9281,-1.9566,-1.969,-1.969,-1.969,0.0,0.0,0.0,0.0,0.0,0.0,0.0,0.0,-2.1975,-2.2931,0.0,0.0,0.0,0.0,0.0,0.0,0.0,0.0,0.0,0.0,0.0,-1.8263,-1.8447,-1.8436,-1.8604,-1.8808,-1.8807,-1.88,-1.8817,-1.8817,0.0,0.0,0.0,-1.8817,0.0,-1.9987,-2.1558,-2.3381,0.0,0.0,0.0,0.0,0.0,0.0,0.0,0.0,0.0,0.0,0.0,0.0,0.0,0.0,0.0,0.0,0.0,0.0,0.0,0.0,0.0,0.0,0.0,0.0,0.0,0.0,0.0,-2.7126,-2.7805,-2.8191,-2.8191,-2.8539,-2.8705,-2.8705,-2.8579,-2.8877,-2.9577,-3.0394,-3.0525,-3.0121,-3.1064,-3.2006,-3.2872,-3.2429,-3.2237,-3.2199,-3.1698,-3.1795,-3.2179,-3.1698,-3.2064,-3.2795,-3.1852,-3.2083,-3.2833,0.0,0.0,0.0,0.0,0.0,0.0,0.0,0.0,0.0,0.0,0.0,0.0,0.0,0.0,0.0,0.0,-1.7867,-1.8574,-1.9639,-1.969,-1.969,-1.969,-1.969,-1.9639,0.0,0.0,0.0,0.0,0.0,0.0,-1.9898,-2.1365,-2.2373,0.0,-2.2011,0.0,0.0,0.0,0.0,0.0,0.0,0.0,0.0,0.0,0.0,0.0,-1.7923,-1.8003,-1.808,-1.8125,-1.811,-1.8106,-1.8106,-1.8106,0.0,0.0,0.0,0.0,0.0,0.0,0.0,0.0,0.0,0.0,0.0,0.0,0.0,0.0,0.0,0.0,0.0,0.0,0.0,0.0,0.0,0.0,0.0,0.0,0.0,0.0,0.0,0.0,0.0,0.0,0.0,0.0,0.0,0.0,-2.6176,-2.6442,-2.6612,-2.6612,-2.6612,-2.6612,-2.6612,-2.686,-2.7142,-2.7521,-2.838,-2.8467,-2.7928,-2.9198,-3.0448,-3.1621,-3.1448,-3.1371,-3.1314,-3.0679,-3.0794,-3.1314,-3.0648,-3.116,-3.2122,-3.0871,-3.1198,-3.2179,0.0,0.0,0.0,0.0,0.0,0.0,0.0,0.0,0.0,0.0,0.0,0.0,-1.541,-1.5588,-1.6262,-1.7894,-1.8066,-1.8574,-1.9639,-1.969,-1.969,-1.969,-1.969,0.0,-1.8968,0.0,0.0,0.0,0.0,0.0,-1.9816,-2.0567,-2.1121,-2.1622,-2.1589,-2.1043,-1.9946,0.0,0.0,0.0,0.0,0.0,0.0,0.0,0.0,0.0,0.0,0.0,-1.8109,-1.8185,-1.8151,-1.8106,-1.8106,-1.8106,-1.8106,0.0,0.0,0.0,0.0,0.0,0.0,0.0,0.0,0.0,0.0,0.0,0.0,0.0,0.0,0.0,0.0,0.0,0.0,0.0,0.0,0.0,0.0,0.0,0.0,0.0,0.0,0.0,0.0,0.0,0.0,0.0,0.0,0.0,-2.5,-2.6005,-2.6612,-2.6612,-2.6612,-2.6612,-2.6612,-2.7006,-2.7282,-2.7502,-2.7812,-2.7928,-2.789,-2.7986,-2.8082,-2.8255,-2.9794,-3.0456,-3.0456,-3.0417,-3.0417,-3.0456,-3.0417,-3.0436,-3.0513,-3.0417,-3.0456,-3.0513,0.0,0.0,0.0,0.0,0.0,0.0,0.0,0.0,0.0,0.0,0.0,0.0,0.0,-1.5964,-1.6557,-1.7504,-1.8224,-1.8779,-1.9169,-1.953,-1.9566,-1.9207,-1.9207,-1.893,-1.8419,0.0,0.0,0.0,0.0,-1.8886,-1.8767,-1.9373,-1.9749,-1.9911,-2.0296,-2.0041,-1.9287,-1.8147,0.0,0.0,0.0,0.0,0.0,0.0,0.0,0.0,0.0,0.0,0.0,-1.7252,-1.7245,-1.7408,-1.7157,-1.7012,-1.6967,-1.7041,0.0,0.0,0.0,0.0,0.0,0.0,0.0,0.0,0.0,0.0,0.0,0.0,0.0,0.0,0.0,0.0,0.0,0.0,0.0,0.0,0.0,0.0,0.0,0.0,0.0,0.0,0.0,0.0,0.0,0.0,0.0,0.0,-2.4147,-2.4728,-2.5052,-2.5052,-2.5052,-2.5171,-2.5437,-2.5581,-2.5796,-2.6102,-2.6743,-2.6774,-2.6274,-2.739,-2.7582,-2.7121,-2.8294,-2.8794,-2.8871,-2.9967,-2.9775,-2.8909,-2.9987,-3.0063,-2.9621,-3.0198,-3.0398,-3.0386,0.0,0.0,0.0,0.0,0.0,0.0,0.0,0.0,0.0,0.0,0.0,0.0,0.0,0.0,-1.671,-1.7229,-1.8302,-1.8893,-1.8893,-1.9244,-1.9281,-1.893,-1.8727,-1.838,-1.7827,0.0,0.0,0.0,0.0,0.0,0.0,-1.8362,-1.8682,-1.8983,-1.9007,-1.8907,0.0,0.0,0.0,-1.6785,0.0,0.0,-1.6458,0.0,0.0,0.0,0.0,0.0,0.0,0.0,0.0,0.0,0.0,0.0,0.0,0.0,0.0,0.0,-1.7034,0.0,0.0,0.0,0.0,0.0,0.0,0.0,0.0,0.0,0.0,0.0,0.0,0.0,0.0,0.0,0.0,0.0,0.0,0.0,0.0,0.0,0.0,0.0,0.0,0.0,0.0,0.0,0.0,0.0,-2.3544,-2.3976,-2.419,-2.419,-2.419,-2.4393,-2.4804,-2.4804,-2.4981,-2.5303,-2.589,-2.587,-2.5341,-2.6505,-2.6717,-2.6217,-2.7082,-2.7621,-2.8005,-2.939,-2.9313,-2.8429,-2.9852,-3.0044,-2.9602,-3.0087,-3.0267,-3.0241,0.0,0.0,0.0,0.0,0.0,0.0,0.0,0.0,0.0,0.0,0.0,0.0,0.0,0.0,0.0,-1.7229,-1.8277,-1.8884,-1.8884,-1.8884,-1.8884,-1.8884,-1.8369,-1.7841,-1.7312,0.0,0.0,0.0,0.0,0.0,0.0,0.0,-1.794,0.0,-1.784,-1.7652,-1.8069,0.0,-1.735,-1.73,0.0,-1.6394,-1.6315,0.0,0.0,0.0,-1.597,-1.567,0.0,0.0,0.0,0.0,0.0,0.0,0.0,0.0,0.0,0.0,0.0,0.0,0.0,0.0,0.0,0.0,0.0,0.0,0.0,0.0,0.0,0.0,0.0,0.0,0.0,0.0,0.0,0.0,0.0,0.0,0.0,0.0,0.0,0.0,0.0,0.0,0.0,0.0,0.0,-2.3544,-2.3212,-2.3837,-2.419,-2.419,-2.419,-2.4393,-2.4804,-2.4804,-2.4981,-2.5303,-2.5303,-2.5303,-2.5303,-2.5303,-2.5303,-2.5341,-2.6197,-2.7044,-2.789,-2.8717,-2.9025,-2.9083,-2.9987,-3.0321,-3.0309,-3.0051,-2.998,-2.9969,0.0,0.0,0.0,0.0,0.0,0.0,0.0,0.0,0.0,0.0,0.0,0.0,0.0,-1.6843,-1.7062,-1.6748,-1.7763,-1.8368,-1.8368,-1.8728,-1.8769,-1.841,-1.8256,-1.7718,-1.6723,0.0,0.0,0.0,0.0,0.0,0.0,0.0,0.0,0.0,-1.7087,-1.6603,-1.63,-1.6154,0.0,0.0,-1.5435,-1.5199,0.0,0.0,0.0,0.0,0.0,-1.5247,-1.5359,0.0,-1.4884,-1.5092,0.0,0.0,0.0,0.0,0.0,0.0,-1.6522,0.0,0.0,0.0,0.0,0.0,0.0,0.0,0.0,0.0,0.0,0.0,0.0,0.0,0.0,0.0,0.0,0.0,0.0,0.0,0.0,0.0,0.0,0.0,0.0,0.0,0.0,0.0,-2.3093,-2.3392,-2.3544,-2.3976,-2.419,-2.419,-2.419,-2.4393,-2.4804,-2.4804,-2.4981,-2.5303,-2.5303,-2.5303,-2.5303,-2.5303,-2.5303,-2.5303,-2.5553,-2.5813,-2.614,-2.7621,-2.7486,-2.6505,-2.8005,-2.8582,-2.8637,-2.9014,-2.9484,-2.9954,0.0,0.0,0.0,0.0,0.0,0.0,0.0,0.0,0.0,0.0,0.0,0.0,0.0,0.0,-1.7589,-1.725,-1.8041,-1.8534,-1.8534,-1.8772,-1.8816,-1.8534,-1.8325,-1.7901,-1.7225,0.0,0.0,0.0,0.0,0.0,0.0,0.0,0.0,0.0,0.0,0.0,0.0,0.0,0.0,0.0,-1.4835,0.0,0.0,-1.4816,-1.4698,0.0,0.0,0.0,-1.5065,-1.4217,-1.4098,0.0,0.0,0.0,0.0,0.0,0.0,0.0,0.0,0.0,0.0,0.0,0.0,0.0,0.0,-1.6752,0.0,0.0,0.0,0.0,0.0,0.0,0.0,0.0,0.0,0.0,0.0,0.0,0.0,0.0,0.0,0.0,0.0,0.0,0.0,0.0,-2.294,-2.3414,-2.3896,-2.4094,-2.419,-2.419,-2.419,-2.4393,-2.4804,-2.4804,-2.4981,-2.5303,-2.5303,-2.5303,-2.5303,-2.5303,-2.5303,-2.5303,-2.5303,-2.5303,-2.538,-2.6409,-2.6428,-2.5986,-2.7351,-2.7857,-2.7807,-2.8046,-2.8578,-2.9164,0.0,0.0,0.0,0.0,0.0,0.0,0.0,0.0,0.0,0.0,0.0,0.0,0.0,0.0,0.0,-1.8216,-1.8699,-1.9002,-1.9002,-1.9002,-1.9002,-1.9002,-1.8563,-1.8267,-1.8204,0.0,0.0,0.0,0.0,0.0,0.0,0.0,0.0,0.0,0.0,0.0,0.0,0.0,0.0,-1.4525,-1.4525,-1.4391,0.0,0.0,-1.4467,0.0,-1.3941,-1.4248,-1.4404,-1.3262,-1.2929,0.0,0.0,0.0,0.0,0.0,-1.6572,0.0,0.0,0.0,0.0,0.0,0.0,0.0,-1.6522,-1.6522,0.0,0.0,0.0,0.0,0.0,0.0,0.0,0.0,0.0,0.0,0.0,0.0,0.0,0.0,0.0,0.0,0.0,0.0,-2.1823,-2.2321,-2.2908,-2.3522,-2.4113,-2.417,-2.417,-2.4151,-2.417,-2.4356,-2.4712,-2.4775,-2.4968,-2.5264,-2.5303,-2.5303,-2.5303,-2.5303,-2.5303,-2.5303,-2.5274,-2.5264,-2.5264,-2.5253,-2.5714,-2.6504,-2.7272,-2.752,-2.7393,-2.7138,-2.7433,-2.794,-1.2881,0.0,0.0,0.0,0.0,0.0,0.0,0.0,0.0,0.0,0.0,0.0,0.0,0.0,0.0,0.0,-1.8702,-1.9003,-1.9003,-1.9003,-1.9003,-1.9003,-1.8918,-1.8656,-1.8216,-1.8103,0.0,0.0,0.0,0.0,0.0,0.0,0.0,0.0,0.0,0.0,0.0,0.0,0.0,-1.3248,-1.3248,0.0,-1.3194,-1.3283,-1.3273,-1.3125,-1.3125,-1.3184,-1.3213,0.0,-1.3238,-1.3842,0.0,0.0,0.0,0.0,0.0,0.0,0.0,0.0,0.0,0.0,0.0,0.0,-1.6522,-1.6522,-1.6522,0.0,0.0,0.0,0.0,0.0,0.0,0.0,0.0,0.0,0.0,0.0,0.0,0.0,0.0,0.0,0.0,0.0,-2.189,-2.2556,-2.323,-2.3671,-2.3795,-2.4036,-2.4074,-2.3816,-2.4074,-2.4192,-2.4155,-2.4582,-2.4896,-2.5057,-2.5224,-2.5303,-2.5303,-2.5303,-2.5303,-2.5284,-2.5141,-2.5065,-2.5046,-2.4949,-2.507,-2.5325,-2.5497,-2.5876,-2.6288,-2.6068,-2.6487,-2.7103,-1.2881,0.0,0.0,0.0,0.0,0.0,0.0,0.0,0.0,0.0,0.0,0.0,0.0,0.0,0.0,0.0,0.0,0.0,0.0,-1.9041,-1.899,-1.9359,-1.9409,-1.9284,-1.9007,-1.8166,-1.7738,0.0,0.0,0.0,0.0,0.0,0.0,0.0,0.0,0.0,0.0,0.0,-1.32,-1.2881,-1.2881,0.0,-1.2881,-1.2881,-1.2881,-1.2881,-1.2881,-1.2881,-1.2939,-1.3359,-1.3551,0.0,0.0,-1.5243,-1.566,0.0,-1.6748,-1.6522,0.0,0.0,0.0,-1.6522,0.0,0.0,0.0,-1.6522,-1.6522,0.0,0.0,0.0,0.0,0.0,0.0,0.0,0.0,0.0,0.0,0.0,0.0,0.0,0.0,0.0,0.0,0.0,-2.1698,-2.2643,-2.3021,-2.3259,-2.3437,-2.361,-2.361,-2.3477,-2.361,-2.3803,-2.3988,-2.4262,-2.4579,-2.4904,-2.5,-2.5056,-2.5056,-2.5056,-2.5056,-2.5056,-2.493,-2.4904,-2.4891,-2.4828,-2.4785,-2.4747,-2.4864,-2.504,-2.5239,-2.5144,-2.556,-2.6133,-1.2881,0.0,0.0,0.0,0.0,0.0,0.0,0.0,0.0,0.0,0.0,0.0,0.0,0.0,0.0,0.0,0.0,0.0,0.0,0.0,-1.8835,-1.943,-1.9697,-1.9697,-1.943,-1.8006,-1.723,0.0,0.0,0.0,0.0,0.0,0.0,0.0,0.0,0.0,0.0,0.0,0.0,-1.2881,0.0,-1.293,-1.2998,-1.291,-1.293,-1.2988,-1.291,-1.2881,-1.2998,-1.376,0.0,-1.367,-1.4821,-1.5115,0.0,0.0,0.0,0.0,0.0,0.0,0.0,0.0,0.0,-1.6293,0.0,0.0,0.0,-1.6337,0.0,0.0,0.0,0.0,0.0,0.0,0.0,0.0,0.0,0.0,0.0,0.0,0.0,0.0,0.0,0.0,-2.1068,-2.2192,-2.2367,-2.2573,-2.2979,-2.3117,-2.3165,-2.3117,-2.3165,-2.3361,-2.3753,-2.393,-2.4227,-2.4648,-2.4741,-2.4804,-2.4804,-2.4804,-2.4804,-2.4804,-2.476,-2.4746,-2.4746,-2.47,-2.4575,-2.4461,-2.467,-2.4623,-2.4426,-2.4426,-2.4764,-2.5182,-1.2881,-1.2881,0.0,0.0,0.0,0.0,0.0,0.0,0.0,0.0,0.0,0.0,0.0,0.0,0.0,0.0,0.0,0.0,-2.0876,0.0,0.0,-1.8127,-1.9216,-1.9253,-1.8139,-1.7577,-1.6973,-1.6327,0.0,0.0,0.0,0.0,0.0,0.0,-1.2998,0.0,0.0,0.0,-1.2881,0.0,-1.2881,-1.3105,0.0,-1.3027,-1.3115,-1.3389,-1.3018,-1.2881,-1.2959,0.0,-1.3545,-1.388,0.0,-1.5734,0.0,0.0,0.0,0.0,0.0,0.0,0.0,0.0,-1.572,0.0,0.0,0.0,-1.572,-1.572,0.0,0.0,0.0,0.0,0.0,0.0,0.0,0.0,0.0,0.0,0.0,0.0,0.0,0.0,0.0,0.0,0.0,-2.0659,-2.1073,-2.1574,-2.2184,-2.2838,-2.3069,-2.2772,-2.3045,-2.3093,-2.2838,-2.3611,-2.4026,-2.41,-2.4567,-2.4804,-2.4804,-2.4804,-2.4804,-2.479,-2.4607,-2.4526,-2.4528,-2.4339,-2.4247,-2.4247,-2.4444,-2.441,-2.4228,-2.4228,-2.4283,-2.4337,-1.2881,-1.2881,0.0,0.0,0.0,0.0,0.0,0.0,0.0,0.0,0.0,0.0,0.0,0.0,0.0,0.0,0.0,-1.8071,0.0,0.0,0.0,0.0,-1.8387,-1.8375,-1.813,-1.6807,-1.5952,-1.5607,-1.4045,0.0,0.0,0.0,0.0,0.0,-1.2881,0.0,-1.29,0.0,0.0,0.0,0.0,0.0,0.0,-1.3135,-1.2988,-1.3125,-1.2939,-1.2881,-1.291,0.0,-1.3467,0.0,0.0,0.0,0.0,0.0,0.0,0.0,0.0,0.0,0.0,0.0,0.0,0.0,0.0,0.0,-1.5062,0.0,0.0,0.0,0.0,0.0,0.0,0.0,0.0,0.0,0.0,0.0,0.0,0.0,0.0,0.0,0.0,0.0,0.0,0.0,0.0,-2.1217,-2.2164,-2.25,-2.2607,-2.2463,-2.2607,-2.2695,-2.2695,-2.3064,-2.3348,-2.3538,-2.3771,-2.3968,-2.4174,-2.4174,-2.4265,-2.4444,-2.4357,-2.4339,-2.4321,-2.4228,-2.419,-2.4209,-2.4284,-2.4266,-2.419,-2.419,-2.419,-2.419,-1.2608,0.0,0.0,0.0,0.0,0.0,0.0,0.0,0.0,0.0,0.0,0.0,-1.7789,-1.8647,0.0,0.0,-1.8733,-1.8019,0.0,0.0,-1.6935,0.0,0.0,0.0,0.0,-1.6095,-1.5269,-1.5068,0.0,0.0,0.0,0.0,0.0,0.0,0.0,-1.2988,-1.29,0.0,0.0,-1.334,-1.334,-1.3516,-1.374,-1.3242,-1.2988,-1.2881,-1.2881,-1.2881,-1.29,-1.3018,-1.3457,0.0,-1.4128,0.0,0.0,0.0,0.0,0.0,-1.5029,0.0,0.0,0.0,0.0,0.0,0.0,0.0,0.0,0.0,0.0,0.0,0.0,0.0,0.0,0.0,0.0,0.0,0.0,0.0,0.0,0.0,0.0,0.0,0.0,0.0,0.0,0.0,-1.9971,-2.0488,-2.1611,-2.1931,-2.2106,-2.2106,-2.2106,-2.2198,-2.2405,-2.2495,-2.2703,-2.3069,-2.3165,-2.3369,-2.3692,-2.3692,-2.3896,-2.419,-2.419,-2.419,-2.419,-2.419,-2.419,-2.419,-2.419,-2.419,-2.419,-2.419,-2.419,-2.419,-1.1814,-1.2403,0.0,0.0,0.0,0.0,0.0,0.0,0.0,0.0,0.0,0.0,0.0,0.0,0.0,0.0,0.0,-1.8207,-2.0084,0.0,-1.6576,0.0,0.0,-1.7312,0.0,0.0,-1.5553,-1.4821,0.0,0.0,0.0,0.0,0.0,0.0,0.0,-1.3262,-1.2881,-1.29,-1.29,-1.29,-1.29,-1.291,-1.2959,0.0,-1.3232,-1.2881,-1.2881,0.0,0.0,-1.335,-1.3506,0.0,0.0,0.0,0.0,0.0,0.0,0.0,0.0,0.0,0.0,-1.3836,0.0,0.0,0.0,0.0,-1.3815,0.0,0.0,0.0,0.0,0.0,0.0,-1.4957,0.0,0.0,0.0,0.0,0.0,0.0,0.0,0.0,0.0,0.0,0.0,-1.8192,-1.8408,-1.8934,-2.0012,-2.1054,-2.1612,-2.1612,-2.1612,-2.1628,-2.1642,-2.1972,-2.2317,-2.2721,-2.3045,-2.3369,-2.3692,-2.3692,-2.3896,-2.419,-2.419,-2.419,-2.419,-2.419,-2.419,-2.419,-2.419,-2.419,-2.419,-2.419,-2.419,-2.419,0.0,0.0,0.0,0.0,0.0,0.0,0.0,-1.5065,0.0,0.0,0.0,0.0,0.0,0.0,-1.9439,0.0,0.0,-1.9196,-1.9616,-1.8181,0.0,0.0,0.0,-1.6809,0.0,0.0,0.0,0.0,0.0,0.0,0.0,0.0,0.0,0.0,0.0,-1.3691,0.0,0.0,0.0,0.0,0.0,-1.3301,-1.3281,0.0,0.0,-1.2881,-1.2881,-1.2881,0.0,-1.3047,-1.3281,-1.3537,-1.3631,-1.359,-1.3549,-1.3736,-1.3504,0.0,0.0,0.0,-1.326,-1.3551,0.0,0.0,0.0,0.0,0.0,0.0,0.0,0.0,0.0,0.0,0.0,-1.5274,0.0,0.0,0.0,0.0,0.0,0.0,0.0,0.0,0.0,0.0,0.0,-1.7632,-1.7722,-1.8399,0.0,-2.0358,-2.0728,-2.1197,-2.1213,-2.1213,-2.1213,-2.1595,-2.1861,-2.1977,-2.2402,-2.2747,-2.3045,-2.3045,-2.3212,-2.3544,-2.3544,-2.3544,-2.3544,-2.3544,-2.3544,-2.3544,-2.3544,-2.3671,-2.3896,-2.4113,-2.419,-2.419,-1.0382,0.0,0.0,0.0,0.0,0.0,0.0,0.0,0.0,0.0,-1.6297,0.0,-1.7082,0.0,-1.8633,0.0,-1.9396,-1.9496,-1.8938,-1.8383,0.0,-1.7178,-1.7031,0.0,0.0,0.0,0.0,0.0,0.0,-1.4746,0.0,0.0,0.0,0.0,0.0,0.0,0.0,0.0,-1.3662,0.0,0.0,-1.3281,0.0,0.0,-1.2969,-1.3086,0.0,-1.2881,-1.2881,-1.2881,-1.3066,-1.3242,-1.2969,-1.3066,-1.3232,-1.2959,-1.2881,-1.2939,-1.3213,-1.3086,0.0,-1.3213,-1.3076,0.0,-1.2881,0.0,0.0,0.0,0.0,0.0,0.0,0.0,0.0,-1.4903,-1.4842,-1.4995,0.0,-1.552,0.0,0.0,0.0,0.0,0.0,0.0,-1.6771,-1.747,-1.7516,-1.8175,0.0,0.0,-2.0289,-2.0748,-2.0764,-2.0764,-2.0764,-2.1165,-2.146,-2.1628,-2.2077,-2.2436,-2.2695,-2.2695,-2.288,-2.3189,-2.3189,-2.3189,-2.3189,-2.3189,-2.3189,-2.3189,-2.3189,-2.3346,-2.3566,-2.3896,-2.4016,-2.3996,0.0,0.0,0.0,0.0,-1.3504,0.0,0.0,0.0,-1.4881,0.0,-1.5947,-1.6581,-1.7383,-1.7932,-1.8205,-1.8189,-1.8953,0.0,-1.8237,-1.8854,0.0,0.0,-1.7207,-1.6602,-1.4797,0.0,0.0,0.0,0.0,0.0,0.0,0.0,0.0,0.0,-1.4785,0.0,-1.3506,-1.3525,-1.3281,-1.2881,-1.2881,-1.2891,-1.291,-1.2891,0.0,-1.3447,-1.3027,-1.2881,-1.2881,-1.2881,-1.2881,-1.2881,-1.2881,-1.2881,-1.2881,-1.2881,-1.2881,-1.2881,-1.2881,-1.2881,-1.2881,-1.2881,0.0,0.0,0.0,0.0,-1.2881,0.0,0.0,0.0,0.0,0.0,0.0,0.0,-1.4329,-1.4926,-1.5454,0.0,0.0,0.0,0.0,0.0,0.0,-1.6114,-1.6553,-1.756,-1.7667,0.0,0.0,0.0,-2.0249,-2.028,-2.028,-2.028,-2.0314,-2.0764,-2.1213,-2.1628,-2.2077,-2.2409,-2.2669,-2.2669,-2.2848,-2.3159,-2.3159,-2.3159,-2.3159,-2.3159,-2.3159,-2.3159,-2.3159,-2.3165,-2.323,-2.3544,-2.3671,-2.3628,-0.9201,-1.1548,-1.3601,0.0,-1.3425,-1.3554,0.0,0.0,0.0,0.0,-1.5974,-1.6381,-1.6232,-1.7194,-1.7773,-1.7504,-1.8896,0.0,0.0,0.0,0.0,-1.8184,-1.7959,-1.6764,-1.4576,-1.5859,0.0,-1.4034,0.0,0.0,-1.54,0.0,0.0,0.0,0.0,0.0,-1.3525,-1.3838,-1.3555,-1.2881,-1.2881,-1.3066,0.0,0.0,-1.3145,-1.3447,-1.3027,-1.2881,-1.2881,-1.2881,-1.2881,-1.2881,-1.2881,-1.2881,-1.2881,-1.2881,-1.2881,-1.2881,-1.2881,-1.2881,-1.2881,-1.2881,-1.2881,-1.2881,0.0,0.0,0.0,0.0,0.0,0.0,0.0,0.0,0.0,0.0,0.0,0.0,0.0,0.0,0.0,-1.5878,0.0,0.0,-1.568,-1.6388,-1.6746,-1.6539,-1.7238,0.0,0.0,0.0,0.0,-1.9823,-1.9839,-2.0,-2.0314,-2.0764,-2.1213,-2.1628,-2.2077,-2.2349,-2.2398,-2.2398,-2.2453,-2.2535,-2.2535,-2.2535,-2.2535,-2.2535,-2.2535,-2.2535,-2.2535,-2.2643,-2.2873,-2.3189,-2.3346,-2.3323,-0.9519,0.0,0.0,-1.4527,0.0,0.0,-1.4425,0.0,0.0,-1.4766,-1.5439,0.0,-1.5503,-1.6209,-1.6572,-1.6471,-1.7597,0.0,0.0,0.0,0.0,-1.7229,-1.7092,-1.5975,-1.3635,-1.5,0.0,-1.3477,0.0,0.0,-1.5127,0.0,0.0,0.0,0.0,-1.3287,0.0,-1.285,-1.2831,-1.2676,-1.2181,0.0,0.0,-1.2081,-1.2136,-1.23,-1.2072,-1.2363,-1.2881,-1.2881,-1.2881,-1.2881,-1.2881,-1.2666,-1.2501,-1.2822,-1.2666,-1.2501,-1.2822,-1.2881,-1.2881,-1.2881,-1.2881,-1.2881,-1.2881,-1.2881,-1.2881,0.0,0.0,0.0,0.0,0.0,0.0,0.0,0.0,0.0,0.0,0.0,0.0,0.0,-1.5458,0.0,-1.5556,-1.6099,-1.6334,-1.6202,0.0,0.0,0.0,0.0,0.0,-1.9675,-1.969,-1.9909,-2.0314,-2.0764,-2.1213,-2.1628,-2.2077,-2.231,-2.231,-2.231,-2.231,-2.231,-2.231,-2.231,-2.231,-2.231,-2.231,-2.231,-2.231,-2.2388,-2.2554,-2.2747,-2.2865,-2.2972,0.0,0.0,0.0,0.0,0.0,0.0,0.0,-1.3867,0.0,-1.4128,0.0,-1.5064,-1.5023,-1.5244,-1.5364,-1.5284,0.0,-1.5896,-1.5659,-1.6309,-1.6338,-1.5417,-1.5634,-1.4719,-1.2505,-1.3652,0.0,0.0,0.0,0.0,-1.4608,0.0,0.0,0.0,0.0,0.0,0.0,-1.1444,-1.1659,0.0,-1.1201,-1.0813,-1.0813,-1.0813,-1.0813,-1.0813,-1.0813,-1.1584,-1.2618,-1.2618,-1.2666,-1.2725,-1.2666,-1.2246,-1.1922,-1.2461,-1.2187,-1.1823,-1.2461,-1.2676,-1.2774,-1.2774,-1.2832,-1.2881,-1.2881,-1.2881,-1.2881,-1.2881,-1.2881,-1.2881,0.0,0.0,0.0,0.0,0.0,0.0,0.0,0.0,0.0,0.0,0.0,0.0,0.0,-1.5672,0.0,0.0,0.0,0.0,0.0,0.0,0.0,-1.969,-1.969,0.0,-2.0454,0.0,-2.1166,-2.1669,-2.1995,-2.2123,-2.2123,-2.2123,-2.2152,-2.2209,-2.2209,-2.2237,-2.231,-2.231,-2.231,-2.2282,-2.2237,-2.2254,-2.231,-2.231,-2.2436,-2.2625,0.0,0.0,0.0,0.0,0.0,-1.4212,-1.4817,-1.4529,-1.4416,-1.4763,-1.5317,0.0,-1.5344,-1.5364,-1.5204,-1.4716,-1.5347,0.0,0.0,0.0,0.0,-1.5392,-1.5085,-1.3933,-1.1716,-1.2811,-1.2705,0.0,-1.3037,-1.3871,-1.3798,0.0,0.0,0.0,0.0,0.0,-1.1556,-1.1391,0.0,-1.1065,-1.0889,-1.0813,-1.0813,-1.0813,-1.0813,-1.0813,-1.0813,-1.0965,-1.1174,-1.1174,-1.1525,-1.1873,-1.1325,-1.1466,-1.1715,-1.1266,-1.1074,-1.1015,-1.1124,-1.1575,-1.1972,-1.1972,-1.2452,-1.2881,-1.2881,-1.2881,-1.2881,-1.2881,-1.2881,-1.2881,-1.2881,0.0,0.0,0.0,0.0,0.0,0.0,0.0,0.0,0.0,0.0,0.0,0.0,0.0,0.0,0.0,0.0,0.0,0.0,0.0,0.0,0.0,0.0,0.0,0.0,0.0,-2.0933,-2.1921,-2.144,-2.1229,-2.1229,-2.1229,-2.1415,-2.1718,-2.1718,-2.1928,-2.231,-2.231,-2.231,-2.2254,-2.1869,-2.1974,-2.231,-2.231,-2.2321,-2.236,0.0,0.0,0.0,0.0,0.0,0.0,0.0,-1.4721,0.0,-1.4983,-1.5204,-1.5331,-1.519,-1.517,-1.5057,-1.4776,-1.4691,-1.4519,-1.4214,-1.4201,-1.3998,-1.3322,-1.3553,0.0,-1.0601,-1.1534,-1.1631,-1.0899,-1.1858,-1.2459,-1.2733,0.0,0.0,0.0,0.0,-1.057,0.0,0.0,0.0,-1.0572,-0.9985,-0.9762,-0.9762,-0.9762,-0.9762,-0.9762,-0.9762,-0.9762,-0.9865,-1.0568,-1.1015,-1.1216,-1.0914,-1.0762,-1.0771,-1.0813,-1.0559,-1.0364,-1.072,-1.1065,-1.1366,-1.1715,-1.208,-1.2452,-1.2822,-1.2881,-1.2881,-1.2881,-1.2881,-1.2881,-1.2881,-1.2881,0.0,0.0,0.0,0.0,0.0,0.0,0.0,0.0,0.0,0.0,0.0,0.0,0.0,0.0,0.0,0.0,0.0,0.0,0.0,0.0,0.0,0.0,0.0,0.0,0.0,-2.147,-2.1151,-2.0991,-2.0991,-2.0991,-2.1118,-2.1275,-2.1275,-2.1415,-2.1615,-2.1615,-2.1751,-2.1899,-2.1477,-2.1705,-2.2282,-2.2032,-2.2106,-2.231,0.0,-1.1659,0.0,0.0,-1.291,0.0,0.0,-1.4099,-1.4993,-1.5113,-1.5097,-1.503,-1.497,-1.491,-1.4843,-1.4783,-1.4082,-1.352,-1.3227,-1.2919,-1.2351,-1.1463,-1.2037,-1.1589,-0.9764,-1.0293,-1.0593,0.0,-1.0755,-1.1143,0.0,0.0,0.0,0.0,0.0,0.0,0.0,0.0,-0.9576,-1.008,-0.9157,-0.8804,-0.8804,-0.8804,-0.8804,-0.8804,-0.8804,-0.8804,-0.8956,-1.0012,-1.0466,-1.0568,-1.0415,-1.0115,-0.9865,-1.0261,-1.0012,-0.9718,-1.021,-1.0466,-1.0712,-1.1266,-1.1466,-1.1724,-1.2304,-1.2461,-1.2461,-1.2461,-1.2461,-1.2461,-1.2461,-1.2461,0.0,0.0,0.0,0.0,0.0,0.0,0.0,0.0,0.0,0.0,0.0,0.0,0.0,0.0,0.0,0.0,0.0,0.0,0.0,0.0,0.0,-1.9878,-2.0218,0.0,-2.0441,0.0,-2.0777,-2.0731,-2.0731,-2.0731,-2.0764,-2.0862,-2.0862,-2.0894,-2.0991,-2.0894,-2.1086,-2.143,-2.1023,-2.1323,-2.1974,-2.1598,-2.1705,-2.202,0.0,0.0,0.0,0.0,0.0,0.0,0.0,-1.1985,-1.3091,-1.5461,-1.5518,-1.5257,-1.499,-1.4723,-1.4456,-1.4195,-1.3848,-1.352,-1.3227,-1.2919,-1.2351,-1.1463,-1.1491,-1.094,-0.9706,-0.9795,-0.966,0.0,0.0,-1.0748,-1.0468,-1.0763,0.0,0.0,0.0,0.0,0.0,-0.9125,-0.9085,-0.8944,-0.8818,-0.8804,-0.8804,-0.8804,-0.8804,-0.8804,-0.8804,-0.8804,-0.8804,-0.8962,-0.9413,-0.9762,-0.9159,-0.9361,-0.971,-0.9159,-0.8962,-0.891,-0.8956,-0.9413,-0.9917,-0.9961,-1.0415,-1.0914,-1.0965,-1.1023,-1.1023,-1.1023,-1.1023,-1.1023,-1.1023,-1.1023,-1.1023,0.0,0.0,0.0,0.0,0.0,0.0,0.0,0.0,0.0,0.0,0.0,0.0,0.0,0.0,0.0,0.0,0.0,0.0,-1.8968,0.0,-1.9775,-1.9943,-1.9827,0.0,-2.0715,-2.0119,-1.9818,-1.9818,-1.9818,-2.0035,-2.0382,-2.0382,-2.0616,-2.0959,-2.055,-2.0649,-2.0991,-2.055,-2.0682,-2.1134,-2.1055,-2.1086,-2.1134,0.0,0.0,0.0,0.0,0.0,0.0,0.0,-1.1793,-1.2576,-1.4352,-1.4559,-1.439,-1.4025,-1.4495,-1.4669,-1.4376,-1.3754,-1.3333,-1.322,-1.2752,-1.2164,-1.1456,-1.1423,-1.0875,-0.9706,-0.9686,-0.9539,0.0,0.0,-1.0122,-0.9953,-1.0129,0.0,0.0,0.0,-0.9025,-0.8818,-0.8931,-0.8911,-0.8804,-0.8804,-0.8804,-0.8804,-0.8804,-0.8804,-0.8804,-0.8804,-0.8804,-0.8804,-0.8804,-0.8956,-0.9159,-0.891,-0.8956,-0.9159,-0.8857,-0.8804,-0.8804,-0.8804,-0.9008,-0.9309,-0.971,-1.0012,-1.032,-1.072,-1.0813,-1.0813,-1.0813,-1.0813,-1.0813,-1.0813,-1.0813,-1.0813,0.0,0.0,0.0,0.0,0.0,0.0,0.0,0.0,0.0,0.0,0.0,0.0,0.0,0.0,0.0,0.0,0.0,0.0,-1.8405,0.0,-1.9098,-1.8838,-1.8792,-1.8855,-1.9127,-1.8855,-1.8893,-1.9207,-1.8893,-1.8977,-1.9492,-1.9808,-2.0035,-2.0208,-2.0,-2.0193,-2.055,-2.0104,-2.0364,-2.0959,-2.0682,-2.0764,-2.0991,-0.8655,0.0,-0.9569,0.0,-0.9923,-1.0373,-1.121,-1.0969,-1.0957,-1.1811,-1.2352,-1.2786,-1.3193,-1.4142,-1.4623,-1.4409,-1.3748,-1.33,-1.322,-1.2639,-1.2037,-1.145,-1.1343,0.0,-0.9833,-0.9813,-0.9619,-0.9183,-0.9539,0.0,-0.9426,0.0,0.0,0.0,-0.8898,-0.8884,-0.8804,-0.8804,-0.8804,-0.8804,-0.8804,-0.8804,-0.8804,-0.8804,-0.8804,-0.8804,-0.8804,-0.8804,-0.8804,-0.8804,-0.8804,-0.8804,-0.8804,-0.8804,-0.8804,-0.8804,-0.8804,-0.8804,-0.8804,-0.8804,-0.891,-0.9361,-0.9517,-0.9614,-1.0115,-1.021,-1.021,-1.021,-1.021,-1.021,-1.021,-1.021,-1.021,-1.021,0.0,0.0,0.0,0.0,0.0,0.0,-1.1416,-1.2003,-1.2483,0.0,0.0,0.0,0.0,0.0,0.0,0.0,0.0,0.0,0.0,0.0,0.0,-1.8027,-1.8106,-1.8106,-1.8106,-1.8302,-1.865,-1.8263,-1.8302,-1.8688,-1.9244,-1.9442,-1.9479,-1.9639,-1.9874,-2.0089,-1.9803,-2.0085,-2.0565,-2.0261,-2.033,-2.0599,-0.7536,-0.7594,-0.8157,-0.9739,-0.8781,-0.834,-0.9772,-0.8649,-0.7749,-0.7887,-0.8895,-1.0365,-1.2574,-1.3557,-1.4095,-1.4095,-1.3814,-1.3514,-1.3227,-1.2639,-1.2037,0.0,0.0,-1.0722,-1.0127,-1.0114,-0.9826,-0.9183,0.0,0.0,-0.8824,0.0,-0.9037,-0.8818,-0.905,-0.9072,-0.8804,-0.8804,-0.8804,-0.8804,-0.8804,-0.8804,-0.8804,-0.8804,-0.8804,-0.8804,-0.8804,-0.8804,-0.8804,-0.8804,-0.8804,-0.8804,-0.8804,-0.8804,-0.8804,-0.8804,-0.8804,-0.8804,-0.8804,-0.8804,-0.8804,-0.8804,-0.8804,-0.8804,-0.8804,-0.8804,-0.8804,-0.8804,-0.8804,-0.8804,-0.8804,-0.8804,-0.8804,-0.8804,0.0,0.0,0.0,0.0,0.0,0.0,-1.1416,-1.1814,-1.1814,0.0,0.0,0.0,0.0,0.0,0.0,0.0,0.0,-1.7312,-1.7827,0.0,-1.7312,-1.7827,-1.8106,-1.8106,-1.8106,-1.8106,-1.8106,-1.8106,-1.8106,-1.8145,-1.8688,-1.8893,-1.8968,-1.9479,-1.969,-1.9726,-1.969,-1.9726,-1.9726,-1.9726,-1.9711,-1.9726,-0.7404,-0.7444,-0.7691,-0.827,-0.7981,-0.8149,-0.9411,-0.8494,-0.7854,-0.871,-0.8997,-0.9393,-1.0027,-1.2018,-1.341,0.0,-1.3634,-1.3307,0.0,-1.2458,-1.183,-1.1443,-1.1149,-1.0722,-1.0127,-0.992,-0.9633,-0.9183,0.0,0.0,0.0,-0.8466,-0.808,-0.7295,-0.7372,-0.7361,-0.7289,-0.7289,-0.7289,-0.7289,-0.7289,-0.7289,-0.7289,-0.7289,-0.7289,-0.7343,-0.7883,-0.8049,-0.8103,-0.8646,-0.8804,-0.8804,-0.8804,-0.8804,-0.8804,-0.8804,-0.8804,-0.8804,-0.8804,-0.8804,-0.8804,-0.8804,-0.8804,-0.8804,-0.8804,-0.8804,-0.8804,-0.8804,-0.8804,-0.8804,-0.8804,-0.8804,-0.8804,-0.8804,-0.8956,0.0,0.0,0.0,0.0,0.0,-1.0012,-1.0618,0.0,-1.1706,0.0,0.0,0.0,0.0,0.0,0.0,0.0,0.0,-1.7271,0.0,-1.6752,-1.6909,-1.6993,-1.6993,-1.6993,-1.6993,-1.7034,-1.7787,-1.7907,-1.7585,-1.8145,-1.8341,-1.838,-1.8535,-1.8817,-1.9132,-1.8727,-1.8817,-1.9169,-1.9169,-1.9169,-1.9207,-0.7343,-0.737,-0.7601,-0.8214,-0.7919,-0.7987,-0.9326,-0.8317,-0.7685,-0.8454,-0.8387,-0.8341,-0.8793,-1.0265,0.0,-1.3155,-1.3126,-1.3033,-1.3033,-1.2198,-1.1623,-1.143,-1.0711,-1.0155,-0.9688,0.0,0.0,-0.8391,-0.8288,-0.8019,-0.7572,-0.7572,-0.7214,-0.6588,-0.6588,-0.6588,-0.6588,-0.6588,-0.6588,-0.6588,-0.6588,-0.6588,-0.6588,-0.6588,-0.6588,-0.6642,-0.7128,-0.7289,-0.7343,-0.783,-0.7996,-0.7996,-0.7996,-0.7996,-0.8103,-0.8646,-0.8804,-0.8804,-0.8804,-0.8804,-0.8804,-0.8804,-0.8804,-0.8804,-0.8804,-0.8804,-0.8804,-0.8804,-0.8804,-0.8804,-0.8804,-0.8804,-0.8804,-0.8804,-0.8804,-0.8804,-0.8804,0.0,0.0,0.0,0.0,0.0,0.0,-1.1316,0.0,0.0,0.0,0.0,0.0,0.0,0.0,-1.5832,-1.6373,0.0,-1.6194,-1.6151,-1.6281,-1.6522,-1.6522,-1.6522,-1.6522,-1.7188,-1.7312,-1.7034,-1.7585,-1.7787,-1.7827,-1.8027,-1.8302,-1.8574,-1.8224,-1.8302,-1.8612,-1.8612,-1.8612,-1.865,-0.7326,-0.7356,0.0,0.0,-0.8257,0.0,-0.9087,-0.8027,-0.719,-0.7336,-0.7221,-0.7508,-0.8475,-0.859,-0.9489,-1.1498,0.0,0.0,0.0,-1.1696,-1.1217,-1.1217,-0.9939,-0.9144,-0.8936,-0.826,-0.766,-0.7069,-0.6743,-0.6588,-0.6529,-0.6529,-0.648,-0.648,-0.648,-0.648,-0.648,-0.648,-0.648,-0.648,-0.648,-0.648,-0.648,-0.648,-0.648,-0.648,-0.6534,-0.6529,-0.6534,-0.6588,-0.6588,-0.6588,-0.6588,-0.6588,-0.6858,-0.8262,-0.8646,-0.8646,-0.8646,-0.8646,-0.8646,-0.8699,-0.8752,-0.8804,-0.8804,-0.8804,-0.8804,-0.8804,-0.8804,-0.8804,-0.8804,-0.8804,-0.8804,-0.8804,-0.8804,-0.8804,-0.8804,0.0,0.0,0.0,0.0,0.0,0.0,-1.1174,-1.1384,0.0,0.0,0.0,0.0,0.0,-1.5266,-1.4709,-1.5231,-1.5543,-1.5543,-1.5543,-1.582,-1.638,-1.638,-1.638,-1.6423,-1.6423,-1.6479,-1.6522,-1.7034,-1.7229,-1.7271,-1.7787,-1.8027,-1.8027,-1.7987,-1.8027,-1.8027,-1.8027,-1.8027,-1.8066,0.0,0.0,-0.7293,-0.7592,-0.7392,-0.7296,-0.7592,-0.7361,-0.7153,-0.719,-0.7068,-0.7094,-0.7425,-0.7856,-0.8397,-0.9032,-0.9936,-1.0406,-1.0406,-0.9728,-0.9254,-0.9254,-0.8666,-0.8239,-0.7995,-0.7629,-0.7208,-0.6718,-0.6613,-0.6312,-0.576,-0.576,-0.5492,-0.5007,-0.5007,-0.5007,-0.5007,-0.5007,-0.5007,-0.5007,-0.5007,-0.5007,-0.5007,-0.5007,-0.5007,-0.5062,-0.5601,-0.576,-0.5873,-0.6421,-0.6588,-0.6588,-0.6588,-0.6588,-0.6696,-0.702,-0.7128,-0.7128,-0.7128,-0.7128,-0.7235,-0.783,-0.8374,-0.8804,-0.8804,-0.8804,-0.8804,-0.8804,-0.8804,-0.8804,-0.8804,-0.8804,-0.8804,-0.8804,-0.8804,-0.8804,-0.8804,-0.8956,0.0,0.0,-0.9061,-0.9562,-1.0922,-1.0864,-1.1166,0.0,0.0,0.0,0.0,-1.382,-1.469,-1.4709,-1.4835,-1.4926,-1.4926,-1.4926,-1.4971,-1.5107,-1.5107,-1.5377,-1.582,-1.582,-1.6051,-1.6522,-1.6637,-1.668,-1.671,-1.6837,-1.7105,-1.7463,-1.7034,-1.7105,-1.7504,-1.7504,-1.7504,-1.7544,-0.7054,-0.7095,-0.7119,-0.7054,-0.7099,-0.7139,-0.7139,-0.7139,-0.7139,-0.7139,-0.7017,-0.6929,-0.6939,-0.7148,-0.735,-0.7369,-0.8686,-0.9509,-0.9402,-0.8882,-0.8578,-0.8546,-0.772,-0.7201,-0.7045,-0.6457,-0.6028,-0.5737,-0.5648,-0.5441,-0.5058,-0.5058,-0.4842,-0.4519,-0.4519,-0.4519,-0.4519,-0.4519,-0.4519,-0.4519,-0.4519,-0.4519,-0.4519,-0.4519,-0.4519,-0.4574,-0.4897,-0.5058,-0.5113,-0.5496,-0.5664,-0.5664,-0.5664,-0.5664,-0.5664,-0.5664,-0.61,-0.6588,-0.6588,-0.6588,-0.6804,-0.7509,-0.8262,-0.8804,-0.8804,-0.8804,-0.8699,-0.8374,-0.8321,-0.8209,-0.783,-0.7777,-0.7777,-0.7777,-0.8103,-0.8321,-0.8321,-0.8593,0.0,-0.8804,-0.8804,-0.9211,-1.0269,-1.0364,-1.0618,-1.1316,0.0,0.0,-1.1567,-1.2804,-1.3661,-1.3858,-1.4312,-1.4551,-1.4551,-1.4835,-1.4875,-1.4698,-1.4698,-1.488,-1.5186,-1.5454,-1.5776,-1.6095,-1.638,-1.6522,-1.6522,-1.6522,-1.668,-1.6909,-1.6595,-1.668,-1.6909,-1.6909,-1.6909,-1.6993,-0.6873,-0.7027,-0.7061,-0.6919,-0.6993,-0.7075,-0.7075,-0.7075,-0.7075,-0.7075,-0.697,-0.6844,-0.6715,-0.6563,-0.6424,-0.6302,-0.7872,-0.875,-0.8607,-0.8322,-0.8106,-0.7962,-0.6867,-0.6141,-0.5988,-0.5228,-0.4785,-0.4657,-0.458,-0.4519,-0.4519,-0.4519,-0.4519,-0.4519,-0.4519,-0.4519,-0.4519,-0.4519,-0.4519,-0.4519,-0.4519,-0.4519,-0.4519,-0.4519,-0.4519,-0.4519,-0.4519,-0.4519,-0.4519,-0.4519,-0.4519,-0.4519,-0.4519,-0.4519,-0.4519,-0.4519,-0.5336,-0.6263,-0.6263,-0.6367,-0.6583,-0.723,-0.7937,-0.848,-0.848,-0.848,-0.8268,-0.767,-0.7509,-0.7343,-0.6696,-0.6696,-0.675,-0.675,-0.7402,-0.7883,-0.7883,0.0,-0.8804,-0.8804,-0.8804,-0.9061,-0.971,-0.9814,-1.0035,-1.0691,-1.0794,-1.0949,0.0,-1.1997,-1.2559,-1.2719,-1.3771,-1.4355,-1.4355,-1.4842,-1.4941,-1.4595,-1.4595,-1.4655,-1.4671,-1.5199,-1.548,-1.5632,-1.6051,-1.6293,-1.638,-1.625,-1.6281,-1.638,-1.638,-1.6423,-1.6522,-1.6522,-1.6522,-1.6522,-0.6883,-0.6867,-0.6912,-0.6763,-0.6756,-0.677,-0.677,-0.677,-0.677,-0.677,-0.6749,-0.6725,-0.6702,-0.6563,-0.6464,-0.6441,-0.6638,-0.6649,-0.6481,-0.6317,-0.6157,-0.6073,-0.5751,-0.5389,-0.5104,-0.4721,-0.4577,-0.4553,-0.4529,-0.4519,-0.4519,-0.4519,-0.4519,-0.4519,-0.4519,-0.4519,-0.4519,-0.4519,-0.4519,-0.4519,-0.4519,-0.4519,-0.4519,-0.4519,-0.4519,-0.4519,-0.4519,-0.4519,-0.4519,-0.4519,-0.4519,-0.4519,-0.4519,-0.4519,-0.4519,-0.4519,-0.468,-0.4846,-0.4846,-0.5222,-0.5706,-0.5814,-0.6416,-0.6966,-0.6966,-0.6966,-0.6912,-0.6804,-0.675,-0.675,-0.6642,-0.7128,-0.7509,-0.7509,-0.8156,-0.8646,-0.8646,0.0,-0.8804,-0.8804,-0.8804,-0.9061,-0.971,-0.9814,-0.9986,-1.0371,-1.0913,-1.1118,-1.0808,-1.1849,-1.2247,-1.191,-1.338,-1.4129,-1.4129,-1.4235,-1.4248,-1.4188,-1.4188,-1.4277,-1.4433,-1.4531,-1.4974,-1.5588,-1.5152,-1.5287,-1.5688,-1.5197,-1.5287,-1.5732,-1.5732,-1.6051,-1.6522,-1.6522,-1.6522,-1.6522,-0.6739,-0.6726,-0.6749,-0.6555,-0.6614,-0.6644,-0.6615,-0.6702,-0.6702,-0.6702,-0.6627,-0.6576,-0.6576,-0.6444,-0.6359,-0.6359,-0.622,-0.6071,-0.5918,-0.584,-0.5701,-0.5477,-0.5318,-0.5101,-0.4802,-0.4575,-0.4519,-0.4519,-0.4519,-0.4519,-0.4519,-0.4519,-0.4519,-0.4519,-0.4519,-0.4519,-0.4519,-0.4519,-0.4519,-0.4519,-0.4519,-0.4519,-0.4519,-0.4519,-0.4519,-0.4519,-0.4519,-0.4519,-0.4519,-0.4519,-0.4519,-0.4519,-0.4519,-0.4519,-0.4519,-0.4519,-0.4519,-0.4519,-0.4519,-0.5003,-0.5487,-0.5487,-0.6036,-0.6588,-0.6588,-0.6588,-0.6475,-0.6091,-0.5982,-0.5873,-0.555,-0.5769,-0.5987,-0.5987,-0.6578,0.0,0.0,-0.7937,-0.8374,-0.8752,-0.8804,-0.891,-0.9211,-0.9263,-0.939,-0.97,-0.9988,-1.0253,-1.0345,-1.1263,-1.159,-1.1144,-1.288,-1.3919,-1.4087,-1.4365,-1.4365,-1.4077,-1.3906,-1.3836,-1.3922,-1.4003,-1.429,-1.463,-1.4698,-1.488,-1.5096,-1.4789,-1.488,-1.5107,-1.5107,-1.5466,-1.6008,-1.6008,-1.6238,-1.6429,-0.53,-0.565,-0.6124,-0.5842,-0.6231,-0.6519,-0.6515,-0.6603,-0.66,-0.66,-0.6495,-0.641,-0.6373,-0.6305,-0.6247,-0.621,-0.6098,-0.5966,-0.5813,-0.5769,-0.5637,-0.5439,-0.5182,-0.4975,-0.4748,-0.4558,-0.4519,-0.4519,-0.4519,-0.4519,-0.4519,-0.4519,-0.4519,-0.4519,-0.4519,-0.4519,-0.4519,-0.4519,-0.4519,-0.4519,-0.4519,-0.4519,-0.4519,-0.4519,-0.4519,-0.4519,-0.4519,-0.4519,-0.4519,-0.4519,-0.4519,-0.4519,-0.4519,-0.4519,-0.4519,-0.4519,-0.4519,-0.4519,-0.4519,-0.4897,-0.5273,-0.5273,-0.571,-0.61,-0.61,-0.61,-0.5932,-0.5382,-0.5273,-0.5109,-0.457,-0.4625,-0.4732,-0.4732,0.0,0.0,0.0,-0.7155,-0.7805,-0.8517,-0.8577,-0.8684,-0.8851,-0.8911,-0.9058,-0.9356,-0.9389,-0.9673,-1.0194,-1.0809,-1.1031,-1.0856,-1.237,-1.338,-1.382,-1.4185,-1.4298,-1.4141,-1.3729,-1.3532,-1.3643,-1.3728,-1.3741,-1.3815,-1.4154,-1.434,-1.4468,-1.434,-1.434,-1.4468,-1.4468,-1.4869,-1.541,-1.541,-1.5688,-1.5959,-0.1222,-0.2757,-0.4596,-0.4403,-0.541,-0.6285,-0.6291,-0.6295,-0.6291,-0.6291,-0.6285,-0.622,-0.6078,-0.6179,-0.6203,-0.6061,-0.6037,-0.5966,-0.5813,-0.5677,-0.5532,-0.5435,-0.5087,-0.4925,-0.4904,-0.4613,-0.4519,-0.4519,-0.4519,-0.4519,-0.4519,-0.4519,-0.4519,-0.4519,-0.4519,-0.4519,-0.4519,-0.4519,-0.4519,-0.4519,-0.4519,-0.4519,-0.4519,-0.4519,-0.4519,-0.4519,-0.4519,-0.4519,-0.4519,-0.4519,-0.4519,-0.4519,-0.4519,-0.4519,-0.4519,-0.4519,-0.4519,-0.4519,-0.4519,-0.4519,-0.457,-0.457,-0.4625,-0.468,-0.468,-0.468,-0.4625,-0.457,-0.457,-0.457,-0.4519,-0.5003,-0.5433,-0.5433,0.0,0.0,-0.6854,-0.6941,-0.7217,-0.7891,-0.7946,-0.8293,-0.9095,-0.915,-0.9382,-1.0013,-1.0053,-1.0194,-1.0514,-1.0647,-1.0961,-1.171,-1.1873,-1.2273,-1.3047,-1.3132,-1.3494,-1.4173,-1.3784,-1.3747,-1.4019,-1.3704,-1.362,-1.3768,-1.3238,-1.3334,-1.3815,-1.3238,-1.3382,-1.3873,-1.3873,-1.4236,-1.4744,-1.4744,-1.4789,-1.4835,-0.4234,-0.4859,-0.5562,-0.5517,-0.596,-0.6264,-0.6271,-0.6183,-0.6152,-0.6247,-0.6095,-0.5989,-0.6027,-0.6084,-0.6054,-0.5901,-0.5888,-0.5827,-0.5681,-0.5532,-0.5379,-0.5223,-0.4935,-0.4775,-0.4775,-0.4572,-0.4519,-0.4519,-0.4519,-0.4519,-0.4519,-0.4519,-0.4519,-0.4519,-0.4519,-0.4519,-0.4519,-0.4519,-0.4519,-0.4519,-0.4519,-0.4519,-0.4519,-0.4519,-0.4519,-0.4519,-0.4519,-0.4519,-0.4519,-0.4519,-0.4519,-0.4519,-0.4519,-0.4519,-0.4519,-0.4519,-0.4519,-0.4519,-0.4519,-0.4519,-0.4519,-0.4519,-0.4519,-0.4519,-0.4519,-0.4519,-0.4519,-0.4519,-0.4519,-0.4519,-0.4519,-0.4736,-0.493,-0.4975,0.0,-0.5549,-0.6249,-0.6249,-0.6506,-0.7187,-0.73,-0.7359,-0.7548,-0.8183,-0.872,-0.9151,-0.9766,-1.0247,-1.0611,-1.0624,-1.0744,-1.1045,-1.1045,-1.1663,-1.3009,-1.3009,-1.3425,-1.4204,-1.3816,-1.3765,-1.4068,-1.3266,-1.3001,-1.319,-1.254,-1.2589,-1.3238,-1.2968,-1.3065,-1.3238,-1.3238,-1.36,-1.4143,-1.4143,-1.4376,-1.4607,-0.58,-0.5582,-0.5369,-0.6083,-0.6213,-0.619,-0.62,-0.6101,-0.6051,-0.6108,-0.5932,-0.5823,-0.5884,-0.5932,-0.5898,-0.5749,-0.5735,-0.5694,-0.5596,-0.5359,-0.5196,-0.5135,-0.4894,-0.4741,-0.4694,-0.4541,-0.4519,-0.4519,-0.4519,-0.4519,-0.4519,-0.4519,-0.4519,-0.4519,-0.4519,-0.4519,-0.4519,-0.4519,-0.4519,-0.4519,-0.4519,-0.4519,-0.4519,-0.4519,-0.4519,-0.4519,-0.4519,-0.4519,-0.4519,-0.4519,-0.4519,-0.4519,-0.4519,-0.4519,-0.4519,-0.4519,-0.4519,-0.4519,-0.4519,-0.4519,-0.4519,-0.4519,-0.4519,-0.4519,-0.4519,-0.4519,-0.4532,-0.458,-0.4591,-0.4548,-0.4599,-0.4565,-0.4582,-0.4738,-0.4633,-0.4808,-0.5605,-0.5607,-0.5864,-0.6557,-0.6841,-0.6954,-0.6804,-0.7723,-0.8305,-0.8402,-0.9334,-1.0092,-1.0548,-1.0624,-1.0624,-1.0624,-1.0624,-1.1115,-1.2212,-1.2282,-1.2634,-1.3416,-1.3041,-1.3077,-1.3534,-1.2795,-1.2516,-1.266,-1.2085,-1.208,-1.2559,-1.2559,-1.2559,-1.2559,-1.2822,-1.3152,-1.3505,-1.3505,-1.3789,-1.4018,-0.4705,-0.3941,-0.3392,-0.5588,-0.6034,-0.6027,-0.6027,-0.6027,-0.5973,-0.582,-0.58,-0.5745,-0.5606,-0.5715,-0.5742,-0.5599,-0.5589,-0.5589,-0.5589,-0.5169,-0.4986,-0.5125,-0.4992,-0.4843,-0.4694,-0.4594,-0.4519,-0.4519,-0.4519,-0.4519,-0.4519,-0.4519,-0.4519,-0.4519,-0.4519,-0.4519,-0.4519,-0.4519,-0.4519,-0.4519,-0.4519,-0.4519,-0.4519,-0.4519,-0.4519,-0.4519,-0.4519,-0.4519,-0.4519,-0.4519,-0.4519,-0.4519,-0.4519,-0.4519,-0.4519,-0.4519,-0.4519,-0.4519,-0.4519,-0.4519,-0.4519,-0.4519,-0.4519,-0.4519,-0.4522,-0.4522,-0.4563,-0.466,-0.4694,-0.4738,-0.4891,-0.4796,-0.4745,-0.4897,-0.4792,-0.4796,-0.5091,-0.5131,-0.5325,-0.5896,-0.6648,-0.7121,-0.7289,-0.7946,-0.827,-0.7991,-0.8812,-0.9658,-1.0555,-1.0624,-1.0624,-1.0624,-1.0624,-1.0624,-1.0624,-1.0624,-1.0982,-1.1764,-1.1315,-1.1583,-1.2397,-1.2329,-1.2298,-1.2271,-1.1944,-1.1814,-1.1814,-1.1814,-1.1814,-1.1864,-1.2618,-1.2881,-1.2881,-1.2881,-1.2881,-1.2881,-0.4689,-0.5,-0.4865,-0.5676,-0.5808,-0.5871,-0.5871,-0.5786,-0.5742,-0.5793,-0.5623,-0.5518,-0.5583,-0.5627,-0.5593,-0.5443,-0.5528,-0.5545,-0.5437,-0.5304,-0.5199,-0.5135,-0.4789,-0.4575,-0.4587,-0.4539,-0.4519,-0.4519,-0.4519,-0.4519,-0.4519,-0.4519,-0.4519,-0.4519,-0.4519,-0.4519,-0.4519,-0.4519,-0.4519,-0.4519,-0.4519,-0.4519,-0.4519,-0.4519,-0.4519,-0.4519,-0.4519,-0.4519,-0.4519,-0.4519,-0.4519,-0.4519,-0.4519,-0.4519,-0.4519,-0.4519,-0.4519,-0.4519,-0.4519,-0.4541,-0.4623,-0.4623,-0.4597,-0.4573,-0.4735,-0.4701,-0.4667,-0.4819,-0.485,-0.4863,-0.4911,-0.488,-0.4897,-0.5043,-0.4945,-0.4955,-0.525,-0.5199,-0.5178,-0.5318,-0.556,-0.5697,-0.5646,-0.6467,-0.6968,-0.6904,-0.8393,-0.9658,-1.0555,-1.0624,-1.0624,-1.0624,-1.0624,-1.0624,-1.0624,-1.0624,-1.0982,-1.1834,-1.1667,-1.1873,-1.2406,-1.164,-1.1396,-1.1562,-1.0729,-1.0914,-1.1814,-1.1814,-1.208,-1.2559,-1.2236,-1.2129,-1.208,-1.1584,-1.1434,-1.1484,-0.4038,-0.4924,-0.5461,-0.5596,-0.5725,-0.5718,-0.5718,-0.5644,-0.5599,-0.5623,-0.5474,-0.5463,-0.5491,-0.5501,-0.546,-0.5435,-0.5447,-0.546,-0.5432,-0.5304,-0.5203,-0.5053,-0.4728,-0.4551,-0.4551,-0.4549,-0.4519,-0.4519,-0.4519,-0.4519,-0.4519,-0.4519,-0.4519,-0.4519,-0.4519,-0.4519,-0.4519,-0.4519,-0.4519,-0.4519,-0.4519,-0.4519,-0.4519,-0.4519,-0.4519,-0.4519,-0.4519,-0.4519,-0.4519,-0.4519,-0.456,-0.4551,-0.4551,-0.4596,-0.4643,-0.4643,-0.4643,-0.4643,-0.4643,-0.4711,-0.4796,-0.485,-0.4752,-0.4691,-0.4877,-0.4847,-0.4823,-0.4972,-0.5003,-0.5023,-0.5084,-0.5043,-0.505,-0.5199,-0.5098,-0.5087,-0.5328,-0.5281,-0.5199,-0.5138,-0.5378,-0.5405,-0.5009,-0.5825,-0.635,-0.6485,-0.7629,-0.8672,-0.9518,-0.9582,-0.9716,-1.0047,-0.9779,-0.9907,-1.0561,-1.0238,-1.0478,-1.1351,-1.1351,-1.1436,-1.1662,-1.1068,-1.0905,-1.1013,-1.0166,-1.0261,-1.1015,-1.1015,-1.1275,-1.1651,-1.1475,-1.1416,-1.1366,-1.0965,-1.0813,-1.0864,-0.3234,-0.4246,-0.5441,-0.5572,-0.5569,-0.5569,-0.5569,-0.5569,-0.5518,-0.5446,-0.5428,-0.5428,-0.5428,-0.5428,-0.5428,-0.5428,-0.5428,-0.5428,-0.5428,-0.5216,-0.5074,-0.4945,-0.4779,-0.4691,-0.4691,-0.4541,-0.4519,-0.4519,-0.4519,-0.4519,-0.4519,-0.4519,-0.4519,-0.4519,-0.4519,-0.4519,-0.4519,-0.4519,-0.4519,-0.4519,-0.4519,-0.4519,-0.4519,-0.4519,-0.4519,-0.4519,-0.4522,-0.4522,-0.4522,-0.448,-0.4579,-0.4694,-0.4711,-0.4809,-0.4921,-0.4921,-0.4921,-0.4921,-0.4921,-0.4931,-0.4969,-0.5101,-0.5043,-0.4958,-0.4958,-0.4948,-0.4979,-0.5121,-0.5152,-0.5196,-0.5335,-0.5247,-0.5199,-0.5338,-0.5243,-0.5199,-0.5342,-0.5428,-0.5311,-0.5169,-0.5713,-0.5836,-0.5212,-0.5728,-0.6305,-0.6666,-0.6762,-0.7091,-0.7992,-0.7992,-0.8376,-0.9145,-0.842,-0.8807,-1.0498,-0.9722,-0.9722,-1.0624,-1.0624,-1.0624,-1.0604,-1.0607,-1.0652,-1.0593,-0.9975,-0.9792,-0.9814,-0.9814,-0.9814,-0.9969,-1.0517,-1.0712,-1.0712,-1.0669,-1.0618,-1.0618,-0.4311,-0.5145,-0.5433,-0.5413,-0.541,-0.541,-0.541,-0.541,-0.5466,-0.5432,-0.5428,-0.5428,-0.5428,-0.5428,-0.5428,-0.5428,-0.5428,-0.5432,-0.5372,-0.522,-0.5058,-0.5034,-0.4836,-0.4691,-0.4691,-0.4541,-0.4519,-0.4519,-0.4519,-0.4519,-0.4519,-0.4519,-0.4519,-0.4519,-0.4519,-0.4519,-0.4519,-0.4519,-0.4519,-0.4519,-0.4519,-0.4519,-0.4519,-0.4473,-0.4477,-0.4477,-0.4487,-0.449,-0.4507,-0.4508,-0.451,-0.4559,-0.4797,-0.4857,-0.4884,-0.4884,-0.4884,-0.4884,-0.4884,-0.4957,-0.5041,-0.5071,-0.5206,-0.5267,-0.5267,-0.5172,-0.5128,-0.5281,-0.5311,-0.5321,-0.5422,-0.5335,-0.5321,-0.5422,-0.5332,-0.5321,-0.5422,-0.5428,-0.5415,-0.5315,-0.5505,-0.5505,-0.5377,-0.5554,-0.6037,-0.6806,-0.6944,-0.738,-0.8101,-0.8158,-0.8215,-0.8296,-0.8091,-0.8484,-0.9594,-0.9402,-0.9722,-1.0624,-1.0624,-1.0624,-1.0611,-1.0363,-1.013,-0.9884,-0.9514,-0.9535,-0.9814,-0.9814,-1.0115,-1.0568,-1.0167,-1.0012,-0.9961,-0.9413,-0.9211,-0.9316,-0.248,-0.4236,-0.5389,-0.5372,-0.5369,-0.5369,-0.5428,-0.5428,-0.5428,-0.5428,-0.5428,-0.5428,-0.5428,-0.5294,-0.5226,-0.5155,-0.5281,-0.5304,-0.5169,-0.5142,-0.507,-0.4935,-0.4775,-0.4657,-0.4582,-0.456,-0.4519,-0.4519,-0.4519,-0.4519,-0.4519,-0.4519,-0.4519,-0.4519,-0.4519,-0.4519,-0.4519,-0.4519,-0.4519,-0.4519,-0.4522,-0.4525,-0.4473,-0.4484,-0.403,-0.3408,-0.3413,-0.3393,-0.339,-0.3392,-0.3418,-0.3451,-0.3573,-0.3751,-0.3857,-0.3857,-0.3857,-0.3857,-0.3857,-0.3893,-0.4132,-0.5,-0.5321,-0.5376,-0.5369,-0.5301,-0.5267,-0.5359,-0.5372,-0.5369,-0.5369,-0.5372,-0.5372,-0.5428,-0.5432,-0.5369,-0.5428,-0.5428,-0.5428,-0.5428,-0.5428,-0.5428,-0.5428,-0.5501,-0.5761,-0.615,-0.6302,-0.6529,-0.6823,-0.6877,-0.703,-0.7377,-0.6985,-0.7577,-0.9274,-0.8877,-0.9326,-1.0624,-1.0624,-1.0624,-1.0611,-1.0254,-0.996,-0.9666,-0.9372,-0.9228,-0.9309,-0.9309,-0.9517,-0.9814,-0.9465,-0.9309,-0.9263,-0.891,-0.8804,-0.8857,-0.0,-0.2414,-0.4573,-0.4903,-0.5176,-0.5379,-0.5369,-0.5432,-0.5432,-0.5432,-0.5432,-0.5425,-0.5397,-0.5192,-0.505,-0.4928,-0.5145,-0.5186,-0.4938,-0.5006,-0.4948,-0.4704,-0.467,-0.4596,-0.4525,-0.4522,-0.4522,-0.4522,-0.4522,-0.4522,-0.4522,-0.4522,-0.4522,-0.4522,-0.4522,-0.4522,-0.4522,-0.4522,-0.4522,-0.4525,-0.4477,-0.4366,-0.4141,-0.4379,-0.3699,-0.2514,-0.2009,-0.1824,-0.1819,-0.1829,-0.1843,-0.1802,-0.1811,-0.2039,-0.221,-0.221,-0.221,-0.221,-0.221,-0.2209,-0.2746,-0.4849,-0.5189,-0.5049,-0.5316,-0.5169,-0.503,-0.5322,-0.5183,-0.4909,-0.4934,-0.5199,-0.5329,-0.4992,-0.5186,-0.5376,-0.5432,-0.5428,-0.5428,-0.5428,-0.5428,-0.5428,-0.5428,-0.5501,-0.5538,-0.541,-0.5542,-0.5559,-0.541,-0.5466,-0.5782,-0.6461,-0.5749,-0.6535,-0.8812,-0.8156,-0.8608,-1.0168,-1.0168,-1.0231,-1.0358,-1.0115,-0.9726,-0.9323,-0.9149,-0.8919,-0.8652,-0.8771,-0.8804,-0.8804,-0.8804,-0.8804,-0.8804,-0.8646,-0.8699,-0.8804,-0.0,-0.0402,-0.1205,-0.2811,-0.4367,-0.5393,-0.5389,-0.5389,-0.5389,-0.5389,-0.5389,-0.5408,-0.5406,-0.513,-0.49,-0.4921,-0.49,-0.4914,-0.5064,-0.4879,-0.4683,-0.4542,-0.4525,-0.4501,-0.449,-0.449,-0.4487,-0.4477,-0.4477,-0.4484,-0.449,-0.449,-0.449,-0.449,-0.449,-0.449,-0.449,-0.449,-0.449,-0.449,-0.4494,-0.3697,-0.2679,-0.3993,-0.4396,-0.3825,-0.1232,-0.0286,-0.0295,-0.0304,-0.0314,-0.0324,-0.0266,-0.0336,-0.0337,-0.0337,-0.0337,-0.0337,-0.0337,-0.0336,-0.1205,-0.4587,-0.4239,-0.3487,-0.5062,-0.4167,-0.3485,-0.5052,-0.4164,-0.3036,-0.304,-0.4371,-0.4886,-0.332,-0.436,-0.5379,-0.5376,-0.5369,-0.5428,-0.5428,-0.5428,-0.5428,-0.5428,-0.5501,-0.5583,-0.5559,-0.5691,-0.5708,-0.5566,-0.5559,-0.5566,-0.5561,-0.5491,-0.5947,-0.7046,-0.6915,-0.7372,-0.835,-0.835,-0.8742,-0.9466,-0.943,-0.8817,-0.7819,-0.8303,-0.8333,-0.8078,-0.8577,-0.8804,-0.8804,-0.8804,-0.8804,-0.8699,-0.8103,-0.8262,-0.8699,-0.0,-0.0,-0.0267,-0.105,-0.1856,-0.2748,-0.3758,-0.3892,-0.3892,-0.3892,-0.3892,-0.3982,-0.419,-0.4709,-0.4562,-0.3508,-0.4291,-0.4813,-0.4762,-0.482,-0.4735,-0.4485,-0.3666,-0.3239,-0.3188,-0.3188,-0.3641,-0.4497,-0.3635,-0.3239,-0.3188,-0.3188,-0.3188,-0.3188,-0.3188,-0.3188,-0.3188,-0.3188,-0.3188,-0.3299,-0.416,-0.4104,-0.3365,-0.2355,-0.1964,-0.1794,-0.0505,-0.0,-0.0,-0.0,-0.0,-0.0,-0.0,-0.0,-0.0,-0.0,-0.0,-0.0,-0.0,-0.0,-0.0403,-0.1952,-0.2559,-0.3167,-0.5014,-0.3986,-0.2636,-0.2402,-0.3372,-0.3588,-0.1531,-0.1845,-0.2562,-0.3129,-0.447,-0.5393,-0.5379,-0.5379,-0.5379,-0.5379,-0.5379,-0.5379,-0.5379,-0.5454,-0.552,-0.5494,-0.5621,-0.5647,-0.5484,-0.5464,-0.5433,-0.5428,-0.5428,-0.5859,-0.681,-0.6705,-0.7166,-0.8082,-0.8022,-0.8221,-0.8549,-0.8549,-0.8343,-0.7979,-0.7865,-0.7788,-0.7767,-0.7657,-0.7563,-0.7563,-0.7563,-0.7563,-0.7509,-0.7182,-0.7563,-0.8156]},{"header":{"parameterUnit":"m.s-1","parameterCategory":1,"la1":30.6,"la2":28.766,"lo1":-90.7593,"lo2":-88.6598,"dy":0.0162,"dx":0.0183,"nx":116,"ny":114,"refTime":"2023-06-29T00:00:00:Z","depth":0,"parameterNumber":3,"parameterNumberName":"V-component_of_WINDS"},"data":[0.0,0.0,0.0,0.0,0.0,0.0,0.0,0.0,0.0,0.0,0.0,0.0,0.0,0.0,0.0,0.0,0.0,0.0,0.0,0.0,0.0,0.0,0.0,0.0,0.0,0.0,0.0,0.0,0.0,0.0,0.0,0.0,0.0,0.0,0.0,0.0,0.0,0.0,0.0,0.0,0.0,0.0,0.0,0.0,0.0,0.0,0.0,0.0,0.0,0.0,0.0,0.0,0.0,0.0,0.0,0.0,0.0,0.0,0.0,0.0,0.0,0.0,0.0,0.0,0.0,0.0,0.0,0.0,0.0,0.0,0.0,0.0,0.0,0.0,0.0,0.0,0.0,0.0,0.0,0.0,0.0,0.0,0.0,0.0,0.0,0.0,0.0,0.0,0.0,0.0,0.0,0.0,0.0,0.0,0.0,0.0,0.0,0.0,0.0,0.0,0.0,0.0,0.0,0.0,0.0,0.0,0.0,0.0,0.0,0.0,0.0,0.0,0.0,0.0,0.0,0.0,0.0,0.0,0.0,0.0,0.0,0.0,0.0,0.0,0.0,0.0,0.0,0.0,0.0,0.0,0.0,0.0,0.0,0.0,0.0,0.0,0.0,0.0,0.0,0.0,0.0,0.0,0.0,0.0,0.0,0.0,0.0,0.0,0.0,0.0,0.0,0.0,0.0,0.0,0.0,0.0,0.0,0.0,0.0,0.0,0.0,0.0,0.0,0.0,0.0,0.0,0.0,0.0,0.0,0.0,0.0,0.0,0.0,0.0,0.0,0.0,0.0,0.0,0.0,0.0,0.0,0.0,0.0,0.0,0.0,0.0,0.0,0.0,0.0,0.0,0.0,0.0,0.0,0.0,0.0,0.0,0.0,0.0,0.0,0.0,0.0,0.0,0.0,0.0,0.0,0.0,0.0,0.0,0.0,0.0,0.0,0.0,0.0,0.0,0.0,0.0,0.0,0.0,0.0,0.0,0.0,0.0,0.0,0.0,0.0,0.0,0.0,0.0,0.0,0.0,0.0,0.0,0.0,0.0,0.0,0.0,0.0,0.0,0.0,0.0,0.0,0.0,0.0,0.0,0.0,0.0,0.0,0.0,0.0,0.0,0.0,0.0,0.0,0.0,0.0,0.0,0.0,0.0,0.0,0.0,0.0,0.0,0.0,0.0,0.0,0.0,0.0,0.0,0.0,0.0,0.0,0.0,0.0,0.0,0.0,0.0,0.0,0.0,0.0,0.0,0.0,0.0,0.0,0.0,0.0,0.0,0.0,0.0,0.0,0.0,0.0,0.0,0.0,0.0,0.0,0.0,0.0,0.0,0.0,0.0,0.0,0.0,0.0,0.0,0.0,0.0,0.0,0.0,0.0,0.0,0.0,0.0,0.0,0.0,0.0,0.0,0.0,0.0,0.0,0.0,0.0,0.0,0.0,0.0,0.0,0.0,0.0,0.0,0.0,0.0,0.0,0.0,0.0,0.0,0.0,0.0,0.0,0.0,0.0,0.0,0.0,0.0,0.0,0.0,0.0,0.0,0.0,0.0,0.0,0.0,0.0,0.0,0.0,0.0,0.0,0.0,0.0,0.0,0.0,0.0,0.0,0.0,0.0,0.0,0.0,0.0,0.0,0.0,0.0,0.0,0.0,0.0,0.0,0.0,0.0,0.0,0.0,0.0,0.0,0.0,0.0,0.0,0.0,0.0,0.0,0.0,0.0,0.0,0.0,0.0,0.0,0.0,0.0,0.0,0.0,0.0,0.0,0.0,0.0,0.0,0.0,0.0,0.0,0.0,0.0,0.0,0.0,0.0,0.0,0.0,0.0,0.0,0.0,0.0,0.0,0.0,0.0,0.0,0.0,0.0,0.0,0.0,0.0,0.0,0.0,0.0,0.0,0.0,0.0,0.0,0.0,0.0,0.0,0.0,0.0,0.0,0.0,0.0,0.0,0.0,0.0,0.0,0.0,0.0,0.0,0.0,0.0,0.0,0.0,0.0,0.0,0.0,0.0,0.0,0.0,0.0,0.0,0.0,0.0,0.0,0.0,0.0,0.0,0.0,0.0,0.0,0.0,0.0,0.0,0.0,0.0,0.0,0.0,0.0,0.0,0.0,0.0,0.0,0.0,0.0,0.0,0.0,0.0,0.0,0.0,0.0,0.0,0.0,0.0,0.0,0.0,0.0,0.0,0.0,0.0,0.0,0.0,0.0,0.0,0.0,0.0,0.0,0.0,0.0,0.0,0.0,0.0,0.0,0.0,0.0,0.0,0.0,0.0,0.0,0.0,0.0,0.0,0.0,0.0,0.0,0.0,0.0,0.0,0.0,0.0,0.0,0.0,0.0,0.0,0.0,0.0,0.0,0.0,0.0,0.0,0.0,0.0,0.0,0.0,0.0,0.0,0.0,0.0,0.0,0.0,0.0,0.0,0.0,0.0,0.0,0.0,0.0,0.0,0.0,0.0,0.0,0.0,0.0,0.0,0.0,0.0,0.0,0.0,0.0,0.0,0.0,0.0,0.0,0.0,0.0,0.0,0.0,0.0,0.0,0.0,0.0,0.0,0.0,0.0,0.0,0.0,0.0,0.0,0.0,0.0,0.0,0.0,0.0,0.0,0.0,0.0,0.0,0.0,0.0,0.0,0.0,0.0,0.0,0.0,0.0,0.0,0.0,0.0,0.0,0.0,0.0,0.0,0.0,0.0,0.0,0.0,0.0,0.0,0.0,0.0,0.0,0.0,0.0,0.0,0.0,0.0,0.0,0.0,0.0,0.0,0.0,0.0,0.0,0.0,0.0,0.0,0.0,0.0,0.0,0.0,0.0,0.0,0.0,0.0,0.0,0.0,0.0,0.0,0.0,0.0,0.0,0.0,0.0,0.0,0.0,0.0,0.0,0.0,0.0,0.0,0.0,0.0,0.0,0.0,0.0,0.0,0.0,0.0,0.0,0.0,0.0,0.0,0.0,0.0,0.0,0.0,0.0,0.0,0.0,0.0,0.0,0.0,0.0,0.0,0.0,0.0,0.0,0.0,0.0,0.0,0.0,0.0,0.0,0.0,0.0,0.0,0.0,0.0,0.0,0.0,0.0,0.0,0.0,0.0,0.0,0.0,0.0,0.0,0.0,0.0,0.0,0.0,0.0,0.0,0.0,0.0,0.0,0.0,0.0,0.0,0.0,0.0,0.0,0.0,0.0,0.0,0.0,0.0,0.0,0.0,0.0,0.0,0.0,0.0,0.0,0.0,0.0,0.0,0.0,0.0,0.0,0.0,0.0,0.0,0.0,0.0,0.0,0.0,0.0,0.0,0.0,0.0,0.0,0.0,0.0,0.0,0.0,0.0,0.0,0.0,0.0,0.0,0.0,0.0,0.0,0.0,0.0,0.0,0.0,0.0,0.0,0.0,0.0,0.0,0.0,0.0,0.0,0.0,0.0,0.0,0.0,0.0,0.0,0.0,0.0,0.0,0.0,0.0,0.0,0.0,0.0,0.0,0.0,0.0,0.0,0.0,0.0,0.0,0.0,0.0,0.0,0.0,0.0,0.0,0.0,0.0,0.0,0.0,0.0,0.0,0.0,0.0,0.0,0.0,0.0,0.0,0.0,0.0,0.0,0.0,0.0,0.0,0.0,0.0,0.0,0.0,0.0,0.0,0.0,0.0,0.0,0.0,0.0,0.0,0.0,0.0,0.0,0.0,0.0,0.0,0.0,0.0,0.0,0.0,0.0,0.0,0.0,0.0,0.0,0.0,0.0,0.0,0.0,0.0,0.0,0.0,0.0,0.0,0.0,0.0,0.0,0.0,0.0,0.0,0.0,0.0,0.0,0.0,0.0,0.0,0.0,0.0,0.0,0.0,0.0,0.0,0.0,0.0,0.0,0.0,0.0,0.0,0.0,0.0,0.0,0.0,0.0,0.0,0.0,0.0,0.0,0.0,0.0,0.0,0.0,0.0,0.0,0.0,0.0,0.0,0.0,0.0,0.0,0.0,0.0,0.0,0.0,0.0,0.0,0.0,0.0,0.0,0.0,0.0,0.0,0.0,0.0,0.0,0.0,0.0,0.0,0.0,0.0,0.0,0.0,0.0,0.0,0.0,0.0,0.0,0.0,0.0,0.0,0.0,0.0,0.0,0.0,0.0,0.0,0.0,0.0,0.0,0.0,0.0,0.0,0.0,0.0,0.0,0.0,0.0,0.0,0.0,0.0,0.0,0.0,0.0,0.0,0.0,0.0,0.0,0.0,0.0,0.0,0.0,0.0,0.0,0.0,0.0,0.0,0.0,0.0,0.0,0.0,0.0,0.0,0.0,0.0,0.0,0.0,0.0,0.0,0.0,0.0,0.0,0.0,0.0,0.0,0.0,0.0,0.0,0.0,0.0,0.0,0.0,0.0,0.0,0.0,0.0,0.0,0.0,0.0,0.0,0.0,0.0,0.0,0.0,0.0,0.0,0.0,0.0,0.0,0.0,0.0,0.0,0.0,0.0,0.0,0.0,0.0,0.0,0.0,0.0,0.0,0.0,0.0,0.0,0.0,0.0,0.0,0.0,0.0,0.0,0.0,0.0,0.0,0.0,0.0,0.0,0.0,0.0,0.0,0.0,0.0,0.0,0.0,0.0,0.0,0.0,0.0,0.0,0.0,0.0,0.0,0.0,0.0,0.0,0.0,0.0,0.0,0.0,0.0,0.0,0.0,0.0,0.0,0.0,0.0,0.0,0.0,0.0,0.0,0.0,0.0,0.0,0.0,0.0,0.0,0.0,0.0,0.0,0.0,0.0,0.0,0.0,0.0,0.0,0.0,0.0,0.0,0.0,0.0,0.0,0.0,0.0,0.0,0.0,0.0,0.0,0.0,0.0,0.0,0.0,0.0,0.0,0.0,0.0,0.0,0.0,0.0,0.0,0.0,0.0,0.0,0.0,0.0,0.0,0.0,0.0,0.0,0.0,0.0,0.0,0.0,0.0,0.0,0.0,0.0,0.0,0.0,0.0,0.0,0.0,0.0,0.0,0.0,0.0,0.0,0.0,0.0,0.0,0.0,0.0,0.0,0.0,0.0,0.0,0.0,0.0,0.0,0.0,0.0,0.0,0.0,0.0,0.0,0.0,0.0,0.0,0.0,0.0,0.0,0.0,0.0,0.0,0.0,0.0,0.0,0.0,0.0,0.0,0.0,0.0,0.0,0.0,0.0,0.0,0.0,0.0,0.0,0.0,0.0,0.0,0.0,0.0,0.0,0.0,0.0,0.0,0.0,0.0,0.0,0.0,0.0,0.0,0.0,0.0,0.0,0.0,0.0,0.0,0.0,0.0,0.0,0.0,0.0,0.0,0.0,0.0,0.0,0.0,0.0,0.0,0.0,0.0,0.0,0.0,0.0,0.0,0.0,0.0,0.0,0.0,0.0,0.0,0.0,0.0,0.0,0.0,0.0,0.0,0.0,0.0,0.0,0.0,0.0,0.0,0.0,0.0,0.0,0.0,0.0,0.0,0.0,0.0,0.0,0.0,0.0,0.0,0.0,0.0,0.0,0.0,0.0,0.0,0.0,0.0,0.0,0.0,0.0,0.0,0.0,0.0,0.0,0.0,0.0,0.0,0.0,0.0,0.0,0.0,0.0,0.0,0.0,0.0,0.0,0.0,0.0,0.0,0.0,0.0,0.0,0.0,0.0,0.0,0.0,0.0,0.0,0.0,0.0,0.0,0.0,0.0,0.0,0.0,0.0,0.0,0.0,0.0,0.0,0.0,0.0,0.0,0.0,0.0,0.0,0.0,0.0,0.0,0.0,0.0,0.0,0.0,0.0,0.0,0.0,0.0,0.0,0.0,0.0,0.0,0.0,0.0,0.0,0.0,0.0,0.0,0.0,0.0,0.0,0.0,0.0,0.0,0.0,0.0,0.0,0.0,0.0,0.0,0.0,0.0,0.0,0.0,0.0,0.0,0.0,0.0,0.0,0.0,0.0,0.0,0.0,0.0,0.0,0.0,0.0,0.0,0.0,0.0,0.0,0.0,0.0,0.0,0.0,0.0,0.0,0.0,0.0,0.0,0.0,0.0,0.0,0.0,0.0,0.0,0.0,0.0,0.0,0.0,0.0,0.0,0.0,0.0,0.0,0.0,0.0,-0.2021,0.0,0.0,0.0,0.0,0.0,0.0,0.0,0.0,0.0,0.0,0.0,0.0,0.0,0.0,0.0,0.0,0.0,0.0,0.0,0.0,0.0,0.0,0.0,0.0,0.0,0.0,0.0,0.0,0.0,0.0,0.0,0.0,0.0,0.0,0.0,0.0,0.0,0.0,0.0,0.0,0.0,0.0,0.0,0.0,0.0,0.0,0.0,0.0,0.0,0.0,0.0,0.0,0.0,0.0,0.0,0.0,0.0,0.0,0.0,0.0,0.0,0.0,0.0,0.0,0.0,0.0,0.0,0.0,0.0,0.0,0.0,0.0,0.0,0.0,0.0,0.0,0.0,0.0,0.0,0.0,0.0,0.0,0.0,0.0,0.0,0.0,0.0,0.0,0.0,0.0,0.0,0.0,0.0,0.0,0.0,0.0,0.0,0.0,0.0,0.0,0.0,0.0,0.0,0.0,0.0,0.0,0.0,0.0,0.0,0.0,0.0,0.0,0.0,0.0,0.0,0.0,-0.0936,0.0,0.0,0.0,0.0,0.0,0.0,0.0,0.0,0.0,0.0,0.0,0.0,0.0,0.0,0.0,0.0,0.0,0.0,0.0,0.0,0.0,0.0,0.0,0.0,0.0,0.0,0.0,0.0,0.0,0.0,0.0,0.0,0.0,0.0,0.0,0.0,0.0,0.0,0.0,0.0,0.0,0.0,0.0,0.0,0.0,0.0,0.0,0.0,0.0,0.0,0.0,0.0,0.0,0.0,0.0,0.0,0.0,0.0,0.0,0.0,0.0,0.0,0.0,0.0,0.0,0.0,0.0,0.0,0.0,0.0,0.0,0.0,0.0,0.0,0.0,0.0,0.0,0.0,0.0,0.0,0.0,0.0,0.0,0.0,0.0,0.0,0.0,0.0,0.0,0.0,0.0,0.0,0.0,0.0,0.0,0.0,0.0,0.0,0.0,0.0,0.0,0.0,0.0,0.0,0.0,0.0,0.0,0.0,-0.4869,-0.4677,-0.466,-0.2375,-0.1329,-0.1274,-0.0383,-0.0431,-0.1189,0.0,0.0,0.0,0.0,0.0,0.0,0.0,0.0,0.0,0.0,0.0,0.0,0.0,0.0,0.0,0.0,0.0,0.0,0.0,0.0,0.0,0.0,0.0,0.0,0.0,0.0,0.0,0.0,0.0,0.0,0.0,0.0,0.0,0.0,0.0,0.0,0.0,0.0,0.0,-0.2387,-0.3015,-0.2214,-0.0191,-0.0971,0.0,0.0,0.0,0.0,0.0,0.0,0.0,0.0,0.0,0.0,0.0,0.0,0.0,0.0,0.0,0.0,0.0,0.0,0.0,0.0,0.0,0.0,0.0,0.0,0.0,0.0,0.0,0.0,0.0,0.0,0.0,0.0,0.0,0.0,0.0,0.0,0.0,0.0,0.0,0.0,0.0,0.0,0.0,0.4122,0.3992,0.0,0.0,0.0,0.0,0.0,0.0,0.0,0.0,0.0,0.0,0.0,0.0,0.0,0.0,-0.3126,-0.4297,-0.5489,-0.6613,-0.5703,-0.5216,-0.4958,-0.266,-0.1577,-0.154,-0.0427,0.0,-0.0286,-0.1854,0.0,0.0,0.0,0.0,0.0,0.0,0.0,0.0,0.0,0.0,0.0,0.0,0.0,0.0,0.0,0.0,0.0,0.0,0.0,0.0,0.0,0.0,0.0,0.0,0.0,0.0,0.0,0.0,0.0,0.0,0.0,0.0,0.0,0.0,0.0,0.0,-0.2239,-0.2655,-0.1894,-0.1575,-0.0774,0.0262,-0.0693,-0.1103,-0.1204,-0.1457,0.0,0.0,0.0,0.0,0.0,0.0,0.0,0.0,0.0,0.0,0.0,0.0,0.0,0.0,0.0,0.0,0.0,0.0,0.0,0.0,0.0,0.0,0.0,0.0,0.0,0.0,0.0,0.0,0.0,0.0,0.0,0.0,0.0,0.0,0.0,0.0,0.0,0.0,0.0,0.5514,0.4756,0.3445,0.3201,0.2511,0.0,0.0,0.0,0.0,0.0,0.0,0.0,0.0,0.0,0.0,-0.0338,-0.1553,-0.3561,-0.4076,-0.4998,-0.6311,-0.5101,-0.4102,-0.3251,-0.1533,-0.0664,-0.0651,-0.0184,0.0,-0.0164,-0.1972,-0.2741,-0.2868,0.0,0.0,0.0,0.0,0.0,-0.5324,0.0,0.0,0.0,0.0,0.0,0.0,0.0,0.0,0.0,0.0,0.0,0.0,0.0,0.0,0.0,-0.652,0.0,0.0,0.0,0.0,0.0,0.0,0.0,0.0,0.0,0.0,0.0,-0.1393,-0.1581,-0.1455,-0.0834,0.0325,0.0931,0.1022,0.0,-0.0709,-0.118,-0.1314,-0.1612,0.0,0.0,0.0,0.0,0.0,0.0,0.0,0.0,0.0,0.0,0.0,0.0,0.0,0.0,0.0,0.0,0.0,0.0,0.0,0.0,0.0,0.0,0.0,0.0,0.0,0.0,0.0,0.0,0.0,0.0,0.0,0.0,0.0,0.0,0.0,0.0,0.0,0.0,0.5451,0.4728,0.2986,0.284,0.2203,0.0,0.0,0.0,0.0,0.0,0.0,0.0,0.0,0.0,0.0,0.0,-0.1104,-0.3318,-0.3703,-0.4365,-0.531,-0.433,-0.3174,-0.1912,-0.0605,0.0,0.0,0.0,0.0,-0.0181,-0.2058,-0.2926,-0.3099,-0.4894,-0.5613,-0.5623,-0.5433,-0.5457,-0.5586,0.0,0.0,0.0,0.0,0.0,0.0,0.0,0.0,0.0,0.0,0.0,0.0,0.0,0.0,-0.7778,-1.1172,-1.1193,-1.0737,0.0,0.0,0.0,0.0,0.0,0.0,0.0,0.0,0.0,-0.2167,-0.1318,-0.0063,0.1662,0.2399,0.275,0.2745,0.183,0.0405,-0.1344,-0.1926,-0.1842,-0.1285,0.0,0.0,0.0,0.0,0.0,0.0,0.0,0.0,0.0,0.0,0.0,0.0,0.0,0.0,0.0,0.0,0.0,0.0,0.0,0.0,0.0,0.0,0.0,0.0,0.0,0.0,0.0,0.0,0.0,0.0,0.0,0.0,0.0,0.0,0.0,0.0,0.0,0.0,0.0,0.2918,0.2219,0.0,0.0,0.0,0.0,0.0084,0.0,0.0,0.0,0.0,0.0,0.0,0.0,-0.0689,-0.2101,-0.3403,-0.4005,-0.4111,-0.4011,-0.3313,-0.1912,-0.0605,0.0,0.0,0.0,0.0,-0.0189,-0.2117,-0.2869,-0.3096,-0.4893,-0.5674,-0.5755,-0.5467,-0.5457,-0.5569,0.0,0.0,0.0,0.0,0.0,0.0,0.0,0.0,0.0,0.0,0.0,0.0,0.0,-0.3776,-0.9029,-1.2118,-1.3441,-1.333,-1.1519,0.0,0.0,0.0,0.0,0.0,0.0,0.0,-0.0535,-0.16,0.0,0.1477,0.2676,0.3503,0.3641,0.2966,0.2005,0.0866,-0.0486,-0.1199,-0.1663,-0.1838,-0.1044,0.0162,0.0,0.0,0.0,0.0,0.0,0.0,0.0,0.0,0.0,0.0,0.0,0.0,0.0,0.0,0.0,0.0,0.0,0.0,0.0,0.0,0.0,0.0,0.0,0.0,0.0,0.0,0.0,0.0,0.0,0.0,0.0,0.0,0.0,0.0,0.0,0.0,0.0,0.3581,0.3307,0.0,0.0,0.0357,0.0451,0.0,0.0,0.0,0.0,0.0,0.0,0.0,0.0,-0.062,-0.1947,-0.2457,-0.3152,-0.4016,-0.3115,-0.2413,-0.1912,-0.0605,0.0,0.0,0.0,-0.0488,-0.135,-0.2805,-0.3307,-0.3389,-0.5297,-0.6108,-0.6196,-0.5901,-0.5891,-0.6013,0.0,0.0,0.0,0.0,0.0,0.0,0.0,0.0,0.0,0.0,0.0,0.2842,0.068,-0.5419,-1.0386,-1.3087,-1.4291,-1.4164,-1.2334,0.0,0.0,0.0,0.0,0.0,0.0,-0.0176,-0.0928,-0.1676,0.0267,0.1881,0.3095,0.4066,0.4194,0.3589,0.2921,0.1885,0.0514,0.0,-0.069,-0.1403,-0.0952,0.0,0.1127,0.0,0.0,0.0,0.0,0.0,0.0,0.0,0.0,0.0,0.0,0.0,0.0,0.0,0.0,0.0,0.0,0.0,0.0,0.0,0.0,0.0,0.0,0.0,0.0,0.0,0.0,0.0,0.0,0.0,0.0,0.0,0.0,0.0,0.0,0.0,0.6076,0.3873,0.3535,0.2613,0.0192,0.0,0.0,0.0,0.0,0.0,0.0,0.0,0.0,0.0,0.0,-0.0423,-0.1347,-0.176,-0.2255,-0.2614,-0.2715,-0.2213,-0.131,-0.0907,-0.0706,-0.0706,-0.0697,-0.1483,-0.2754,-0.3877,-0.4152,-0.4254,-0.5859,-0.6573,-0.6654,-0.6308,-0.6278,-0.6393,0.0,0.0,0.0,0.0,0.0,0.0,0.0,0.0,0.0,0.0,0.0,-0.0258,-0.1409,-0.7227,-1.191,-1.4136,-1.3691,-1.295,-1.2327,-0.8596,0.0,0.0,0.0,0.0,-0.2456,-0.1933,-0.1902,-0.2493,-0.0805,0.1049,0.3099,0.4075,0.4586,0.4693,0.4696,0.3555,0.1587,0.1621,0.1014,0.0,0.0059,0.0471,0.1174,0.0,0.0,0.0,0.0,0.0,0.0,0.0,0.0,0.0,0.0,0.0,0.0,0.0,0.0,0.0,0.0,0.0,0.0,0.0,0.0,0.0,0.0,0.0,0.0,0.0,0.0,0.0,0.0,0.0,0.0,0.0,0.0,0.0,0.5162,0.5543,0.5307,0.381,0.2821,0.1682,0.0102,0.0,0.0,0.0,0.0,0.0,0.0,0.0,0.0,0.0,0.0,0.0,0.0,-0.1244,-0.1335,-0.0101,-0.2615,-0.2514,-0.0202,-0.1411,-0.2013,-0.2012,-0.2012,-0.2814,-0.41,-0.52,-0.5588,-0.5743,-0.6565,-0.7014,-0.7082,-0.6641,-0.6569,-0.6651,0.0,0.0,0.0,0.0,0.0,0.0,0.0,0.0,0.0,0.0,-0.0419,-0.0589,-0.2272,-0.6239,-0.9435,-1.1069,-1.0491,-0.9831,-0.9453,0.0,0.0,0.0,0.0,0.0,-0.2889,-0.2786,-0.2702,-0.278,-0.0949,0.1041,0.3096,0.4254,0.478,0.4816,0.4973,0.381,0.1747,0.1706,0.1107,0.0069,0.0694,0.1417,0.2178,0.0,0.0,0.0,0.0,0.0,0.0,0.0,0.0,0.0,0.0,0.0,0.0,0.0,0.0,0.0,0.0,0.0,0.0,0.0,0.0,0.0,0.0,0.0,0.0,0.0,0.0,0.0,0.0,0.0,0.0,0.0,0.0,0.6188,0.6766,0.7295,0.6721,0.4189,0.3851,0.2871,0.0222,0.0,0.0,0.0,0.0,0.0,0.0,0.0,0.0,0.0,0.0,0.0,0.0,-0.032,-0.0838,-0.1439,-0.1217,-0.1712,-0.2914,-0.2314,-0.2514,-0.3414,-0.3414,-0.4185,-0.5303,-0.5556,-0.6112,-0.6933,-0.6883,-0.6953,-0.6959,-0.6722,-0.6593,-0.6508,0.0,0.0,0.0,0.0,0.0,0.0,0.0,0.0,0.0,0.0,-0.2111,-0.1832,-0.2946,-0.5573,-0.761,-0.8524,-0.8069,-0.7557,-0.7069,0.0,0.0,0.0,0.0,-0.3246,-0.465,-0.4324,-0.3935,-0.3533,-0.1955,0.0306,0.325,0.3941,0.4718,0.5671,0.5741,0.4486,0.2463,0.2432,0.1509,0.0154,0.1507,0.2067,0.222,0.3055,0.3665,0.3908,0.3062,0.2551,0.252,0.4843,0.0,0.0,0.0,0.0,0.0,0.0,0.0,0.0,0.0,0.0,0.0,0.0,0.0,0.0,0.0,0.0,0.0,0.0,0.0,0.0,0.0,0.0,0.0,0.0,0.6088,0.6108,0.7048,0.7355,0.6679,0.4391,0.4312,0.3287,0.0345,0.0,0.0,0.0,0.0,0.0,0.0,0.0,0.0,0.0,0.0,0.0,0.0,0.0,-0.0421,-0.1127,-0.1518,-0.2213,-0.3215,-0.3518,-0.4119,0.0,-0.482,-0.5589,-0.6706,-0.6524,-0.6879,0.0,0.0,0.0,0.0,0.0,-0.6566,-0.6373,0.0,0.0,0.0,0.0,0.0,0.0,0.0,0.0,0.0,0.0,0.0,-0.3559,-0.3605,-0.5168,-0.6233,-0.6299,-0.6131,-0.5673,0.0,0.0,0.0,-0.3765,-0.412,-0.5155,-0.7047,-0.6238,-0.5325,-0.4433,-0.3255,-0.062,0.3399,0.3498,0.4697,0.6725,0.6742,0.5474,0.3364,0.3364,0.2103,0.0168,0.2296,0.2579,0.1903,0.2982,0.3498,0.3619,0.3792,0.3326,0.3067,0.6022,0.0,0.0,0.0,0.0,0.0,0.0,0.0,0.0,0.0,0.0,0.0,0.0,0.0,0.0,0.0,0.0,0.0,0.0,0.0,0.0,0.0,0.0,0.0,0.0,0.6799,0.6027,0.6448,0.6255,0.5477,0.414,0.415,0.3094,0.023,0.0,0.0,0.0,0.0,0.0,0.0,0.0,0.0,0.0,0.0,0.0,0.0,0.0,0.0,0.0,-0.2519,-0.3215,-0.2314,-0.4822,-0.6129,-0.6232,-0.6232,-0.6924,-0.7991,-0.7712,-0.758,-0.7519,-0.7248,-0.7139,-0.7105,-0.681,-0.6536,-0.6305,0.0,0.0,0.0,0.0,0.0,0.0,0.0,0.0,0.0,-0.6689,-0.5567,-0.4673,-0.4432,-0.4785,-0.4878,-0.4515,-0.3827,-0.3175,0.0,0.0,-0.3969,-0.4766,-0.5709,-0.6835,-0.8211,-0.7431,-0.6212,-0.454,-0.2595,0.008,0.3322,0.4453,0.5653,0.6892,0.7004,0.5765,0.353,0.353,0.2218,0.0168,0.242,0.3102,0.2999,0.4731,0.6065,0.6741,0.5844,0.5402,0.5387,0.643,0.659,0.6368,0.6147,0.0,0.0,0.0,0.0,0.0,0.0,0.0,0.0,0.0,0.0,0.0,0.0,0.0,0.0,0.0,0.0,0.0,0.0,0.0,0.0,0.8333,0.6322,0.5312,0.6682,0.4623,0.2851,0.2521,0.2583,0.1959,0.0117,0.0,0.0,0.0,0.0,0.0,0.0,0.0,0.0,0.0,0.0,0.0,0.0,0.0,0.0,0.0,0.0,0.0,-0.3717,-0.5222,-0.6631,-0.7637,-0.7637,-0.7671,-0.7841,-0.7672,-0.7455,-0.7224,-0.7163,-0.7139,-0.7105,-0.681,-0.6664,-0.658,0.0,0.0,0.0,0.0,0.0,0.0,0.0,0.0,0.0,0.0,-0.6657,-0.5731,-0.4957,-0.4634,-0.4196,-0.35,-0.2457,0.0,0.0,-0.3667,-0.4572,-0.6306,-0.7164,-0.8125,-0.9295,-0.8087,-0.6772,-0.5422,-0.2634,0.0326,0.3522,0.4851,0.6101,0.7156,0.6566,0.54,0.3631,0.2266,0.0718,-0.0794,0.0879,0.1569,0.1888,0.5114,0.7058,0.797,0.674,0.6315,0.6317,0.662,0.6827,0.6848,0.6725,0.6123,0.5487,0.0,0.0,0.0,0.0,0.0,0.0,0.0,0.0,0.0,0.0,0.0,0.0,0.0,0.0,0.7241,0.0,0.0,0.8496,0.8872,0.6495,0.4891,0.58,0.3185,0.1394,0.2022,0.2189,0.1645,0.0118,0.0,0.0,0.0,0.0,0.0,0.0,0.0,0.0,0.0,0.0,0.0,0.0,0.0,0.0,0.0,-0.204,-0.3314,-0.4116,-0.6126,-0.7335,-0.8038,-0.8038,-0.7994,-0.7909,-0.7689,-0.7465,-0.7248,-0.717,-0.7095,-0.7017,-0.6868,-0.6766,-0.6668,0.0,0.0,0.0,0.0,0.0,0.0,0.0,0.0,0.0,0.0,0.0,-0.7199,-0.5871,-0.5097,-0.4134,0.0,0.0,0.0,0.0,-0.4219,-0.5166,-0.777,-0.835,-0.9136,-1.0325,-0.8618,-0.7305,-0.6541,-0.3221,-0.0248,0.2594,0.3899,0.497,0.588,0.4873,0.3784,0.2463,0.0094,-0.1593,-0.2501,-0.1384,-0.0919,-0.0273,0.4074,0.6716,0.8046,0.709,0.6848,0.6918,0.6767,0.6806,0.6936,0.6936,0.6659,0.6294,0.6023,0.4983,0.0,0.0,0.0,0.0,0.0,0.0,0.0,0.0,0.0,0.6712,0.7251,0.7529,0.7814,0.8272,0.8621,0.8971,0.9361,0.6845,0.4754,0.4938,0.2027,0.047,0.1616,0.1769,0.1312,0.0118,0.0,0.0,0.0,0.0,0.0,0.0,0.0,0.0,0.0,0.0,0.0,0.0,0.0,0.0,0.0,-0.2743,-0.4016,-0.4116,-0.6728,-0.8038,-0.8038,-0.8038,-0.8007,-0.7936,-0.7699,-0.7492,-0.7316,-0.7187,-0.7068,-0.6966,-0.6939,-0.6851,-0.6722,0.0,0.0,0.0,0.0,0.0,0.0,0.0,0.0,0.0,0.0,0.0,0.0,0.0,0.0,0.0,0.0,0.0,0.0,-0.3317,-0.3803,-0.5358,-0.8374,-0.8918,-0.9814,-1.1191,-0.933,-0.8144,-0.7679,-0.4496,-0.2349,-0.1205,-0.0089,0.0546,0.0639,0.0373,-0.0377,-0.1603,-0.3094,-0.4404,-0.5447,-0.4204,-0.3689,-0.3174,0.0725,0.4254,0.721,0.6983,0.7371,0.7894,0.6889,0.6482,0.6424,0.635,0.6383,0.623,0.5899,0.0,0.3235,0.42,0.3291,0.2372,0.3364,0.3594,0.412,0.0,0.0,0.7733,0.8075,0.8476,0.874,0.8672,0.9015,0.9367,0.9554,0.6904,0.4894,0.4902,0.2061,0.012,0.0235,0.0236,0.0236,0.0,0.0,0.0,0.0,0.0,0.0,0.0,0.0,0.0,0.0,0.0,0.0,0.0,0.0,0.0,0.0,-0.2761,-0.4016,-0.4116,-0.6728,-0.8038,-0.8038,-0.8038,-0.7892,-0.7648,-0.7614,-0.7428,-0.7166,-0.7146,-0.7129,-0.7102,-0.6973,-0.6919,-0.6881,0.0,0.0,0.0,0.0,0.0,0.0,0.0,0.0,0.0,0.0,0.0,0.0,0.0,0.0,0.0,0.0,0.0,0.0,-0.4042,-0.4691,-0.6304,-0.9344,-0.9825,-1.0456,-1.139,-1.0318,-0.9541,-0.895,-0.6636,-0.5009,-0.4064,-0.2933,-0.2516,-0.2519,-0.3242,-0.3854,-0.4532,-0.7393,-0.8875,-0.9169,-0.8574,-0.8208,-0.7645,-0.2883,-0.0086,0.1624,0.4107,0.5592,0.0,0.0,0.5087,0.4654,0.5231,0.4962,0.4613,0.4965,0.4171,0.0,0.472,0.3486,0.0,0.0,0.3891,0.3676,0.4572,0.5041,0.5698,0.6981,0.7487,0.8025,0.8884,0.9395,0.9656,0.0,0.697,0.4901,0.4857,0.2038,0.0,0.0,0.0,0.0,0.0,0.0,0.0,0.0,0.0,0.0,0.0,0.0,0.0,0.0,0.0,0.0,0.0,0.0,0.0,0.0,-0.1947,-0.3215,-0.4016,-0.5924,-0.7235,-0.8038,-0.8038,-0.797,-0.7841,-0.7672,-0.7522,-0.739,-0.721,-0.7139,-0.7132,-0.7075,-0.7051,-0.7031,0.0,0.0,0.0,0.0,0.0,0.0,0.0,0.0,0.0,0.0,0.0,0.0,0.0,0.0,0.0,0.0,0.0,0.0,0.0,-0.5522,-0.7078,-0.9421,-1.0409,-1.0978,-1.1309,-1.0997,-1.0636,-1.0215,-0.8919,-0.7869,-0.7135,-0.6548,-0.6183,-0.6283,-0.7109,-0.7761,-0.8326,-1.1557,-1.288,-1.2986,-1.2744,-1.2388,-1.1372,-0.6526,-0.427,-0.3092,0.1492,0.3585,0.0,0.0,0.3726,0.326,0.4002,0.3785,0.3338,0.3865,0.3643,0.3392,0.4071,0.0,0.0,0.3684,0.3608,0.3185,0.3155,0.3535,0.4259,0.5704,0.6205,0.6786,0.839,0.8931,0.9102,0.9023,0.671,0.4744,0.4332,0.1775,0.0,0.0,0.0,0.0,0.0,0.0,0.0,0.0,0.0,0.0,0.0,0.0,0.0,0.0,0.0,0.0,0.0,0.0,0.0,0.0,-0.134,-0.2729,-0.4016,-0.5724,-0.7033,-0.8038,-0.8038,-0.8014,-0.796,-0.7746,-0.7611,-0.7516,-0.7292,-0.7177,-0.7139,-0.7139,-0.7139,-0.7126,0.0,0.0,0.0,0.0,0.0,0.0,0.0,0.0,0.0,0.0,0.0,0.0,0.0,0.0,0.0,0.0,0.0,0.0,0.0,-0.5928,-0.7267,-0.7941,-1.0279,-1.1397,-1.0995,-1.0875,-1.1042,-1.1484,-1.0968,-1.0799,-1.0944,-1.1296,-1.1497,-1.1512,-1.1641,-1.2383,-1.3677,-1.5038,-1.5989,-1.6735,-1.6338,-1.5254,-1.3554,-0.99,-0.7468,-0.5194,0.0144,0.0,0.0,0.0,0.2845,0.2744,0.2903,0.3029,0.0,0.2974,0.3025,0.2872,0.0,0.0,0.176,0.1513,0.1711,0.2035,0.2214,0.3386,0.4453,0.4571,0.4751,0.5366,0.6769,0.7078,0.7194,0.7187,0.5765,0.4206,0.2766,0.1055,0.0,0.0,0.0,0.0,0.0,0.0,0.0,0.0,0.0,0.0,0.0,0.0,0.0,0.0,0.0,0.0,0.0,0.0,0.0,0.0,-0.1358,-0.2661,-0.4116,-0.6728,-0.7939,-0.8038,-0.8038,-0.7957,-0.7818,-0.7807,-0.7638,-0.7377,-0.7366,-0.7272,-0.7139,-0.7139,-0.7139,-0.7139,0.0,0.0,0.0,0.0,0.0,0.0,0.0,0.0,0.0,0.0,0.0,0.0,0.0,0.0,0.0,0.0,0.0,0.0,0.0,-0.4992,-0.5649,-0.7312,-0.8184,-0.8778,-0.9142,-0.9814,-1.0855,-1.208,-1.2897,-1.3913,-1.507,-1.549,-1.5796,-1.5995,-1.6102,-1.6318,-1.6758,-1.8009,-1.8734,-1.887,-1.7691,-1.6779,-1.5525,-1.0861,-0.8456,-0.7101,0.0,0.0,0.0,0.0,0.0944,0.1019,0.1528,0.1392,0.1203,0.1931,0.2023,0.2073,0.2661,0.0,0.0808,0.1473,0.1101,0.0685,0.0693,0.1172,0.1761,0.2723,0.3168,0.3705,0.5175,0.5586,0.559,0.5622,0.4284,0.3077,0.2605,0.1058,0.0,0.0,0.0,0.0,0.0,0.0,0.0,0.0,0.0,0.0,0.0,0.0,0.0,0.0,0.0,0.0,0.0,0.0,0.0,0.0,-0.2267,-0.3537,-0.4116,-0.6728,-0.8038,-0.8038,-0.8038,-0.8011,-0.7957,-0.7851,-0.7695,-0.7512,-0.7411,-0.7278,-0.7139,-0.7139,-0.7139,-0.7139,0.0,0.0,0.0,0.0,0.0,0.0,0.0,0.0,0.0,0.0,0.0,0.0,0.0,0.0,0.0,0.0,0.0,0.0,0.0,0.0,-0.6258,-0.6822,-0.7586,-0.7995,-0.796,-0.8952,-1.0003,-1.112,-1.2628,-1.3959,-1.4993,-1.6025,-1.6676,-1.7083,-1.7419,-1.782,-1.8439,-1.905,-1.9246,-1.9036,-1.7732,-1.6532,-1.5049,-1.104,-0.8883,0.0,0.0,0.0,0.0,-0.1066,-0.0628,-0.0354,-0.0238,-0.0573,-0.0834,0.03,0.041,0.0536,0.1987,0.1215,0.0216,0.1008,0.058,0.0,0.0,0.0,0.0233,0.1231,0.1531,0.2024,0.3574,0.3903,0.3971,0.3942,0.308,0.2155,0.1627,0.0693,0.0,0.0,0.0,0.0,0.0,0.0,0.0,0.0,0.0,0.0,0.0,0.0,0.0,0.0,0.0,0.0,0.0,0.0,0.0,0.0,-0.2755,-0.4016,-0.4116,-0.6728,-0.8038,-0.8038,-0.8038,-0.8038,-0.8031,-0.7933,-0.7777,-0.759,-0.7492,-0.7326,-0.7139,-0.7139,-0.7139,-0.7139,0.0,0.0,0.0,0.0,0.0,0.0,0.0,0.0,0.0,0.0,0.0,0.0,0.0,0.0,0.0,0.0,0.0,0.0,0.0,0.0,0.0,-0.6576,-0.8349,-0.8771,-0.7462,-0.8222,-0.8703,-0.8791,-1.0325,-1.115,-1.1335,-1.339,-1.4621,-1.5091,-1.5866,-1.7066,-1.8496,-1.8053,-1.7775,-1.7374,-1.6459,-1.4689,-1.2393,-1.0608,0.0,0.0,0.0,0.0,0.0,0.0,0.0,0.0,-0.2284,-0.2742,-0.2746,-0.1883,-0.1627,-0.1407,-0.0294,0.0,0.0,0.0,0.0,0.0,0.0,0.0,0.0,0.0,0.0,0.0399,0.0,0.0,0.2126,0.2044,0.2071,0.1598,0.0228,0.0,0.0,0.0,0.0,0.0,0.0,0.0,0.0,0.0,0.0,0.0,0.0,0.0,0.0,0.0,0.0,0.0,0.0,-0.0109,-0.0108,-0.0208,-0.284,-0.4116,-0.4216,-0.6828,-0.8038,-0.8038,-0.8038,-0.8038,-0.8038,-0.8038,-0.7872,-0.7611,-0.7611,-0.7424,-0.7153,-0.7153,-0.7146,-0.7139,0.0,0.0,0.0,0.0,0.0,0.0,0.0,0.0,0.0,0.0,0.0,0.0,0.0,0.0,0.0,0.0,0.0,0.0,0.0,0.0,0.0,0.0,0.0,0.0,0.0,0.0,0.0,0.0,0.0,-1.0802,-1.2579,-1.3094,-1.3846,-1.4836,-1.5043,-1.5369,-1.573,-1.5634,-1.5486,-1.5349,0.0,-1.3119,-1.2058,0.0,0.0,0.0,0.0,0.0,0.0,0.0,0.0,0.0,0.0,-0.3484,-0.3465,-0.2271,-0.1889,-0.1634,-0.0326,0.0,0.0,0.0,0.0,0.0,0.0,0.0,0.0,0.0,0.0,0.0092,0.0,0.0,0.0,0.0582,0.0522,0.0,0.0,0.0,0.0,0.0,0.0,0.0,0.0,0.0,0.0,0.0,0.0,0.0,0.0,0.0,0.0,0.0,0.0,0.0,0.0,-0.0977,-0.201,-0.2996,-0.4663,-0.5525,-0.5525,-0.7232,-0.8038,-0.8038,-0.8038,-0.8038,-0.8038,-0.8038,-0.7929,-0.7756,-0.7756,-0.7573,-0.7312,-0.7312,-0.7241,-0.7139,0.0,0.0,0.0,0.0,0.0,0.0,0.0,0.0,0.0,0.0,0.0,0.0,0.0,0.0,0.0,0.0,0.0,0.0,0.0,0.0,0.0,0.0,0.0,0.0,0.0,0.0,0.0,0.0,0.0,0.0,0.0,-1.1692,-1.2496,-1.3293,-1.3684,-1.3964,-1.4101,0.0,0.0,0.0,0.0,0.0,0.0,0.0,0.0,0.0,0.0,0.0,0.0,0.0,0.0,-0.4794,-0.4651,-0.5047,-0.5392,-0.4336,0.0,-0.3837,-0.2678,-0.1849,-0.1153,-0.1138,-0.0621,-0.012,-0.0452,-0.0321,-0.0101,-0.0467,-0.0269,0.0,0.0,0.0,0.0,0.0,0.0,0.0,0.0,0.0,0.0,0.0,-0.0597,0.0,-0.1067,-0.1069,-0.143,0.0,-0.0834,0.0,0.0,0.0,0.0,0.0,0.0,-0.0331,-0.0877,-0.1586,-0.2683,-0.3977,-0.5352,-0.6029,-0.6029,-0.7434,-0.8038,-0.8038,0.0,-0.8038,-0.8038,-0.8038,-0.7913,-0.7719,-0.7719,-0.7533,-0.7272,-0.7272,-0.7214,-0.7139,0.0,0.0,0.0,0.0,0.0,0.0,0.0,0.0,0.0,0.0,0.0,0.0,0.0,0.0,0.0,0.0,0.0,0.0,0.0,0.0,0.0,0.0,0.0,0.0,0.0,0.0,0.0,0.0,0.0,0.0,0.0,0.0,0.0,0.0,0.0,0.0,0.0,0.0,0.0,0.0,0.0,0.0,0.0,0.0,0.0,0.0,0.0,0.0,0.0,0.0,-0.6996,-0.6421,-0.6171,-0.6811,-0.756,-0.6725,-0.6661,-0.6529,-0.5614,-0.4208,-0.3009,-0.3049,-0.1849,-0.0826,-0.1516,-0.0912,-0.0472,-0.1192,0.0,0.0,0.0,0.0,0.0,0.0,0.0,0.0,0.0,-0.0225,-0.0346,-0.0367,-0.1824,-0.2789,-0.2827,-0.2797,-0.3395,-0.4789,-0.2217,-0.0605,-0.0578,-0.0467,-0.0232,0.0,-0.0223,-0.0879,-0.2225,-0.2462,-0.3225,-0.4518,-0.5724,-0.6229,-0.6331,-0.7434,-0.8038,-0.8038,0.0,0.0,-0.8038,-0.8038,-0.7879,-0.7631,-0.7651,-0.7458,-0.7173,-0.7193,-0.7177,-0.7139,0.0,0.0,0.0,0.0,0.0,0.0,0.0,0.0,0.0,0.0,0.0,0.0,0.0,0.0,0.0,0.0,0.0,0.0,0.0,0.0,0.0,0.0,0.0,0.0,0.0,0.0,0.0,0.0,0.0,0.0,0.0,0.0,0.0,0.0,0.0,0.0,0.0,0.0,0.0,0.0,0.0,0.0,0.0,0.0,0.0,0.0,0.0,0.0,0.0,0.0,-0.7488,-0.7238,-0.7392,-0.7972,-0.8262,-0.703,-0.6894,-0.6722,-0.5432,-0.5087,-0.4909,-0.4767,-0.4339,-0.3753,-0.3405,-0.2431,0.0,0.0,0.0,0.0,0.0,0.0,0.0,0.0,0.0,0.0,0.0,0.0,-0.2117,0.0,0.0,0.0,0.0,0.0,0.0,0.0,0.0,0.0,-0.3862,-0.2696,-0.1382,0.0,-0.1098,-0.2262,-0.3632,-0.4743,-0.6017,-0.7332,-0.7534,-0.7637,-0.7637,-0.7939,-0.8038,-0.8038,0.0,0.0,-0.8038,-0.8038,-0.7933,-0.7787,-0.7916,-0.7702,-0.7346,-0.7472,-0.736,-0.7139,0.0,0.0,0.0,0.0,0.0,0.0,0.0,0.0,0.0,0.0,0.0,0.0,0.0,0.0,0.0,0.0,0.0,0.0,0.0,0.0,0.0,0.0,0.0,0.0,0.0,0.0,0.0,0.0,0.0,0.0,0.0,0.0,0.0,0.0,0.0,0.0,0.0,0.0,0.0,0.0,0.0,0.0,0.0,0.0,0.0,0.0,0.0,0.0,0.0,0.0,-0.7938,-0.786,-0.8049,-0.8408,-0.8666,-0.8262,-0.8388,-0.8505,-0.798,-0.7381,-0.6651,-0.6593,-0.5554,-0.473,-0.464,0.0,0.0,0.0,-0.1392,-0.0505,-0.007,0.0,0.0,0.0,0.0,0.0,0.0,0.0,0.0,0.0,0.0,0.0,0.0,0.0,0.0,0.0,0.0,0.0,-0.4698,-0.3925,-0.2822,-0.1204,-0.1732,-0.2338,-0.2998,-0.4296,-0.5675,-0.6933,-0.7637,-0.8038,-0.8038,-0.8038,-0.8038,-0.8038,-0.8038,0.0,-0.8038,-0.8038,-0.795,-0.7818,-0.7892,-0.7743,-0.7489,-0.7485,-0.7387,-0.7248,0.0,0.0,0.0,0.0,0.0,0.0,0.0,0.0,0.0,0.0,0.0,0.0,0.0,0.0,0.0,0.0,0.0,0.0,0.0,0.0,0.0,0.0,0.0,0.0,0.0,0.0,0.0,0.0,0.0,0.0,0.0,0.0,0.0,0.0,0.0,0.0,0.0,0.0,0.0,0.0,0.0,0.0,0.0,0.0,0.0,0.0,0.0,0.0,0.0,0.0,-0.8374,-0.8238,-0.823,-0.8453,-0.8886,-0.912,-0.9554,-1.0019,-1.0317,-0.9453,-0.844,-0.8359,-0.6945,-0.5635,-0.5795,-0.4729,0.0,0.0,-0.2191,-0.106,-0.0407,0.0,0.0,0.0,0.0,0.0,0.0,0.0,0.0,0.0,0.0,0.0,0.0,0.0,0.0,0.0,0.0,0.0,-0.5282,-0.5004,-0.4104,-0.2294,-0.2468,-0.2424,-0.1967,-0.365,-0.492,-0.6029,-0.7335,-0.8038,-0.8038,-0.8038,-0.8038,-0.8038,-0.8038,0.0,0.0,-0.8038,-0.795,-0.7814,-0.7848,-0.7753,-0.7587,-0.7465,-0.74,-0.735,0.0,0.0,0.0,0.0,0.0,0.0,0.0,0.0,0.0,0.0,0.0,0.0,0.0,0.0,0.0,0.0,0.0,0.0,0.0,0.0,0.0,0.0,0.0,0.0,0.0,0.0,0.0,0.0,0.0,0.0,0.0,0.0,0.0,0.0,0.0,0.0,0.0,0.0,0.0,0.0,0.0,0.0,0.0,0.0,0.0,0.0,0.0,0.0,0.0,0.0,0.0,-0.8212,-0.8093,-0.8262,-0.853,-0.8557,0.0,0.0,-1.0008,-1.0076,-1.0022,-0.9857,-0.9163,-0.8301,-0.7534,0.0,0.0,-0.4209,-0.2606,-0.1281,-0.1208,-0.0553,0.0,0.0,0.0,-0.0427,0.0,0.0,0.0,0.0,0.0,0.0,0.0,0.0,0.0,0.0,0.0,0.0,0.0,-0.6593,-0.521,-0.2294,-0.3429,-0.3368,-0.1967,-0.4564,-0.5829,-0.6029,-0.7335,-0.8038,-0.8038,-0.8038,-0.8038,-0.8038,0.0,0.0,0.0,-0.8038,-0.795,-0.7824,-0.7963,-0.7848,-0.7597,-0.7584,-0.7492,-0.735,0.0,0.0,0.0,0.0,0.0,0.0,0.0,0.0,0.0,0.0,0.0,0.0,0.0,0.0,0.0,0.0,0.0,0.0,0.0,0.0,0.0,0.0,0.0,0.0,0.0,0.0,0.0,0.0,0.0,0.0,0.0,0.0,0.0,0.0,0.0,0.0,0.0,0.0,0.0,0.0,0.0,0.0,0.0,0.0,0.0,0.0,0.0,0.0,0.0,0.0,0.0,0.0,-0.7719,-0.771,0.0,0.0,-0.8615,-0.9289,-0.968,-1.0758,-1.1458,-1.0214,-1.0037,-0.9742,-0.7973,0.0,-0.5499,-0.4406,-0.3549,-0.2744,-0.2209,-0.1827,-0.1594,-0.1599,0.0,0.0,0.0,0.0,0.0,0.0,0.0,0.0,0.0,0.0,0.0,0.0,0.0,0.0,0.0,-0.8063,-0.698,-0.4826,-0.4425,-0.3829,-0.3252,-0.4234,-0.5222,-0.6029,-0.7335,-0.8038,-0.8038,-0.8038,-0.8038,-0.8038,0.0,0.0,0.0,-0.8038,-0.8004,-0.7957,-0.8014,-0.7967,-0.7851,-0.776,-0.7634,-0.7489,0.0,0.0,0.0,0.0,0.0,0.0,0.0,0.0,0.0,0.0,0.0,0.0,0.0,0.0,0.0,0.0,0.0,0.0,0.0,0.0,0.0,0.0,0.0,0.0,0.0,0.0,0.0,0.0,0.0,0.0,0.0,0.0,0.0,0.0,0.0,0.0,0.0,0.0,0.0,0.0,0.0,0.0,0.0,0.0,0.0,0.0,0.0,0.0,0.0,0.0,0.0,0.0,0.0,0.0,0.0,0.0,-0.8048,-0.8771,-0.9222,-1.0421,-1.1269,-0.9902,-0.9909,-0.9685,0.0,0.0,-0.5924,-0.4818,-0.43,-0.3813,-0.3211,-0.2878,-0.2703,-0.2709,0.0,-0.3031,0.0,0.0,0.0,0.0,0.0,0.0,0.0,0.0,0.0,0.0,0.0,0.0,0.0,-0.8804,-0.7949,-0.6577,-0.5417,-0.4602,-0.4017,-0.4418,-0.5022,-0.6029,-0.7335,-0.8038,-0.8038,-0.8038,-0.8038,-0.8038,0.0,0.0,0.0,-0.8038,-0.8038,-0.8038,-0.8038,-0.8038,-0.8018,-0.7821,-0.7685,-0.757,0.0,0.0,0.0,0.0,0.0,0.0,0.0,0.0,0.0,0.0,0.0,0.0,0.0,0.0,0.0,0.0,0.0,0.0,0.0,0.0,0.0,0.0,0.0,0.0,0.0,0.0,0.0,0.0,0.0,0.0,0.0,0.0,0.0,0.0,0.0,0.0,0.0,0.0,0.0,0.0,0.0,0.0,0.0,0.0,0.0,0.0,0.0,0.0,0.0,0.0,0.0,0.0,0.0,0.0,0.0,0.0,-0.7346,-0.8147,-0.8598,-0.8835,-0.8984,-0.9123,-0.8486,-0.7702,0.0,-0.6566,-0.5949,-0.565,-0.4713,-0.4015,-0.4015,-0.328,-0.2703,-0.2709,-0.2782,0.0,0.0,0.0,0.0,0.0,0.0,0.0,0.0,0.0,0.0,0.0,0.0,0.0,0.0,-0.8652,-0.7846,-0.6574,-0.6355,-0.5521,-0.4017,-0.5322,-0.6029,-0.6029,-0.7335,-0.8038,-0.8038,-0.8038,-0.8038,0.0,0.0,0.0,0.0,-0.8038,-0.8038,-0.8038,-0.8038,-0.8038,-0.8004,-0.7709,-0.76,-0.7556,0.0,0.0,0.0,0.0,0.0,0.0,0.0,0.0,0.0,0.0,0.0,0.0,0.0,0.0,0.0,0.0,0.0,0.0,0.0,0.0,0.0,0.0,0.0,0.0,0.0,0.0,0.0,0.0,0.0,0.0,0.0,0.0,0.0,0.0,0.0,0.0,0.0,0.0,0.0,0.0,0.0,0.0,0.0,0.0,0.0,0.0,0.0,0.0,0.0,0.0,0.0,0.0,0.0,0.0,0.0,-0.7005,0.0,0.0,-0.7573,-0.8668,-0.9518,-0.8266,-0.8313,-0.8321,-0.6862,-0.6118,-0.5674,-0.5474,-0.5271,-0.507,-0.4973,-0.483,-0.4726,-0.4779,-0.4904,0.0,0.0,0.0,0.0,0.0,0.0,0.0,0.0,0.0,0.0,0.0,0.0,0.0,0.0,-0.8499,-0.813,-0.7711,-0.6653,-0.6263,-0.6728,-0.6229,-0.6431,-0.7335,-0.7839,-0.8038,-0.8038,-0.8038,0.0,0.0,0.0,0.0,0.0,-0.7926,-0.7882,-0.7875,-0.7777,-0.774,-0.7729,-0.7634,-0.7533,-0.7431,0.0,0.0,0.0,0.0,0.0,0.0,0.0,0.0,0.0,0.0,0.0,0.0,0.0,0.0,0.0,0.0,0.0,0.0,0.0,0.0,0.0,0.0,0.0,0.0,0.0,0.0,0.0,0.0,0.0,0.0,0.0,0.0,0.0,0.0,0.0,0.0,0.0,0.0,0.0,0.0,0.0,0.0,-1.156,0.0,0.0,0.0,0.0,0.0,0.0,0.0,0.0,0.0,0.0,0.0,0.0,0.0,-0.7381,-0.7278,0.0,-0.8352,-0.9494,-0.7952,-0.8317,0.0,0.0,-0.6323,-0.5949,-0.5526,-0.5437,-0.5474,-0.5446,-0.544,-0.5532,-0.5623,-0.581,0.0,0.0,0.0,0.0,0.0,0.0,0.0,0.0,0.0,0.0,0.0,0.0,0.0,0.0,0.0,-0.8245,-0.8184,-0.7278,-0.7132,-0.8038,-0.7132,-0.7132,-0.8038,-0.8038,-0.8038,-0.8038,-0.8038,0.0,0.0,0.0,0.0,0.0,-0.777,-0.7733,-0.7723,-0.7634,-0.76,-0.7594,-0.7536,-0.7455,-0.7363,0.0,0.0,0.0,0.0,0.0,0.0,0.0,0.0,0.0,0.0,0.0,0.0,0.0,0.0,0.0,0.0,0.0,0.0,0.0,0.0,0.0,0.0,0.0,0.0,0.0,0.0,0.0,0.0,-1.2869,-1.2756,-1.229,0.0,0.0,0.0,0.0,0.0,0.0,0.0,0.0,0.0,0.0,0.0,0.0,0.0,0.0,0.0,0.0,0.0,0.0,0.0,0.0,0.0,0.0,0.0,0.0,0.0,0.0,0.0,0.0,-0.7848,0.0,0.0,0.0,0.0,-0.7254,-0.69,0.0,-0.5652,-0.5435,-0.5449,-0.5459,-0.5452,-0.5459,-0.55,-0.5664,0.0,0.0,0.0,0.0,0.0,0.0,0.0,0.0,0.0,0.0,0.0,0.0,0.0,0.0,0.0,-0.8187,-0.8045,-0.8038,-0.8038,-0.8038,-0.8038,-0.8038,-0.8038,-0.8038,-0.8038,-0.8038,-0.8038,0.0,0.0,0.0,0.0,0.0,-0.7587,-0.7584,-0.7584,-0.757,-0.7567,-0.755,-0.7407,-0.7356,-0.7333,0.0,0.0,0.0,0.0,0.0,0.0,0.0,0.0,0.0,0.0,0.0,0.0,0.0,0.0,0.0,0.0,0.0,0.0,0.0,0.0,0.0,0.0,0.0,0.0,0.0,0.0,0.0,-1.235,-1.3706,-1.41,-1.3699,-1.4946,0.0,0.0,0.0,0.0,0.0,0.0,0.0,0.0,0.0,0.0,0.0,0.0,0.0,0.0,-1.2234,-1.2202,0.0,0.0,0.0,0.0,0.0,0.0,0.0,0.0,-0.8986,-0.8821,-0.7889,0.0,-0.8362,-0.8058,-0.8079,-0.811,0.0,-0.7215,-0.6709,-0.647,-0.5918,-0.5569,-0.5677,-0.561,-0.5684,-0.6139,-0.6176,0.0,0.0,0.0,0.0,0.0,0.0,0.0,0.0,0.0,0.0,0.0,0.0,0.0,0.0,0.0,-0.8075,-0.8041,-0.8038,-0.8038,-0.8038,-0.8038,-0.8038,-0.8038,-0.8038,-0.8038,-0.8038,-0.8038,0.0,0.0,0.0,0.0,-0.759,-0.7472,-0.7424,-0.7414,-0.7295,-0.7248,-0.7244,-0.7207,-0.7193,-0.719,0.0,0.0,0.0,0.0,0.0,0.0,0.0,0.0,0.0,0.0,0.0,0.0,0.0,0.0,0.0,0.0,0.0,0.0,0.0,0.0,0.0,0.0,0.0,0.0,0.0,0.0,0.0,0.0,0.0,-1.4676,0.0,0.0,0.0,0.0,0.0,0.0,0.0,0.0,0.0,0.0,-1.2881,0.0,0.0,0.0,0.0,0.0,-1.2626,-1.267,0.0,-1.1768,-1.1455,-1.1337,0.0,0.0,0.0,0.0,-0.9475,-0.9352,-0.891,-0.9139,-0.9314,-0.8738,-0.902,-0.9267,-0.8705,-0.8226,-0.7632,0.0,0.0,0.0,0.0,0.0,0.0,0.0,0.0,0.0,0.0,0.0,0.0,0.0,0.0,0.0,0.0,0.0,0.0,0.0,0.0,0.0,0.0,0.0,-0.8038,-0.8038,-0.8038,-0.8038,-0.8038,-0.8038,-0.8038,-0.8038,-0.8038,-0.8004,-0.7933,-0.7933,0.0,0.0,0.0,0.0,-0.7383,-0.7299,-0.7265,-0.7258,-0.7173,-0.7139,-0.7139,-0.7139,-0.7139,-0.7139,0.0,0.0,0.0,0.0,0.0,0.0,0.0,0.0,0.0,0.0,0.0,0.0,0.0,0.0,0.0,0.0,0.0,0.0,0.0,0.0,0.0,0.0,0.0,0.0,0.0,0.0,0.0,0.0,0.0,0.0,0.0,0.0,0.0,0.0,0.0,0.0,0.0,0.0,0.0,0.0,-1.2881,0.0,0.0,0.0,0.0,0.0,0.0,0.0,0.0,-1.251,-1.2068,-1.1646,-1.088,0.0,0.0,0.0,0.0,0.0,-0.974,-1.0361,-1.0778,-0.967,-1.0218,-1.0719,-0.9719,0.0,0.0,0.0,0.0,0.0,0.0,0.0,0.0,0.0,0.0,0.0,0.0,0.0,0.0,0.0,0.0,0.0,0.0,0.0,0.0,0.0,0.0,0.0,0.0,0.0,0.0,-0.8038,-0.8038,-0.8038,-0.8038,-0.8038,-0.8038,-0.8038,-0.8018,-0.7936,-0.7811,-0.7787,-0.7631,0.0,0.0,0.0,-0.7139,-0.7139,-0.7139,-0.7139,-0.7139,-0.7139,-0.7139,-0.7139,-0.7139,-0.7143,0.0,0.0,0.0,0.0,0.0,0.0,0.0,0.0,0.0,0.0,0.0,0.0,0.0,0.0,0.0,0.0,0.0,0.0,0.0,0.0,0.0,0.0,0.0,0.0,0.0,0.0,0.0,0.0,0.0,0.0,-1.5537,-1.6953,-1.6826,0.0,0.0,0.0,0.0,-1.2881,-1.2881,-1.2881,-1.2881,0.0,0.0,0.0,0.0,0.0,0.0,0.0,0.0,-1.2122,-1.1662,-1.1288,-1.06,0.0,0.0,0.0,0.0,0.0,-0.998,-1.0514,-1.0862,-1.0135,-1.0461,-1.0915,-1.05,-0.9849,0.0,0.0,0.0,0.0,0.0,0.0,0.0,0.0,0.0,0.0,0.0,0.0,0.0,0.0,0.0,0.0,0.0,0.0,0.0,0.0,0.0,0.0,0.0,0.0,0.0,-0.8038,-0.8038,-0.8038,-0.8038,-0.8038,-0.8038,-0.8038,-0.7909,-0.7834,-0.7807,-0.7685,-0.7536,0.0,0.0,-0.7285,-0.7139,-0.7139,-0.7139,-0.7139,-0.7139,-0.7139,-0.7139,-0.7139,-0.7139,-0.716,0.0,0.0,0.0,0.0,0.0,0.0,0.0,0.0,0.0,0.0,0.0,0.0,0.0,0.0,0.0,0.0,0.0,0.0,0.0,0.0,0.0,0.0,0.0,0.0,0.0,0.0,0.0,0.0,0.0,-1.5781,-1.6484,-1.6807,-1.6152,-1.4687,0.0,0.0,0.0,-1.2881,-1.2881,-1.2881,0.0,0.0,0.0,0.0,0.0,0.0,0.0,0.0,0.0,0.0,-1.2009,-1.1473,-1.0757,0.0,0.0,0.0,0.0,0.0,-0.9372,-0.984,-1.0261,-1.0147,-1.0795,-1.139,-1.1096,-1.0691,0.0,0.0,0.0,0.0,0.0,0.0,0.0,0.0,0.0,0.0,0.0,0.0,0.0,0.0,0.0,0.0,0.0,0.0,0.0,0.0,0.0,0.0,0.0,0.0,0.0,0.0,-0.7841,-0.7801,-0.7801,-0.7801,-0.7882,-0.8038,-0.7967,-0.7851,-0.7695,-0.7631,-0.7472,-0.7248,0.0,-0.7207,-0.7139,-0.7139,-0.7139,-0.7139,-0.7139,-0.7092,-0.7024,-0.7024,-0.7075,-0.7149,0.0,0.0,0.0,0.0,0.0,0.0,0.0,0.0,0.0,0.0,0.0,0.0,0.0,0.0,0.0,0.0,0.0,0.0,0.0,0.0,0.0,0.0,0.0,0.0,0.0,0.0,0.0,-1.6277,-1.569,-1.6035,-1.7217,-1.6318,-1.5332,0.0,0.0,0.0,0.0,-1.2881,-1.2881,-1.2881,0.0,0.0,0.0,0.0,0.0,0.0,0.0,0.0,0.0,0.0,0.0,0.0,0.0,0.0,0.0,-0.9211,-0.9159,-0.9278,-0.9355,-0.977,-1.0184,-1.0244,0.0,-1.149,-1.1603,-1.1523,0.0,0.0,0.0,0.0,0.0,0.0,0.0,0.0,0.0,0.0,0.0,0.0,0.0,0.0,0.0,0.0,0.0,0.0,0.0,0.0,0.0,0.0,0.0,0.0,0.0,0.0,-0.7655,-0.76,-0.76,-0.76,-0.7729,-0.7984,-0.7916,-0.7784,-0.7597,-0.7526,-0.7346,-0.7092,-0.7092,-0.7092,-0.7088,-0.7051,-0.7078,-0.7132,-0.7065,-0.6993,-0.6929,-0.6929,-0.7017,-0.7139,0.0,0.0,0.0,0.0,0.0,0.0,0.0,0.0,0.0,0.0,0.0,0.0,0.0,0.0,0.0,0.0,0.0,0.0,0.0,0.0,0.0,0.0,0.0,0.0,0.0,-1.5684,-1.5304,-1.5381,-1.5395,-1.5879,-1.6758,-1.5869,-1.5205,-1.4697,0.0,0.0,0.0,-1.2881,-1.2881,-1.2881,-1.2881,0.0,0.0,0.0,0.0,0.0,0.0,0.0,0.0,0.0,0.0,0.0,0.0,0.0,-1.0618,-0.9917,-1.0167,-1.0734,-1.1023,-1.1333,-1.1407,-1.0823,-1.0436,0.0,-1.1937,-1.1817,0.0,-1.2775,0.0,0.0,0.0,0.0,0.0,0.0,0.0,0.0,0.0,0.0,0.0,0.0,0.0,0.0,0.0,0.0,0.0,0.0,0.0,0.0,0.0,0.0,0.0,0.0,0.0,-0.76,-0.76,-0.76,-0.7678,-0.7824,-0.755,-0.7482,-0.759,-0.7302,-0.7088,-0.6946,-0.6946,-0.6946,-0.6932,-0.679,-0.6895,-0.7112,-0.6841,-0.6814,-0.6929,-0.6929,-0.7017,-0.7139,0.0,0.0,0.0,0.0,0.0,0.0,0.0,0.0,0.0,0.0,0.0,0.0,0.0,0.0,0.0,0.0,0.0,0.0,0.0,0.0,0.0,0.0,0.0,-1.6337,-1.5964,-1.5533,-1.557,-1.6129,-1.5924,-1.5986,-1.6289,-1.5156,0.0,0.0,0.0,0.0,0.0,-1.2881,-1.2881,-1.2881,-1.2881,-1.2881,0.0,0.0,0.0,0.0,0.0,0.0,0.0,0.0,-1.2715,-1.2344,0.0,-1.1416,-1.1316,-1.0618,-1.0618,-1.0846,-1.0935,-1.1465,-1.1913,-1.1807,-1.1791,0.0,0.0,-1.2144,-1.2432,-1.308,-1.3159,0.0,0.0,0.0,0.0,0.0,0.0,0.0,0.0,0.0,0.0,0.0,0.0,0.0,0.0,0.0,0.0,0.0,0.0,0.0,0.0,0.0,0.0,0.0,0.0,-0.7312,-0.7312,-0.7312,-0.739,-0.7536,-0.7519,-0.7495,-0.7451,-0.7238,-0.7061,-0.6929,-0.6929,-0.6875,-0.679,-0.6827,-0.6909,-0.699,-0.678,-0.6736,-0.6776,-0.6678,-0.68,-0.7007,0.0,0.0,0.0,0.0,0.0,0.0,0.0,0.0,0.0,0.0,0.0,0.0,0.0,0.0,0.0,0.0,0.0,0.0,0.0,0.0,0.0,0.0,0.0,-1.6008,-1.5632,-1.5105,-1.5203,-1.5897,-1.5634,-1.5459,-1.5439,0.0,0.0,0.0,0.0,0.0,0.0,0.0,-1.36,-1.3478,-1.3478,-1.3478,0.0,0.0,0.0,0.0,0.0,0.0,0.0,0.0,0.0,0.0,0.0,0.0,0.0,0.0,-1.1275,-1.1484,-1.1484,-1.1965,-1.256,-1.2615,0.0,0.0,-1.3316,-1.3534,-1.3865,-1.4295,0.0,0.0,0.0,0.0,0.0,0.0,0.0,0.0,0.0,0.0,0.0,0.0,0.0,0.0,0.0,0.0,0.0,0.0,0.0,0.0,0.0,0.0,0.0,0.0,0.0,-0.7095,-0.7139,-0.7095,-0.7126,-0.7231,-0.7288,-0.7336,-0.7366,-0.721,-0.7037,-0.6858,-0.6858,-0.677,-0.6634,-0.6695,-0.6719,-0.6712,-0.6651,-0.6627,-0.6617,-0.6512,-0.6634,-0.6858,0.0,0.0,0.0,0.0,0.0,0.0,0.0,0.0,0.0,0.0,0.0,0.0,0.0,0.0,0.0,0.0,0.0,0.0,0.0,0.0,0.0,0.0,0.0,-1.5588,-1.5588,-1.4411,-1.3999,-1.4401,-1.421,-1.4077,-1.4077,0.0,0.0,0.0,0.0,0.0,0.0,0.0,-1.5193,-1.4698,-1.4698,-1.4698,-1.4652,0.0,0.0,0.0,0.0,0.0,0.0,0.0,-1.2881,0.0,0.0,0.0,0.0,0.0,-1.2344,-1.2929,-1.2881,-1.3193,-1.3449,0.0,0.0,0.0,-1.6184,-1.6096,-1.6005,-1.6838,0.0,0.0,0.0,0.0,0.0,0.0,0.0,0.0,0.0,0.0,0.0,0.0,0.0,0.0,0.0,0.0,0.0,0.0,0.0,0.0,0.0,0.0,0.0,0.0,0.0,0.0,-0.7136,-0.6997,-0.6929,-0.6926,-0.6773,-0.6932,-0.736,-0.7204,-0.6973,-0.6698,-0.6698,-0.661,-0.6461,-0.6322,-0.6264,-0.6274,-0.6417,-0.6471,-0.6471,-0.6471,-0.6566,-0.6698,0.0,0.0,0.0,0.0,0.0,0.0,0.0,0.0,0.0,0.0,0.0,0.0,0.0,0.0,0.0,0.0,0.0,0.0,0.0,0.0,0.0,0.0,0.0,0.0,0.0,0.0,-1.3361,-1.3791,-1.3726,-1.3848,0.0,0.0,0.0,-1.4316,0.0,0.0,0.0,0.0,0.0,-1.4698,-1.4698,-1.4698,-1.4698,0.0,0.0,0.0,0.0,0.0,0.0,0.0,0.0,0.0,0.0,0.0,0.0,-1.2704,-1.3244,-1.3807,-1.3096,-1.3751,0.0,-1.4675,0.0,0.0,0.0,-1.7397,0.0,0.0,0.0,0.0,0.0,0.0,0.0,0.0,0.0,0.0,0.0,0.0,0.0,0.0,0.0,0.0,0.0,0.0,0.0,0.0,0.0,0.0,0.0,0.0,0.0,0.0,0.0,0.0,-0.6831,-0.6895,-0.6875,-0.6766,-0.6722,-0.677,-0.6895,-0.6739,-0.6624,-0.6539,-0.6539,-0.6458,-0.6329,-0.6386,-0.6349,-0.6274,-0.6417,-0.641,-0.6325,-0.6325,-0.6417,-0.6539,0.0,0.0,0.0,0.0,0.0,0.0,0.0,0.0,0.0,0.0,0.0,0.0,0.0,0.0,0.0,0.0,0.0,0.0,0.0,0.0,0.0,0.0,0.0,0.0,0.0,-1.3978,-1.3745,0.0,0.0,0.0,0.0,0.0,0.0,-1.4639,0.0,-1.5836,0.0,0.0,0.0,-1.5433,-1.5433,-1.5433,-1.5377,0.0,0.0,0.0,0.0,0.0,0.0,0.0,0.0,0.0,0.0,0.0,0.0,-1.3319,-1.3834,-1.4446,-1.4045,-1.4603,0.0,-1.6184,-1.7096,-1.8232,-1.96,0.0,0.0,0.0,0.0,0.0,0.0,0.0,0.0,0.0,0.0,0.0,0.0,0.0,0.0,0.0,0.0,0.0,0.0,0.0,0.0,0.0,0.0,0.0,0.0,0.0,0.0,0.0,0.0,0.0,-0.727,-0.7303,-0.7109,-0.661,-0.6552,-0.6525,-0.6525,-0.6552,-0.6529,-0.6468,-0.6413,-0.6339,-0.6268,-0.6352,-0.6339,-0.6271,-0.6356,-0.6335,-0.6338,-0.6338,-0.6315,-0.6386,0.0,0.0,0.0,0.0,0.0,0.0,0.0,0.0,0.0,0.0,0.0,0.0,0.0,0.0,0.0,0.0,0.0,0.0,0.0,0.0,0.0,0.0,0.0,0.0,0.0,0.0,0.0,0.0,0.0,0.0,0.0,0.0,-1.4725,-1.5631,0.0,-1.7286,0.0,0.0,0.0,-1.6522,-1.6522,-1.6522,-1.6423,-1.5908,0.0,0.0,0.0,0.0,0.0,0.0,0.0,0.0,0.0,-1.345,-1.3915,-1.3884,-1.4362,-1.4912,-1.5362,0.0,0.0,-1.7609,-1.8471,0.0,0.0,0.0,0.0,0.0,0.0,0.0,0.0,0.0,0.0,0.0,0.0,0.0,0.0,0.0,0.0,0.0,0.0,0.0,0.0,0.0,0.0,0.0,0.0,0.0,0.0,0.0,0.0,0.0,0.0,0.0,-0.8277,-0.8108,-0.7553,0.0,-0.6386,-0.6247,-0.6271,-0.6539,-0.6583,-0.6444,-0.6318,-0.6338,-0.6338,-0.6338,-0.6338,-0.6338,-0.6338,-0.6338,-0.6338,-0.6338,-0.6338,-0.6338,0.0,0.0,0.0,0.0,0.0,0.0,0.0,0.0,0.0,0.0,0.0,0.0,0.0,0.0,0.0,0.0,0.0,0.0,0.0,0.0,0.0,0.0,0.0,0.0,0.0,0.0,0.0,0.0,0.0,0.0,0.0,0.0,0.0,-1.6688,0.0,-1.7494,0.0,0.0,0.0,-1.6522,-1.6522,-1.6522,-1.6479,-1.638,-1.6008,0.0,0.0,0.0,0.0,0.0,0.0,0.0,-1.434,-1.4639,-1.4906,-1.4578,-1.5164,-1.5893,-1.5606,-1.6218,0.0,0.0,-2.0653,0.0,0.0,0.0,0.0,0.0,0.0,0.0,0.0,0.0,0.0,0.0,0.0,0.0,0.0,0.0,0.0,0.0,0.0,0.0,0.0,0.0,0.0,0.0,0.0,0.0,0.0,0.0,0.0,0.0,0.0,-0.932,-0.9058,-0.8245,-0.7765,0.0,-0.6525,-0.6142,-0.6342,-0.6325,-0.6339,-0.6305,-0.6274,-0.6338,-0.6338,-0.6338,-0.6338,-0.6338,-0.6338,-0.6338,-0.6338,-0.6338,-0.6338,-0.6338,0.0,0.0,0.0,0.0,0.0,0.0,0.0,0.0,0.0,0.0,0.0,0.0,0.0,0.0,0.0,0.0,0.0,0.0,0.0,0.0,0.0,0.0,0.0,0.0,0.0,0.0,0.0,0.0,0.0,0.0,0.0,0.0,0.0,-1.7306,0.0,-1.7594,0.0,0.0,0.0,-1.6522,-1.6522,-1.6522,-1.6522,-1.6522,-1.6281,-1.6051,-1.6051,0.0,0.0,0.0,0.0,0.0,0.0,0.0,-1.5383,-1.5176,-1.5712,-1.6417,-1.6429,0.0,0.0,-1.9997,0.0,0.0,0.0,0.0,0.0,0.0,0.0,0.0,0.0,0.0,0.0,0.0,0.0,0.0,0.0,0.0,0.0,0.0,0.0,0.0,0.0,0.0,0.0,0.0,0.0,0.0,0.0,0.0,0.0,0.0,-0.998,-1.0115,-0.9628,-0.9041,-0.8387,-0.7438,-0.683,-0.6327,-0.6044,-0.6193,-0.6338,-0.6257,-0.6183,-0.6149,-0.6146,-0.6071,-0.6084,-0.6142,-0.6071,-0.6132,-0.6244,-0.6095,-0.6132,-0.6251,0.0,0.0,0.0,0.0,0.0,0.0,0.0,0.0,0.0,0.0,0.0,0.0,0.0,0.0,0.0,0.0,0.0,0.0,0.0,0.0,0.0,0.0,0.0,0.0,0.0,0.0,0.0,0.0,0.0,0.0,0.0,0.0,0.0,-1.7993,0.0,0.0,0.0,0.0,0.0,-1.6795,-1.6795,-1.6795,-1.6795,-1.6795,-1.671,-1.6693,-1.6854,-1.6756,-1.6436,-1.6181,0.0,0.0,0.0,0.0,-1.5776,-1.5776,-1.6095,-1.6647,-1.7225,0.0,-1.8677,-2.0653,0.0,0.0,0.0,0.0,0.0,0.0,0.0,0.0,0.0,0.0,0.0,0.0,0.0,0.0,0.0,0.0,0.0,0.0,0.0,0.0,0.0,0.0,0.0,0.0,0.0,0.0,0.0,0.0,-1.0898,-0.9928,-1.0863,-1.1005,-1.0158,-0.9973,-0.9002,-0.7362,-0.7007,-0.6512,-0.581,-0.6064,-0.6183,-0.6173,-0.6047,-0.5989,-0.5979,-0.5854,-0.5874,-0.5976,-0.585,-0.5956,-0.6152,-0.5895,-0.5962,-0.6162,0.0,0.0,0.0,0.0,0.0,0.0,0.0,0.0,0.0,0.0,0.0,0.0,0.0,0.0,0.0,0.0,0.0,0.0,-1.7422,0.0,0.0,-1.6522,0.0,0.0,0.0,0.0,0.0,0.0,0.0,0.0,0.0,0.0,0.0,-1.9503,0.0,0.0,0.0,0.0,0.0,0.0,0.0,-1.7907,-1.7907,-1.7907,-1.7585,-1.7337,-1.837,-1.7776,-1.667,-1.7622,-1.7252,0.0,0.0,0.0,-1.638,-1.638,-1.6423,-1.6647,0.0,0.0,-2.0372,0.0,0.0,0.0,0.0,0.0,0.0,0.0,0.0,0.0,0.0,0.0,0.0,0.0,0.0,0.0,0.0,0.0,0.0,0.0,0.0,0.0,0.0,0.0,0.0,0.0,0.0,0.0,0.0,-1.0684,-1.0969,-1.0863,-1.1208,-1.1354,-1.1211,-1.0221,-0.9264,-0.8348,-0.6722,-0.5943,-0.5803,-0.5844,-0.5864,-0.5861,-0.584,-0.583,-0.583,-0.581,-0.5813,-0.583,-0.581,-0.5827,-0.5857,-0.5817,-0.5827,-0.5861,0.0,0.0,0.0,0.0,0.0,0.0,0.0,0.0,0.0,0.0,0.0,0.0,0.0,0.0,0.0,-1.8991,-1.8419,-1.7747,-1.6909,-1.6637,-1.6522,-1.6522,-1.6522,0.0,0.0,0.0,0.0,0.0,0.0,0.0,0.0,-2.0048,-2.0738,0.0,0.0,0.0,0.0,0.0,0.0,0.0,0.0,0.0,0.0,0.0,-1.7947,-1.7814,-1.8356,-1.8045,-1.7462,-1.8004,-1.7841,-1.7394,-1.7394,0.0,0.0,0.0,-1.7394,0.0,-1.7761,-1.8576,-1.9445,0.0,0.0,0.0,0.0,0.0,0.0,0.0,0.0,0.0,0.0,0.0,0.0,0.0,0.0,0.0,0.0,0.0,0.0,0.0,0.0,0.0,0.0,0.0,0.0,0.0,0.0,0.0,-0.9873,-1.012,-1.0261,-1.0261,-1.0388,-1.0448,-1.0448,-0.9562,-0.8485,-0.7237,-0.5977,-0.5382,-0.5311,-0.5477,-0.5644,-0.5796,-0.5718,-0.5684,-0.5677,-0.5589,-0.5606,-0.5674,-0.5589,-0.5654,-0.5783,-0.5616,-0.5657,-0.5789,0.0,0.0,0.0,0.0,0.0,0.0,0.0,0.0,0.0,0.0,0.0,0.0,0.0,0.0,0.0,0.0,-1.8341,-1.7626,-1.6552,-1.6522,-1.6522,-1.6522,-1.6522,-1.6552,0.0,0.0,0.0,0.0,0.0,0.0,-2.0426,-2.1088,-2.2373,0.0,-2.2893,0.0,0.0,0.0,0.0,0.0,0.0,0.0,0.0,0.0,0.0,0.0,-1.8641,-1.8481,-1.8159,-1.8444,-1.8349,-1.8106,-1.8106,-1.8106,0.0,0.0,0.0,0.0,0.0,0.0,0.0,0.0,0.0,0.0,0.0,0.0,0.0,0.0,0.0,0.0,0.0,0.0,0.0,0.0,0.0,0.0,0.0,0.0,0.0,0.0,0.0,0.0,0.0,0.0,0.0,0.0,0.0,0.0,-0.9852,-0.9755,-0.9686,-0.9686,-0.9686,-0.9686,-0.9686,-0.8727,-0.7591,-0.6164,-0.5388,-0.502,-0.4925,-0.5148,-0.5369,-0.5576,-0.5545,-0.5532,-0.5521,-0.541,-0.543,-0.5521,-0.5473,-0.5494,-0.5664,-0.5443,-0.5501,-0.5674,0.0,0.0,0.0,0.0,0.0,0.0,0.0,0.0,0.0,0.0,0.0,0.0,-2.0449,-2.0314,-1.9728,-1.8288,-1.8145,-1.7626,-1.6552,-1.6522,-1.6522,-1.6522,-1.6522,0.0,-1.7229,0.0,0.0,0.0,0.0,0.0,-2.1816,-2.2347,-2.3664,-2.5429,-2.4189,-2.2864,-2.1672,0.0,0.0,0.0,0.0,0.0,0.0,0.0,0.0,0.0,0.0,0.0,-1.8268,-1.9415,-1.9044,-1.8106,-1.8106,-1.8106,-1.8106,0.0,0.0,0.0,0.0,0.0,0.0,0.0,0.0,0.0,0.0,0.0,0.0,0.0,0.0,0.0,0.0,0.0,0.0,0.0,0.0,0.0,0.0,0.0,0.0,0.0,0.0,0.0,0.0,0.0,0.0,0.0,0.0,0.0,-1.0228,-0.9917,-0.9686,-0.9686,-0.9686,-0.9686,-0.9686,-0.8128,-0.6992,-0.616,-0.5343,-0.4925,-0.4918,-0.4935,-0.4952,-0.4982,-0.5254,-0.5439,-0.5439,-0.5432,-0.5432,-0.5439,-0.5432,-0.5435,-0.5449,-0.5432,-0.5439,-0.5449,0.0,0.0,0.0,0.0,0.0,0.0,0.0,0.0,0.0,0.0,0.0,0.0,0.0,-2.007,-1.9558,-1.8688,-1.7987,-1.7435,-1.7034,-1.668,-1.6637,-1.6993,-1.6993,-1.7271,-1.7787,0.0,0.0,0.0,0.0,-1.9989,-2.178,-2.1611,-2.2322,-2.3729,-2.3659,-2.3157,-2.2285,-2.1436,0.0,0.0,0.0,0.0,0.0,0.0,0.0,0.0,0.0,0.0,0.0,-1.9759,-2.028,-2.0654,-1.9478,-1.9657,-2.0131,-1.9346,0.0,0.0,0.0,0.0,0.0,0.0,0.0,0.0,0.0,0.0,0.0,0.0,0.0,0.0,0.0,0.0,0.0,0.0,0.0,0.0,0.0,0.0,0.0,0.0,0.0,0.0,0.0,0.0,0.0,0.0,0.0,0.0,-0.994,-0.943,-0.9118,-0.9118,-0.9118,-0.8667,-0.7716,-0.7154,-0.6253,-0.5133,-0.4896,-0.4721,-0.4633,-0.483,-0.4863,-0.4782,-0.4989,-0.5077,-0.5091,-0.5284,-0.525,-0.5098,-0.5287,-0.5301,-0.5223,-0.5325,-0.5428,-0.5495,0.0,0.0,0.0,0.0,0.0,0.0,0.0,0.0,0.0,0.0,0.0,0.0,0.0,0.0,-1.9479,-1.8968,-1.7907,-1.7312,-1.7312,-1.6951,-1.6909,-1.7271,-1.7463,-1.7827,-1.838,0.0,0.0,0.0,0.0,0.0,0.0,-2.1123,-2.1491,-2.2724,-2.2652,-2.2532,0.0,0.0,0.0,-2.0004,0.0,0.0,-2.0324,0.0,0.0,0.0,0.0,0.0,0.0,0.0,0.0,0.0,0.0,0.0,0.0,0.0,0.0,0.0,-1.9169,0.0,0.0,0.0,0.0,0.0,0.0,0.0,0.0,0.0,0.0,0.0,0.0,0.0,0.0,0.0,0.0,0.0,0.0,0.0,0.0,0.0,0.0,0.0,0.0,0.0,0.0,0.0,0.0,0.0,-1.0115,-0.9263,-0.8804,-0.8804,-0.8804,-0.8103,-0.6588,-0.6588,-0.5882,-0.4519,-0.4565,-0.4562,-0.4525,-0.4674,-0.4711,-0.4623,-0.4775,-0.487,-0.4938,-0.5182,-0.5169,-0.5013,-0.5264,-0.5298,-0.522,-0.5712,-0.5815,-0.5947,0.0,0.0,0.0,0.0,0.0,0.0,0.0,0.0,0.0,0.0,0.0,0.0,0.0,0.0,0.0,-1.8968,-1.7961,-1.738,-1.738,-1.738,-1.738,-1.738,-1.7894,-1.8394,-1.8893,0.0,0.0,0.0,0.0,0.0,0.0,0.0,-2.138,0.0,-2.1261,-2.1036,-2.1629,0.0,-2.0677,-2.0617,0.0,-2.0426,-2.1553,0.0,0.0,0.0,-2.3128,-2.2694,0.0,0.0,0.0,0.0,0.0,0.0,0.0,0.0,0.0,0.0,0.0,0.0,0.0,0.0,0.0,0.0,0.0,0.0,0.0,0.0,0.0,0.0,0.0,0.0,0.0,0.0,0.0,0.0,0.0,0.0,0.0,0.0,0.0,0.0,0.0,0.0,0.0,0.0,0.0,-1.0115,-1.0762,-0.951,-0.8804,-0.8804,-0.8804,-0.8103,-0.6588,-0.6588,-0.5882,-0.4519,-0.4519,-0.4519,-0.4519,-0.4519,-0.4519,-0.4525,-0.4619,-0.4769,-0.4918,-0.5064,-0.5118,-0.5128,-0.5287,-0.5415,-0.5481,-0.6388,-0.6715,-0.685,0.0,0.0,0.0,0.0,0.0,0.0,0.0,0.0,0.0,0.0,0.0,0.0,0.0,-2.0615,-2.0154,-1.9523,-1.93,-1.9188,-1.9188,-1.881,-1.8769,-1.9148,-1.9322,-1.9421,-1.9493,0.0,0.0,0.0,0.0,0.0,0.0,0.0,0.0,0.0,-2.0363,-2.0231,-2.0676,-2.0492,0.0,0.0,-2.0577,-2.0824,0.0,0.0,0.0,0.0,0.0,-2.1775,-2.1935,0.0,-2.1859,-2.2802,0.0,0.0,0.0,0.0,0.0,0.0,-1.969,0.0,0.0,0.0,0.0,0.0,0.0,0.0,0.0,0.0,0.0,0.0,0.0,0.0,0.0,0.0,0.0,0.0,0.0,0.0,0.0,0.0,0.0,0.0,0.0,0.0,0.0,0.0,-1.1015,-1.0415,-1.0115,-0.9263,-0.8804,-0.8804,-0.8804,-0.8103,-0.6588,-0.6588,-0.5882,-0.4519,-0.4519,-0.4519,-0.4519,-0.4519,-0.4519,-0.4519,-0.4563,-0.4551,-0.4609,-0.487,-0.4847,-0.4674,-0.4938,-0.504,-0.5178,-0.6101,-0.6604,-0.6915,0.0,0.0,0.0,0.0,0.0,0.0,0.0,0.0,0.0,0.0,0.0,0.0,0.0,0.0,-2.0961,-2.0557,-2.0391,-2.0316,-2.0316,-2.0043,-2.0002,-2.0316,-2.0531,-2.0592,-2.0528,0.0,0.0,0.0,0.0,0.0,0.0,0.0,0.0,0.0,0.0,0.0,0.0,0.0,0.0,0.0,-2.0894,0.0,0.0,-2.207,-2.2312,0.0,0.0,0.0,-2.3309,-2.1997,-2.2236,0.0,0.0,0.0,0.0,0.0,0.0,0.0,0.0,0.0,0.0,0.0,0.0,0.0,0.0,-1.9442,0.0,0.0,0.0,0.0,0.0,0.0,0.0,0.0,0.0,0.0,0.0,0.0,0.0,0.0,0.0,0.0,0.0,0.0,0.0,0.0,-1.1375,-1.0364,-0.9413,-0.9008,-0.8804,-0.8804,-0.8804,-0.8103,-0.6588,-0.6588,-0.5882,-0.4519,-0.4519,-0.4519,-0.4519,-0.4519,-0.4519,-0.4519,-0.4519,-0.4519,-0.4532,-0.4657,-0.466,-0.4582,-0.4823,-0.51,-0.5468,-0.6411,-0.7125,-0.7746,0.0,0.0,0.0,0.0,0.0,0.0,0.0,0.0,0.0,0.0,0.0,0.0,0.0,0.0,0.0,-2.171,-2.1322,-2.1104,-2.1104,-2.1104,-2.1104,-2.1104,-2.1543,-2.1769,-2.1695,0.0,0.0,0.0,0.0,0.0,0.0,0.0,0.0,0.0,0.0,0.0,0.0,0.0,0.0,-2.1134,-2.1134,-2.1743,0.0,0.0,-2.3959,0.0,-2.4269,-2.4678,-2.4949,-2.297,-2.2282,0.0,0.0,0.0,0.0,0.0,-1.975,0.0,0.0,0.0,0.0,0.0,0.0,0.0,-1.969,-1.969,0.0,0.0,0.0,0.0,0.0,0.0,0.0,0.0,0.0,0.0,0.0,0.0,0.0,0.0,0.0,0.0,0.0,0.0,-1.3505,-1.2822,-1.1484,-1.0167,-0.8956,-0.8857,-0.8857,-0.891,-0.8857,-0.815,-0.6853,-0.6696,-0.5937,-0.4625,-0.4519,-0.4519,-0.4519,-0.4519,-0.4519,-0.4519,-0.457,-0.4625,-0.4625,-0.468,-0.4766,-0.4793,-0.4932,-0.5412,-0.6198,-0.7082,-0.7996,-0.8877,-2.231,0.0,0.0,0.0,0.0,0.0,0.0,0.0,0.0,0.0,0.0,0.0,0.0,0.0,0.0,0.0,-2.2092,-2.2349,-2.2349,-2.2349,-2.2349,-2.2349,-2.2446,-2.2233,-2.171,-2.1575,0.0,0.0,0.0,0.0,0.0,0.0,0.0,0.0,0.0,0.0,0.0,0.0,0.0,-2.2049,-2.2049,0.0,-2.2399,-2.255,-2.2647,-2.2733,-2.2733,-2.2835,-2.2885,0.0,-2.2032,-2.1727,0.0,0.0,0.0,0.0,0.0,0.0,0.0,0.0,0.0,0.0,0.0,0.0,-1.969,-1.969,-1.969,0.0,0.0,0.0,0.0,0.0,0.0,0.0,0.0,0.0,0.0,0.0,0.0,0.0,0.0,0.0,0.0,0.0,-1.3283,-1.212,-1.0771,-0.9865,-0.9614,-0.9106,-0.9061,-0.9562,-0.9061,-0.8626,-0.8317,-0.7165,-0.615,-0.5269,-0.4732,-0.4519,-0.4519,-0.4519,-0.4519,-0.4515,-0.5058,-0.5328,-0.5324,-0.5932,-0.5845,-0.5325,-0.5361,-0.5914,-0.686,-0.7722,-0.8224,-0.861,-2.231,0.0,0.0,0.0,0.0,0.0,0.0,0.0,0.0,0.0,0.0,0.0,0.0,0.0,0.0,0.0,0.0,0.0,0.0,-2.3409,-2.3451,-2.3173,-2.3131,-2.2981,-2.2652,-2.2233,-2.2002,0.0,0.0,0.0,0.0,0.0,0.0,0.0,0.0,0.0,0.0,0.0,-2.2077,-2.231,-2.231,0.0,-2.231,-2.231,-2.231,-2.231,-2.231,-2.231,-2.2412,-2.3139,-2.3005,0.0,0.0,-2.137,-2.1067,0.0,-1.9959,-1.969,0.0,0.0,0.0,-1.969,0.0,0.0,0.0,-1.969,-1.969,0.0,0.0,0.0,0.0,0.0,0.0,0.0,0.0,0.0,0.0,0.0,0.0,0.0,0.0,0.0,0.0,0.0,-1.3558,-1.1913,-1.1166,-1.0661,-1.0312,-0.9961,-0.9961,-1.0269,-0.9961,-0.9436,-0.8731,-0.8,-0.7106,-0.6036,-0.5714,-0.5555,-0.5555,-0.5555,-0.5555,-0.5555,-0.5928,-0.6036,-0.6091,-0.6421,-0.6583,-0.6573,-0.6199,-0.6534,-0.7356,-0.7807,-0.8305,-0.8871,-2.231,0.0,0.0,0.0,0.0,0.0,0.0,0.0,0.0,0.0,0.0,0.0,0.0,0.0,0.0,0.0,0.0,0.0,0.0,0.0,-2.3999,-2.3571,-2.3578,-2.3578,-2.3571,-2.2738,-2.2353,0.0,0.0,0.0,0.0,0.0,0.0,0.0,0.0,0.0,0.0,0.0,0.0,-2.231,0.0,-2.2395,-2.2513,-2.2361,-2.2395,-2.2496,-2.2361,-2.231,-2.2513,-2.3833,0.0,-2.3207,-2.1973,-2.189,0.0,0.0,0.0,0.0,0.0,0.0,0.0,0.0,0.0,-1.9854,0.0,0.0,0.0,-1.9818,0.0,0.0,0.0,0.0,0.0,0.0,0.0,0.0,0.0,0.0,0.0,0.0,0.0,0.0,0.0,0.0,-1.3747,-1.2175,-1.1893,-1.1626,-1.1208,-1.0965,-1.0864,-1.0965,-1.0864,-1.034,-0.9297,-0.8888,-0.8106,-0.7009,-0.6745,-0.6588,-0.6588,-0.6588,-0.6588,-0.6588,-0.675,-0.6804,-0.6804,-0.6966,-0.7396,-0.783,-0.7074,-0.7235,-0.7937,-0.7937,-0.8406,-0.9103,-2.231,-2.231,0.0,0.0,0.0,0.0,0.0,0.0,0.0,0.0,0.0,0.0,0.0,0.0,0.0,0.0,0.0,0.0,-2.6841,0.0,0.0,-2.3412,-2.3519,-2.3564,-2.3427,-2.2701,-2.2524,-2.2996,0.0,0.0,0.0,0.0,0.0,0.0,-2.24,0.0,0.0,0.0,-2.231,0.0,-2.231,-2.2699,0.0,-2.2564,-2.2716,-2.319,-2.2547,-2.231,-2.2446,0.0,-2.346,-2.3446,0.0,-2.3218,0.0,0.0,0.0,0.0,0.0,0.0,0.0,0.0,-2.0212,0.0,0.0,0.0,-2.0212,-2.0212,0.0,0.0,0.0,0.0,0.0,0.0,0.0,0.0,0.0,0.0,0.0,0.0,0.0,0.0,0.0,0.0,0.0,-1.2972,-1.2289,-1.2082,-1.2551,-1.1449,-1.1065,-1.1665,-1.1116,-1.1015,-1.1449,-0.96,-0.8626,-0.8475,-0.7219,-0.6588,-0.6588,-0.6588,-0.6588,-0.6642,-0.7289,-0.7557,-0.7616,-0.8262,-0.8586,-0.8586,-0.7883,-0.8049,-0.8699,-0.8699,-0.8718,-0.8858,-2.231,-2.231,0.0,0.0,0.0,0.0,0.0,0.0,0.0,0.0,0.0,0.0,0.0,0.0,0.0,0.0,0.0,-2.6541,0.0,0.0,0.0,0.0,-2.4735,-2.4719,-2.5069,-2.3781,-2.3211,-2.3468,-2.2477,0.0,0.0,0.0,0.0,0.0,-2.231,0.0,-2.2344,0.0,0.0,0.0,0.0,0.0,0.0,-2.275,-2.2496,-2.2733,-2.2412,-2.231,-2.2361,0.0,-2.3325,0.0,0.0,0.0,0.0,0.0,0.0,0.0,0.0,0.0,0.0,0.0,0.0,0.0,0.0,0.0,-2.0731,0.0,0.0,0.0,0.0,0.0,0.0,0.0,0.0,0.0,0.0,0.0,0.0,0.0,0.0,0.0,0.0,0.0,0.0,0.0,0.0,-1.2623,-1.2861,-1.2344,-1.2147,-1.2452,-1.2147,-1.194,-1.1814,-1.0939,-1.0273,-0.9931,-0.9304,-0.8842,-0.8442,-0.8442,-0.8237,-0.7883,-0.8209,-0.8321,-0.8374,-0.8699,-0.8804,-0.8752,-0.848,-0.8533,-0.8804,-0.8804,-0.8804,-0.8804,-2.2398,0.0,0.0,0.0,0.0,0.0,0.0,0.0,0.0,0.0,0.0,0.0,-2.8888,-2.8715,0.0,0.0,-2.9264,-2.8421,0.0,0.0,-2.6077,0.0,0.0,0.0,0.0,-2.455,-2.4083,-2.4232,0.0,0.0,0.0,0.0,0.0,0.0,0.0,-2.2496,-2.2344,0.0,0.0,-2.3105,-2.3105,-2.341,-2.3799,-2.2936,-2.2496,-2.231,-2.231,-2.231,-2.2344,-2.2547,-2.3308,0.0,-2.2609,0.0,0.0,0.0,0.0,0.0,-2.1664,0.0,0.0,0.0,0.0,0.0,0.0,0.0,0.0,0.0,0.0,0.0,0.0,0.0,0.0,0.0,0.0,0.0,0.0,0.0,0.0,0.0,0.0,0.0,0.0,0.0,0.0,0.0,-1.3281,-1.3242,-1.3179,-1.3178,-1.3152,-1.3152,-1.3152,-1.288,-1.2355,-1.215,-1.1756,-1.1065,-1.0864,-1.0466,-0.9814,-0.9814,-0.9413,-0.8804,-0.8804,-0.8804,-0.8804,-0.8804,-0.8804,-0.8804,-0.8804,-0.8804,-0.8804,-0.8804,-0.8804,-0.8804,-2.2695,-2.249,0.0,0.0,0.0,0.0,0.0,0.0,0.0,0.0,0.0,0.0,0.0,0.0,0.0,0.0,0.0,-3.0302,-3.0926,0.0,-2.6145,0.0,0.0,-2.5546,0.0,0.0,-2.5012,-2.5542,0.0,0.0,0.0,0.0,0.0,0.0,0.0,-2.297,-2.231,-2.2344,-2.2344,-2.2344,-2.2344,-2.2361,-2.2446,0.0,-2.2919,-2.231,-2.231,0.0,0.0,-2.3122,-2.3393,0.0,0.0,0.0,0.0,0.0,0.0,0.0,0.0,0.0,0.0,-2.1615,0.0,0.0,0.0,0.0,-2.1582,0.0,0.0,0.0,0.0,0.0,0.0,-1.9493,0.0,0.0,0.0,0.0,0.0,0.0,0.0,0.0,0.0,0.0,0.0,-1.4086,-1.3997,-1.3946,-1.3883,-1.3804,-1.3768,-1.3768,-1.3768,-1.3779,-1.3721,-1.3072,-1.2434,-1.1765,-1.1116,-1.0466,-0.9814,-0.9814,-0.9413,-0.8804,-0.8804,-0.8804,-0.8804,-0.8804,-0.8804,-0.8804,-0.8804,-0.8804,-0.8804,-0.8804,-0.8804,-0.8804,0.0,0.0,0.0,0.0,0.0,0.0,0.0,-2.7891,0.0,0.0,0.0,0.0,0.0,0.0,-3.5249,0.0,0.0,-3.2917,-3.2646,-3.0409,0.0,0.0,0.0,-2.7564,0.0,0.0,0.0,0.0,0.0,0.0,0.0,0.0,0.0,0.0,0.0,-2.3714,0.0,0.0,0.0,0.0,0.0,-2.3038,-2.3004,0.0,0.0,-2.231,-2.231,-2.231,0.0,-2.2598,-2.3004,-2.3329,-2.2912,-2.3072,-2.3232,-2.2415,-2.2145,0.0,0.0,0.0,-2.2178,-2.2664,0.0,0.0,0.0,0.0,0.0,0.0,0.0,0.0,0.0,0.0,0.0,-2.0087,0.0,0.0,0.0,0.0,0.0,0.0,0.0,0.0,0.0,0.0,0.0,-1.3468,-1.3415,-1.3552,0.0,-1.3861,-1.4047,-1.4365,-1.4376,-1.4376,-1.4376,-1.3758,-1.3331,-1.314,-1.2482,-1.1841,-1.1116,-1.1116,-1.0762,-1.0115,-1.0115,-1.0115,-1.0115,-1.0115,-1.0115,-1.0115,-1.0115,-0.9865,-0.9413,-0.8956,-0.8804,-0.8804,-2.5064,0.0,0.0,0.0,0.0,0.0,0.0,0.0,0.0,0.0,-3.36,0.0,-3.7482,0.0,-3.7784,0.0,-3.6671,-3.5173,-3.4165,-3.2326,0.0,-2.9753,-2.9499,0.0,0.0,0.0,0.0,0.0,0.0,-2.5541,0.0,0.0,0.0,0.0,0.0,0.0,0.0,0.0,-2.3663,0.0,0.0,-2.3004,0.0,0.0,-2.2462,-2.2665,0.0,-2.231,-2.231,-2.231,-2.2632,-2.2936,-2.2462,-2.2632,-2.2919,-2.2446,-2.231,-2.2412,-2.2885,-2.2665,0.0,-2.2885,-2.2649,0.0,-2.231,0.0,0.0,0.0,0.0,0.0,0.0,0.0,0.0,-2.0797,-2.0335,-1.9808,0.0,-1.8744,0.0,0.0,0.0,0.0,0.0,0.0,-1.4135,-1.3772,-1.3746,-1.3883,0.0,0.0,-1.4673,-1.5005,-1.5017,-1.5017,-1.5017,-1.4411,-1.4003,-1.3779,-1.32,-1.2501,-1.1814,-1.1814,-1.1408,-1.0813,-1.0813,-1.0813,-1.0813,-1.0813,-1.0813,-1.0813,-1.0813,-1.0517,-1.0064,-0.9413,-0.9159,-0.9211,0.0,0.0,0.0,0.0,-2.6504,0.0,0.0,0.0,-3.3033,0.0,-3.5402,-3.7023,-3.859,-3.9349,-3.9718,-3.9682,-3.8432,0.0,-3.56,-3.4189,0.0,0.0,-2.9803,-2.8755,-2.5759,0.0,0.0,0.0,0.0,0.0,0.0,0.0,0.0,0.0,-2.5609,0.0,-2.3393,-2.3427,-2.3004,-2.231,-2.231,-2.2327,-2.2361,-2.2327,0.0,-2.3291,-2.2564,-2.231,-2.231,-2.231,-2.231,-2.231,-2.231,-2.231,-2.231,-2.231,-2.231,-2.231,-2.231,-2.231,-2.231,-2.231,0.0,0.0,0.0,0.0,-2.231,0.0,0.0,0.0,0.0,0.0,0.0,0.0,-2.1244,-2.0829,-2.0416,0.0,0.0,0.0,0.0,0.0,0.0,-1.4765,-1.4774,-1.4866,-1.489,0.0,0.0,0.0,-1.5608,-1.5632,-1.5632,-1.5632,-1.5588,-1.5017,-1.4376,-1.3779,-1.32,-1.255,-1.1864,-1.1864,-1.1516,-1.0922,-1.0922,-1.0922,-1.0922,-1.0922,-1.0922,-1.0922,-1.0922,-1.0864,-1.0771,-1.0115,-0.9865,-0.9969,-2.6722,-2.7709,-2.8676,0.0,-2.8306,-2.8417,0.0,0.0,0.0,0.0,-3.8328,-4.004,-4.2012,-4.2029,-4.1618,-4.0989,-3.9394,0.0,0.0,0.0,0.0,-3.1495,-3.1106,-2.9629,-2.6845,-2.8032,0.0,-2.5983,0.0,0.0,-2.6674,0.0,0.0,0.0,0.0,0.0,-2.3427,-2.3968,-2.3477,-2.231,-2.231,-2.2632,0.0,0.0,-2.2767,-2.3291,-2.2564,-2.231,-2.231,-2.231,-2.231,-2.231,-2.231,-2.231,-2.231,-2.231,-2.231,-2.231,-2.231,-2.231,-2.231,-2.231,-2.231,-2.231,0.0,0.0,0.0,0.0,0.0,0.0,0.0,0.0,0.0,0.0,0.0,0.0,0.0,0.0,0.0,-1.9006,0.0,0.0,-1.6596,-1.5757,-1.5144,-1.4761,-1.4853,0.0,0.0,0.0,0.0,-1.6269,-1.6281,-1.6051,-1.5588,-1.5017,-1.4376,-1.3779,-1.32,-1.2774,-1.2608,-1.2608,-1.251,-1.2363,-1.2363,-1.2363,-1.2363,-1.2363,-1.2363,-1.2363,-1.2363,-1.2039,-1.1466,-1.0813,-1.0517,-1.0568,-2.8244,0.0,0.0,-3.1693,0.0,0.0,-3.2979,0.0,0.0,-3.7972,-3.9701,0.0,-4.2307,-4.2502,-4.2341,-4.1814,-3.9991,0.0,0.0,0.0,0.0,-3.2403,-3.1479,-2.973,-2.7051,-2.777,0.0,-2.5616,0.0,0.0,-2.6201,0.0,0.0,0.0,0.0,-2.5121,0.0,-2.4424,-2.388,-2.2986,-2.2789,0.0,0.0,-2.2842,-2.2945,-2.3256,-2.2824,-2.2535,-2.231,-2.231,-2.231,-2.231,-2.231,-2.2388,-2.2436,-2.2321,-2.2388,-2.2436,-2.2321,-2.231,-2.231,-2.231,-2.231,-2.231,-2.231,-2.231,-2.231,0.0,0.0,0.0,0.0,0.0,0.0,0.0,0.0,0.0,0.0,0.0,0.0,0.0,-1.9174,0.0,-1.7895,-1.6817,-1.5981,-1.5443,0.0,0.0,0.0,0.0,0.0,-1.6509,-1.6522,-1.6194,-1.5588,-1.5017,-1.4376,-1.3779,-1.32,-1.2881,-1.2881,-1.2881,-1.2881,-1.2881,-1.2881,-1.2881,-1.2881,-1.2881,-1.2881,-1.2881,-1.2881,-1.2666,-1.2246,-1.1841,-1.1525,-1.1266,0.0,0.0,0.0,0.0,0.0,0.0,0.0,-3.6602,0.0,-3.8817,0.0,-4.1387,-4.1277,-4.1882,-4.2213,-4.1992,0.0,-3.8614,-3.7803,-3.6417,-3.4641,-3.2506,-3.1358,-2.9522,-2.6817,-2.7086,0.0,0.0,0.0,0.0,-2.5688,0.0,0.0,0.0,0.0,0.0,0.0,-2.4683,-2.4171,0.0,-2.3351,-2.3189,-2.3189,-2.3189,-2.3189,-2.3189,-2.3189,-2.2857,-2.2415,-2.2415,-2.2388,-2.2377,-2.2388,-2.2554,-2.266,-2.248,-2.2563,-2.2712,-2.248,-2.2405,-2.2349,-2.2349,-2.2338,-2.231,-2.231,-2.231,-2.231,-2.231,-2.231,-2.231,0.0,0.0,0.0,0.0,0.0,0.0,0.0,0.0,0.0,0.0,0.0,0.0,0.0,-1.7871,0.0,0.0,0.0,0.0,0.0,0.0,0.0,-1.6522,-1.6522,0.0,-1.5695,0.0,-1.4547,-1.4005,-1.3412,-1.3162,-1.3162,-1.3162,-1.3113,-1.3017,-1.3017,-1.2968,-1.2881,-1.2881,-1.2881,-1.2929,-1.2968,-1.2978,-1.2881,-1.2881,-1.2501,-1.203,0.0,0.0,0.0,0.0,0.0,-3.8266,-3.9896,-3.9648,-3.9606,-4.0561,-4.2084,0.0,-4.2158,-4.2213,-4.1772,-4.0432,-3.8961,0.0,0.0,0.0,0.0,-3.2453,-3.1626,-2.988,-2.7107,-2.7472,-2.7091,0.0,-2.6149,-2.6226,-2.6087,0.0,0.0,0.0,0.0,0.0,-2.4501,-2.4428,0.0,-2.3329,-2.3218,-2.3189,-2.3189,-2.3189,-2.3189,-2.3189,-2.3189,-2.3117,-2.3038,-2.3038,-2.2865,-2.2686,-2.2965,-2.2873,-2.2746,-2.2972,-2.3087,-2.3093,-2.3063,-2.284,-2.2634,-2.2634,-2.2463,-2.231,-2.231,-2.231,-2.231,-2.231,-2.231,-2.231,-2.231,0.0,0.0,0.0,0.0,0.0,0.0,0.0,0.0,0.0,0.0,0.0,0.0,0.0,0.0,0.0,0.0,0.0,0.0,0.0,0.0,0.0,0.0,0.0,0.0,0.0,-1.5349,-1.5207,-1.4667,-1.4387,-1.4387,-1.4387,-1.4107,-1.3637,-1.3637,-1.3372,-1.2881,-1.2881,-1.2881,-1.2978,-1.3467,-1.3334,-1.2881,-1.2881,-1.2822,-1.2715,0.0,0.0,0.0,0.0,0.0,0.0,0.0,-4.1862,0.0,-4.1167,-4.1772,-4.2121,-4.1735,-4.168,-4.1368,-4.0598,-3.8775,-3.7335,-3.6552,-3.515,-3.3586,-3.1964,-3.1356,0.0,-2.6913,-2.6846,-2.6591,-2.5991,-2.6019,-2.5975,-2.582,0.0,0.0,0.0,0.0,-2.4751,0.0,0.0,0.0,-2.4027,-2.3811,-2.3714,-2.3714,-2.3714,-2.3714,-2.3714,-2.3714,-2.3714,-2.3671,-2.3323,-2.3093,-2.2996,-2.3141,-2.3212,-2.323,-2.3189,-2.3305,-2.3414,-2.3253,-2.3069,-2.2923,-2.2746,-2.2599,-2.2463,-2.2321,-2.231,-2.231,-2.231,-2.231,-2.231,-2.231,-2.231,0.0,0.0,0.0,0.0,0.0,0.0,0.0,0.0,0.0,0.0,0.0,0.0,0.0,0.0,0.0,0.0,0.0,0.0,0.0,0.0,0.0,0.0,0.0,0.0,0.0,-1.5103,-1.481,-1.4698,-1.4698,-1.4698,-1.4514,-1.4283,-1.4283,-1.4107,-1.3836,-1.3836,-1.3658,-1.342,-1.4014,-1.3695,-1.2929,-1.3238,-1.3152,-1.2881,0.0,-3.7261,0.0,0.0,-4.0635,0.0,0.0,-4.3392,-4.3236,-4.1805,-4.1479,-4.1295,-4.113,-4.0965,-4.0781,-4.0616,-3.8689,-3.7147,-3.634,-3.5495,-3.3935,-3.1494,-3.1154,-2.961,-2.6646,-2.6299,-2.6054,0.0,-2.5966,-2.5781,0.0,0.0,0.0,0.0,0.0,0.0,0.0,0.0,-2.5111,-2.4639,-2.433,-2.419,-2.419,-2.419,-2.419,-2.419,-2.419,-2.419,-2.4113,-2.3588,-2.3369,-2.3323,-2.3392,-2.3544,-2.3671,-2.3459,-2.3588,-2.3753,-2.3482,-2.3369,-2.3236,-2.2972,-2.2873,-2.2764,-2.2544,-2.248,-2.248,-2.248,-2.248,-2.248,-2.248,-2.248,0.0,0.0,0.0,0.0,0.0,0.0,0.0,0.0,0.0,0.0,0.0,0.0,0.0,0.0,0.0,0.0,0.0,0.0,0.0,0.0,0.0,-1.6386,-1.6154,0.0,-1.5614,0.0,-1.5165,-1.5062,-1.5062,-1.5062,-1.5017,-1.488,-1.488,-1.4835,-1.4698,-1.4835,-1.456,-1.405,-1.4652,-1.4247,-1.3334,-1.3826,-1.3695,-1.3296,0.0,0.0,0.0,0.0,0.0,0.0,0.0,-4.3962,-4.4195,-4.3361,-4.2635,-4.1919,-4.1185,-4.0451,-3.9717,-3.9001,-3.8046,-3.7147,-3.634,-3.5495,-3.3935,-3.1494,-3.1359,-2.9855,-2.6667,-2.6551,-2.6185,0.0,0.0,-2.5631,-2.4964,-2.5667,0.0,0.0,0.0,0.0,0.0,-2.5071,-2.4961,-2.4243,-2.4226,-2.419,-2.419,-2.419,-2.419,-2.419,-2.419,-2.419,-2.419,-2.4132,-2.3896,-2.3714,-2.4016,-2.3917,-2.3735,-2.4016,-2.4132,-2.4151,-2.4113,-2.3896,-2.3649,-2.361,-2.3392,-2.3141,-2.3117,-2.3111,-2.3111,-2.3111,-2.3111,-2.3111,-2.3111,-2.3111,-2.3111,0.0,0.0,0.0,0.0,0.0,0.0,0.0,0.0,0.0,0.0,0.0,0.0,0.0,0.0,0.0,0.0,0.0,0.0,-1.7229,0.0,-1.6964,-1.7957,-1.6934,0.0,-1.7152,-1.6585,-1.6337,-1.6337,-1.6337,-1.6008,-1.5499,-1.5499,-1.5186,-1.4744,-1.5276,-1.5141,-1.4698,-1.5276,-1.5096,-1.4525,-1.4606,-1.456,-1.4525,0.0,0.0,0.0,0.0,0.0,0.0,0.0,-4.4398,-4.4223,-4.3206,-4.3198,-4.3008,-4.2224,-4.1217,-4.0304,-3.9496,-3.779,-3.6633,-3.6321,-3.5037,-3.3421,-3.1476,-3.1384,-2.9879,-2.6667,-2.6612,-2.6209,0.0,0.0,-2.6198,-2.5929,-2.6217,0.0,0.0,0.0,-2.4795,-2.4226,-2.4538,-2.4483,-2.419,-2.419,-2.419,-2.419,-2.419,-2.419,-2.419,-2.419,-2.419,-2.419,-2.419,-2.4113,-2.4016,-2.4151,-2.4113,-2.4016,-2.417,-2.419,-2.419,-2.419,-2.4094,-2.3937,-2.3735,-2.3588,-2.3455,-2.3253,-2.3189,-2.3189,-2.3189,-2.3189,-2.3189,-2.3189,-2.3189,-2.3189,0.0,0.0,0.0,0.0,0.0,0.0,0.0,0.0,0.0,0.0,0.0,0.0,0.0,0.0,0.0,0.0,0.0,0.0,-1.7773,0.0,-1.7348,-1.8112,-1.7678,-1.7583,-1.7836,-1.7583,-1.7312,-1.6993,-1.7312,-1.7162,-1.6574,-1.6256,-1.6008,-1.5788,-1.6051,-1.5776,-1.5276,-1.592,-1.5555,-1.4744,-1.5096,-1.5017,-1.4698,-4.1609,0.0,-4.1449,0.0,-4.3412,-4.3206,-4.4549,-4.4407,-4.3947,-4.3321,-4.3434,-4.3166,-4.2164,-4.1071,-4.0175,-3.9588,-3.7771,-3.6541,-3.6321,-3.4724,-3.3073,-3.1458,-3.1164,0.0,-2.7016,-2.6961,-2.6429,-2.5403,-2.6209,0.0,-2.5897,0.0,0.0,0.0,-2.4447,-2.441,-2.419,-2.419,-2.419,-2.419,-2.419,-2.419,-2.419,-2.419,-2.419,-2.419,-2.419,-2.419,-2.419,-2.419,-2.419,-2.419,-2.419,-2.419,-2.419,-2.419,-2.419,-2.419,-2.419,-2.419,-2.4151,-2.3917,-2.3855,-2.3795,-2.3544,-2.3482,-2.3482,-2.3482,-2.3482,-2.3482,-2.3482,-2.3482,-2.3482,-2.3482,0.0,0.0,0.0,0.0,0.0,0.0,-2.2898,-2.2574,-2.2289,0.0,0.0,0.0,0.0,0.0,0.0,0.0,0.0,0.0,0.0,0.0,0.0,-1.8185,-1.8106,-1.8106,-1.8106,-1.7907,-1.7544,-1.7947,-1.7907,-1.7504,-1.6951,-1.6752,-1.671,-1.6552,-1.6238,-1.5908,-1.6324,-1.5976,-1.5287,-1.5688,-1.5599,-1.5242,-4.2739,-4.3066,-4.348,-4.4853,-4.4653,-4.4459,-4.5006,-4.3982,-4.3395,-4.4165,-4.3235,-4.1961,-4.0495,-3.9372,-3.8726,-3.8726,-3.7955,-3.7129,-3.634,-3.4724,-3.3073,0.0,0.0,-2.9457,-2.7824,-2.7787,-2.6998,-2.5403,0.0,0.0,-2.4245,0.0,-2.4999,-2.4226,-2.5035,-2.4924,-2.419,-2.419,-2.419,-2.419,-2.419,-2.419,-2.419,-2.419,-2.419,-2.419,-2.419,-2.419,-2.419,-2.419,-2.419,-2.419,-2.419,-2.419,-2.419,-2.419,-2.419,-2.419,-2.419,-2.419,-2.419,-2.419,-2.419,-2.419,-2.419,-2.419,-2.419,-2.419,-2.419,-2.419,-2.419,-2.419,-2.419,-2.419,0.0,0.0,0.0,0.0,0.0,0.0,-2.2898,-2.2695,-2.2695,0.0,0.0,0.0,0.0,0.0,0.0,0.0,0.0,-1.8893,-1.838,0.0,-1.8893,-1.838,-1.8106,-1.8106,-1.8106,-1.8106,-1.8106,-1.8106,-1.8106,-1.8066,-1.7504,-1.7312,-1.7229,-1.671,-1.6522,-1.6479,-1.6522,-1.6479,-1.6479,-1.6479,-1.6466,-1.6479,-4.1989,-4.222,-4.2533,-4.3558,-4.3592,-4.3441,-4.3345,-4.3196,-4.29,-4.2336,-4.1437,-4.0687,-4.0214,-3.993,-3.9505,0.0,-3.7459,-3.656,0.0,-3.4229,-3.2504,-3.1439,-3.0632,-2.9457,-2.7824,-2.7255,-2.6465,-2.5403,0.0,0.0,0.0,-2.5486,-2.5242,-2.4626,-2.4888,-2.4851,-2.4607,-2.4607,-2.4607,-2.4607,-2.4607,-2.4607,-2.4607,-2.4607,-2.4607,-2.4591,-2.4444,-2.441,-2.4393,-2.4247,-2.419,-2.419,-2.419,-2.419,-2.419,-2.419,-2.419,-2.419,-2.419,-2.419,-2.419,-2.419,-2.419,-2.419,-2.419,-2.419,-2.419,-2.419,-2.419,-2.419,-2.419,-2.419,-2.419,-2.419,-2.4113,0.0,0.0,0.0,0.0,0.0,-2.3588,-2.33,0.0,-2.2729,0.0,0.0,0.0,0.0,0.0,0.0,0.0,0.0,-1.893,0.0,-1.9442,-1.9281,-1.9207,-1.9207,-1.9207,-1.9207,-1.9169,-1.8419,-1.8302,-1.8612,-1.8066,-1.7867,-1.7827,-1.7666,-1.7394,-1.7076,-1.7463,-1.7394,-1.7034,-1.7034,-1.7034,-1.6993,-4.1643,-4.1797,-4.2033,-4.2753,-4.2729,-4.2577,-4.2504,-4.2295,-4.1978,-4.1551,-4.0767,-4.0099,-3.9662,-3.969,0.0,-3.8477,-3.6812,-3.5807,-3.5807,-3.3513,-3.1935,-3.1403,-3.0457,-2.9285,-2.7938,0.0,0.0,-2.5634,-2.5319,-2.5241,-2.5358,-2.5358,-2.5158,-2.4804,-2.4804,-2.4804,-2.4804,-2.4804,-2.4804,-2.4804,-2.4804,-2.4804,-2.4804,-2.4804,-2.4804,-2.479,-2.4654,-2.4607,-2.4591,-2.4461,-2.4428,-2.4428,-2.4428,-2.4428,-2.4393,-2.4247,-2.419,-2.419,-2.419,-2.419,-2.419,-2.419,-2.419,-2.419,-2.419,-2.419,-2.419,-2.419,-2.419,-2.419,-2.419,-2.419,-2.419,-2.419,-2.419,-2.419,-2.419,0.0,0.0,0.0,0.0,0.0,0.0,-2.2947,0.0,0.0,0.0,0.0,0.0,0.0,0.0,-2.0174,-1.9687,0.0,-1.9909,-1.9945,-1.9839,-1.969,-1.969,-1.969,-1.969,-1.9006,-1.8893,-1.9169,-1.8612,-1.8419,-1.838,-1.8185,-1.7907,-1.7626,-1.7987,-1.7907,-1.7585,-1.7585,-1.7585,-1.7544,-4.1546,-4.172,0.0,0.0,-4.1989,0.0,-4.2297,-4.1297,-4.0777,-4.1604,-4.095,-4.0024,-3.9032,-3.8747,-3.8416,-3.7904,0.0,0.0,0.0,-3.2801,-3.1458,-3.1458,-3.0142,-2.9003,-2.8126,-2.9044,-2.8338,-2.5929,-2.5167,-2.4804,-2.4799,-2.4799,-2.4832,-2.4832,-2.4832,-2.4832,-2.4832,-2.4832,-2.4832,-2.4832,-2.4832,-2.4832,-2.4832,-2.4832,-2.4832,-2.4832,-2.4818,-2.4799,-2.4818,-2.4804,-2.4804,-2.4804,-2.4804,-2.4804,-2.4731,-2.4339,-2.4247,-2.4247,-2.4247,-2.4247,-2.4247,-2.4228,-2.4209,-2.419,-2.419,-2.419,-2.419,-2.419,-2.419,-2.419,-2.419,-2.419,-2.419,-2.419,-2.419,-2.419,-2.419,0.0,0.0,0.0,0.0,0.0,0.0,-2.3038,-2.2958,0.0,0.0,0.0,0.0,0.0,-2.063,-2.1007,-2.0583,-2.0348,-2.0348,-2.0348,-2.0158,-1.9782,-1.9782,-1.9782,-1.9747,-1.9747,-1.9726,-1.969,-1.9169,-1.8968,-1.893,-1.8419,-1.8185,-1.8185,-1.8224,-1.8185,-1.8185,-1.8185,-1.8185,-1.8145,0.0,0.0,-4.0838,-4.0962,-4.088,-4.0857,-4.0962,-4.0707,-4.0566,-4.0777,-4.0085,-3.9723,-4.006,-3.8185,-3.7109,-3.7622,-3.6443,-3.5702,-3.5702,-3.3377,-3.2009,-3.2009,-3.0471,-2.9212,-2.8347,-2.7983,-2.6902,-2.5073,-2.4898,-2.4855,-2.4949,-2.4949,-2.503,-2.5171,-2.5171,-2.5171,-2.5171,-2.5171,-2.5171,-2.5171,-2.5171,-2.5171,-2.5171,-2.5171,-2.5171,-2.516,-2.5005,-2.4949,-2.4943,-2.4828,-2.4804,-2.4804,-2.4804,-2.4804,-2.4775,-2.4685,-2.4654,-2.4654,-2.4654,-2.4654,-2.4623,-2.4461,-2.4321,-2.419,-2.419,-2.419,-2.419,-2.419,-2.419,-2.419,-2.419,-2.419,-2.419,-2.419,-2.419,-2.419,-2.419,-2.4113,0.0,0.0,-2.4074,-2.3816,-2.3159,-2.3165,-2.3021,0.0,0.0,0.0,0.0,-2.2225,-2.1778,-2.1007,-2.0894,-2.0829,-2.0829,-2.0829,-2.0797,-2.0698,-2.0698,-2.0499,-2.0158,-2.0158,-2.0,-1.969,-1.9566,-1.953,-1.9479,-1.9369,-1.908,-1.8727,-1.9169,-1.908,-1.8688,-1.8688,-1.8688,-1.865,-4.0008,-4.0239,-4.0373,-4.0008,-4.0258,-4.0489,-4.0489,-4.0489,-4.0489,-4.0489,-3.9796,-3.9296,-3.9354,-3.7648,-3.6534,-3.6629,-3.5837,-3.5183,-3.4787,-3.3147,-3.2015,-3.1619,-3.012,-2.8881,-2.7994,-2.7695,-2.6911,-2.5615,-2.5215,-2.5061,-2.5141,-2.5141,-2.5203,-2.5303,-2.5303,-2.5303,-2.5303,-2.5303,-2.5303,-2.5303,-2.5303,-2.5303,-2.5303,-2.5303,-2.5303,-2.5293,-2.5192,-2.5141,-2.513,-2.5049,-2.5031,-2.5031,-2.5031,-2.5031,-2.5031,-2.5031,-2.4929,-2.4804,-2.4804,-2.4804,-2.4746,-2.4561,-2.4339,-2.419,-2.419,-2.419,-2.4228,-2.4321,-2.4339,-2.4357,-2.4461,-2.4478,-2.4478,-2.4478,-2.4393,-2.4339,-2.4339,-2.4266,0.0,-2.419,-2.419,-2.3996,-2.3477,-2.3414,-2.33,-2.2947,0.0,0.0,-2.3455,-2.3339,-2.2735,-2.1648,-2.1725,-2.1777,-2.1777,-2.1585,-2.1343,-2.0991,-2.0991,-2.0862,-2.0616,-2.0416,-2.0193,-1.9965,-1.9782,-1.969,-1.969,-1.969,-1.953,-1.9281,-1.9603,-1.953,-1.9281,-1.9281,-1.9281,-1.9207,-3.9484,-3.9854,-4.0046,-3.9238,-3.9662,-4.0123,-4.0123,-4.0123,-4.0123,-4.0123,-3.9527,-3.8815,-3.8084,-3.7219,-3.643,-3.5738,-3.5145,-3.4453,-3.3582,-3.2768,-3.1916,-3.1066,-2.9745,-2.8586,-2.758,-2.7535,-2.714,-2.6409,-2.5649,-2.5303,-2.5303,-2.5303,-2.5303,-2.5303,-2.5303,-2.5303,-2.5303,-2.5303,-2.5303,-2.5303,-2.5303,-2.5303,-2.5303,-2.5303,-2.5303,-2.5303,-2.5303,-2.5303,-2.5303,-2.5303,-2.5303,-2.5303,-2.5303,-2.5303,-2.5303,-2.5303,-2.5103,-2.4888,-2.4888,-2.4842,-2.4785,-2.4604,-2.4426,-2.4284,-2.4284,-2.4284,-2.4358,-2.4512,-2.4561,-2.4591,-2.4775,-2.4775,-2.476,-2.476,-2.4594,-2.4444,-2.4444,0.0,-2.419,-2.419,-2.419,-2.4074,-2.3735,-2.3692,-2.3642,-2.346,-2.3413,-2.375,0.0,-2.4462,-2.387,-2.2829,-2.2919,-2.2973,-2.2973,-2.2638,-2.2151,-2.1536,-2.1536,-2.1424,-2.1247,-2.0824,-2.0543,-2.028,-2.0,-1.9854,-1.9782,-1.9889,-1.9839,-1.9782,-1.9782,-1.9747,-1.969,-1.969,-1.969,-1.969,-3.9542,-3.9446,-3.92,-3.8354,-3.8315,-3.8392,-3.8392,-3.8392,-3.8392,-3.8392,-3.8277,-3.8142,-3.8007,-3.7219,-3.6661,-3.6526,-3.5816,-3.5019,-3.4136,-3.3273,-3.2428,-3.1609,-3.0657,-2.9433,-2.7876,-2.6437,-2.563,-2.5495,-2.536,-2.5303,-2.5303,-2.5303,-2.5303,-2.5303,-2.5303,-2.5303,-2.5303,-2.5303,-2.5303,-2.5303,-2.5303,-2.5303,-2.5303,-2.5303,-2.5303,-2.5303,-2.5303,-2.5303,-2.5303,-2.5303,-2.5303,-2.5303,-2.5303,-2.5303,-2.5303,-2.5303,-2.5253,-2.5222,-2.5222,-2.5107,-2.4962,-2.4937,-2.4809,-2.47,-2.47,-2.47,-2.4716,-2.4746,-2.476,-2.476,-2.479,-2.4654,-2.4561,-2.4561,-2.4375,-2.4247,-2.4247,0.0,-2.419,-2.419,-2.419,-2.4074,-2.3735,-2.3692,-2.3959,-2.4581,-2.4367,-2.4682,-2.5775,-2.6152,-2.5968,-2.5112,-2.4516,-2.4228,-2.4228,-2.4166,-2.4068,-2.3967,-2.3967,-2.3412,-2.2439,-2.2375,-2.1584,-2.0314,-2.0665,-2.0565,-2.0261,-2.0632,-2.0565,-2.0227,-2.0227,-2.0,-1.969,-1.969,-1.969,-1.969,-3.8219,-3.8638,-3.8772,-3.7656,-3.7507,-3.768,-3.8003,-3.8007,-3.8007,-3.8007,-3.7584,-3.7296,-3.7296,-3.6546,-3.6065,-3.6065,-3.5276,-3.443,-3.3564,-3.3122,-3.2333,-3.1064,-3.016,-2.8929,-2.7236,-2.5947,-2.5303,-2.5303,-2.5303,-2.5303,-2.5303,-2.5303,-2.5303,-2.5303,-2.5303,-2.5303,-2.5303,-2.5303,-2.5303,-2.5303,-2.5303,-2.5303,-2.5303,-2.5303,-2.5303,-2.5303,-2.5303,-2.5303,-2.5303,-2.5303,-2.5303,-2.5303,-2.5303,-2.5303,-2.5303,-2.5303,-2.5303,-2.5303,-2.5303,-2.5152,-2.501,-2.501,-2.4904,-2.4804,-2.4804,-2.4804,-2.4814,-2.4891,-2.4917,-2.4943,-2.5037,-2.4987,-2.4936,-2.4936,-2.4766,0.0,0.0,-2.4426,-2.4321,-2.4209,-2.419,-2.4151,-2.3996,-2.3976,-2.4304,-2.5105,-2.5034,-2.5538,-2.695,-2.7024,-2.714,-2.7411,-2.6118,-2.5111,-2.4523,-2.4881,-2.4881,-2.4506,-2.4086,-2.3607,-2.3056,-2.241,-2.1693,-2.0991,-2.0991,-2.0862,-2.0682,-2.0926,-2.0862,-2.0698,-2.0698,-2.0431,-2.0035,-2.0035,-1.9874,-1.9666,-3.7123,-3.7803,-3.8125,-3.6884,-3.6741,-3.6969,-3.7425,-3.745,-3.743,-3.743,-3.6834,-3.6353,-3.6142,-3.5757,-3.543,-3.5218,-3.4584,-3.3833,-3.2968,-3.2718,-3.1968,-3.0456,-2.939,-2.8217,-2.6928,-2.5851,-2.5303,-2.5303,-2.5303,-2.5303,-2.5303,-2.5303,-2.5303,-2.5303,-2.5303,-2.5303,-2.5303,-2.5303,-2.5303,-2.5303,-2.5303,-2.5303,-2.5303,-2.5303,-2.5303,-2.5303,-2.5303,-2.5303,-2.5303,-2.5303,-2.5303,-2.5303,-2.5303,-2.5303,-2.5303,-2.5303,-2.5303,-2.5303,-2.5303,-2.5192,-2.5077,-2.5077,-2.4981,-2.4929,-2.4929,-2.4929,-2.4949,-2.5053,-2.5077,-2.5111,-2.5274,-2.5264,-2.5224,-2.5224,0.0,0.0,0.0,-2.4951,-2.4756,-2.4561,-2.4561,-2.4523,-2.4484,-2.4483,-2.4887,-2.588,-2.5972,-2.6576,-2.8007,-2.7796,-2.8003,-2.8845,-2.746,-2.626,-2.5322,-2.5857,-2.5794,-2.5122,-2.439,-2.3918,-2.363,-2.2512,-2.1883,-2.1582,-2.1385,-2.126,-2.115,-2.126,-2.126,-2.115,-2.115,-2.0846,-2.0449,-2.0449,-2.0261,-1.9974,-3.7343,-3.7105,-3.6765,-3.5863,-3.5666,-3.5641,-3.568,-3.5699,-3.568,-3.568,-3.5641,-3.5276,-3.4468,-3.5045,-3.518,-3.4372,-3.4237,-3.3833,-3.2968,-3.2199,-3.1371,-3.0436,-2.8852,-2.7928,-2.7813,-2.6159,-2.5303,-2.5303,-2.5303,-2.5303,-2.5303,-2.5303,-2.5303,-2.5303,-2.5303,-2.5303,-2.5303,-2.5303,-2.5303,-2.5303,-2.5303,-2.5303,-2.5303,-2.5303,-2.5303,-2.5303,-2.5303,-2.5303,-2.5303,-2.5303,-2.5303,-2.5303,-2.5303,-2.5303,-2.5303,-2.5303,-2.5303,-2.5303,-2.5303,-2.5303,-2.5274,-2.5274,-2.5264,-2.5253,-2.5253,-2.5253,-2.5264,-2.5274,-2.5274,-2.5274,-2.5303,-2.5152,-2.5022,-2.5022,0.0,0.0,-2.5804,-2.5903,-2.5807,-2.5609,-2.5591,-2.5522,-2.5331,-2.5311,-2.5954,-2.7512,-2.7622,-2.8007,-2.8888,-2.886,-2.8742,-2.8446,-2.8314,-2.8058,-2.7664,-2.7688,-2.7514,-2.7082,-2.6338,-2.545,-2.4404,-2.3617,-2.2668,-2.1612,-2.2032,-2.1974,-2.1582,-2.2032,-2.1945,-2.1568,-2.1568,-2.1306,-2.0959,-2.0959,-2.0926,-2.0894,-3.6454,-3.6297,-3.6137,-3.5847,-3.5618,-3.5526,-3.5565,-3.5064,-3.4891,-3.543,-3.4564,-3.3968,-3.418,-3.4507,-3.4334,-3.3468,-3.3391,-3.3045,-3.2218,-3.1371,-3.0506,-2.9621,-2.7986,-2.7082,-2.7082,-2.5928,-2.5303,-2.5303,-2.5303,-2.5303,-2.5303,-2.5303,-2.5303,-2.5303,-2.5303,-2.5303,-2.5303,-2.5303,-2.5303,-2.5303,-2.5303,-2.5303,-2.5303,-2.5303,-2.5303,-2.5303,-2.5303,-2.5303,-2.5303,-2.5303,-2.5303,-2.5303,-2.5303,-2.5303,-2.5303,-2.5303,-2.5303,-2.5303,-2.5303,-2.5303,-2.5303,-2.5303,-2.5303,-2.5303,-2.5303,-2.5303,-2.5303,-2.5303,-2.5303,-2.5303,-2.5303,-2.5243,-2.5365,-2.5894,0.0,-2.5557,-2.6801,-2.654,-2.6096,-2.5916,-2.5885,-2.5665,-2.508,-2.5373,-2.606,-2.7152,-2.758,-2.8154,-2.8957,-2.8994,-2.8929,-2.8773,-2.8773,-2.8507,-2.7897,-2.7897,-2.7678,-2.7286,-2.6541,-2.5618,-2.4489,-2.3932,-2.3096,-2.2061,-2.2392,-2.2364,-2.2032,-2.2237,-2.218,-2.2032,-2.2032,-2.1764,-2.1368,-2.1368,-2.1213,-2.0959,-3.513,-3.5244,-3.5396,-3.5399,-3.5238,-3.5103,-3.5161,-3.4603,-3.4314,-3.4641,-3.3641,-3.3026,-3.3372,-3.3641,-3.3449,-3.2602,-3.2526,-3.2295,-3.1737,-3.039,-2.9467,-2.9121,-2.7755,-2.689,-2.6621,-2.5755,-2.5303,-2.5303,-2.5303,-2.5303,-2.5303,-2.5303,-2.5303,-2.5303,-2.5303,-2.5303,-2.5303,-2.5303,-2.5303,-2.5303,-2.5303,-2.5303,-2.5303,-2.5303,-2.5303,-2.5303,-2.5303,-2.5303,-2.5303,-2.5303,-2.5303,-2.5303,-2.5303,-2.5303,-2.5303,-2.5303,-2.5303,-2.5303,-2.5303,-2.5303,-2.5303,-2.5303,-2.5303,-2.5303,-2.5303,-2.5303,-2.538,-2.5649,-2.5707,-2.5793,-2.6082,-2.589,-2.5986,-2.6871,-2.6274,-2.6263,-2.786,-2.756,-2.7007,-2.6546,-2.6454,-2.6182,-2.5616,-2.5864,-2.6543,-2.7699,-2.81,-2.85,-2.898,-2.8994,-2.8994,-2.8994,-2.8994,-2.8767,-2.8255,-2.8246,-2.8047,-2.766,-2.6887,-2.6085,-2.5188,-2.432,-2.3539,-2.2839,-2.2729,-2.2599,-2.2426,-2.2426,-2.2426,-2.2426,-2.2321,-2.2106,-2.1823,-2.1823,-2.1645,-2.1381,-3.3479,-3.3932,-3.4443,-3.4313,-3.4218,-3.418,-3.418,-3.418,-3.3872,-3.3006,-3.2891,-3.2583,-3.1795,-3.241,-3.2564,-3.1756,-3.1698,-3.1698,-3.1698,-2.9313,-2.8275,-2.9063,-2.8313,-2.7467,-2.6621,-2.5726,-2.5303,-2.5303,-2.5303,-2.5303,-2.5303,-2.5303,-2.5303,-2.5303,-2.5303,-2.5303,-2.5303,-2.5303,-2.5303,-2.5303,-2.5303,-2.5303,-2.5303,-2.5303,-2.5303,-2.5303,-2.5303,-2.5303,-2.5303,-2.5303,-2.5303,-2.5303,-2.5303,-2.5303,-2.5303,-2.5303,-2.5303,-2.5303,-2.5303,-2.5303,-2.5303,-2.5303,-2.5303,-2.5303,-2.5322,-2.5322,-2.5553,-2.6428,-2.6621,-2.6871,-2.7736,-2.7198,-2.6909,-2.7775,-2.7178,-2.7198,-2.8871,-2.9102,-2.8729,-2.774,-2.7428,-2.7289,-2.7204,-2.704,-2.7698,-2.9564,-2.9513,-2.9289,-2.8998,-2.8994,-2.8994,-2.8994,-2.8994,-2.8994,-2.8994,-2.8994,-2.8797,-2.8402,-2.7658,-2.7122,-2.6738,-2.4865,-2.4006,-2.3954,-2.3068,-2.2695,-2.2695,-2.2695,-2.2695,-2.2669,-2.2415,-2.231,-2.231,-2.231,-2.231,-2.231,-3.3363,-3.3456,-3.3555,-3.3467,-3.3365,-3.3295,-3.3295,-3.2814,-3.2564,-3.2852,-3.1891,-3.1295,-3.166,-3.191,-3.1718,-3.0871,-3.1352,-3.1448,-3.0833,-3.0083,-2.9486,-2.9121,-2.7159,-2.5947,-2.5687,-2.5418,-2.5303,-2.5303,-2.5303,-2.5303,-2.5303,-2.5303,-2.5303,-2.5303,-2.5303,-2.5303,-2.5303,-2.5303,-2.5303,-2.5303,-2.5303,-2.5303,-2.5303,-2.5303,-2.5303,-2.5303,-2.5303,-2.5303,-2.5303,-2.5303,-2.5303,-2.5303,-2.5303,-2.5303,-2.5303,-2.5303,-2.5303,-2.5303,-2.5303,-2.5755,-2.6217,-2.6217,-2.5745,-2.561,-2.6851,-2.6659,-2.6467,-2.7332,-2.7505,-2.7582,-2.7852,-2.7678,-2.7775,-2.8602,-2.8044,-2.8102,-2.9775,-2.9486,-2.8994,-2.8691,-2.8605,-2.8319,-2.7752,-2.8013,-2.8476,-2.9034,-2.927,-2.9289,-2.8998,-2.8994,-2.8994,-2.8994,-2.8994,-2.8994,-2.8994,-2.8994,-2.8797,-2.8394,-2.8167,-2.7635,-2.6756,-2.5839,-2.5006,-2.4239,-2.3679,-2.3141,-2.2695,-2.2695,-2.2599,-2.2426,-2.2537,-2.2573,-2.2599,-2.2857,-2.2933,-2.2908,-3.2307,-3.2461,-3.2632,-3.2569,-3.2468,-3.2429,-3.2429,-3.2006,-3.1756,-3.1891,-3.1044,-3.059,-3.1141,-3.1198,-3.0968,-3.0436,-3.0891,-3.0968,-3.0417,-3.0083,-2.9506,-2.8659,-2.6813,-2.5813,-2.5813,-2.5476,-2.5303,-2.5303,-2.5303,-2.5303,-2.5303,-2.5303,-2.5303,-2.5303,-2.5303,-2.5303,-2.5303,-2.5303,-2.5303,-2.5303,-2.5303,-2.5303,-2.5303,-2.5303,-2.5303,-2.5303,-2.5303,-2.5303,-2.5303,-2.5303,-2.5534,-2.5813,-2.5813,-2.6063,-2.6332,-2.6332,-2.6332,-2.6332,-2.6332,-2.6717,-2.7198,-2.7505,-2.6948,-2.6601,-2.7659,-2.7486,-2.7351,-2.8198,-2.8371,-2.8486,-2.8832,-2.8602,-2.864,-2.9486,-2.8909,-2.8852,-3.0217,-2.9948,-2.9486,-2.914,-2.9017,-2.8814,-2.8409,-2.8632,-2.894,-2.9251,-2.9498,-2.9514,-2.9293,-2.9272,-2.9249,-2.9178,-2.9228,-2.9185,-2.9017,-2.9112,-2.8984,-2.8633,-2.8633,-2.8304,-2.7641,-2.6555,-2.5691,-2.5028,-2.4096,-2.3459,-2.3093,-2.3093,-2.2989,-2.2867,-2.289,-2.2898,-2.2923,-2.3117,-2.3189,-2.3165,-3.0768,-3.1197,-3.1665,-3.1602,-3.1583,-3.1583,-3.1583,-3.1583,-3.1295,-3.0494,-3.0398,-3.0398,-3.0398,-3.0398,-3.0398,-3.0398,-3.0398,-3.0398,-3.0398,-2.9583,-2.8775,-2.8044,-2.7101,-2.6601,-2.6601,-2.5755,-2.5303,-2.5303,-2.5303,-2.5303,-2.5303,-2.5303,-2.5303,-2.5303,-2.5303,-2.5303,-2.5303,-2.5303,-2.5303,-2.5303,-2.5303,-2.5303,-2.5303,-2.5303,-2.5303,-2.5303,-2.5322,-2.5322,-2.5322,-2.5409,-2.5967,-2.6621,-2.6717,-2.7274,-2.7909,-2.7909,-2.7909,-2.7909,-2.7909,-2.7967,-2.8179,-2.8929,-2.8602,-2.8121,-2.8121,-2.8063,-2.8236,-2.9044,-2.9217,-2.9467,-3.0256,-2.9756,-2.9486,-3.0275,-2.9737,-2.9486,-3.0294,-3.0398,-3.0121,-2.9313,-2.9053,-2.9009,-2.9187,-2.913,-2.935,-3.0071,-3.0189,-3.0114,-2.9827,-2.9827,-2.9701,-2.9453,-2.9607,-2.9494,-2.904,-2.9267,-2.9267,-2.8994,-2.8994,-2.8994,-2.8938,-2.71,-2.6199,-2.6054,-2.4534,-2.3786,-2.3692,-2.3692,-2.3692,-2.3628,-2.3346,-2.3236,-2.3236,-2.3277,-2.33,-2.33,-3.0675,-3.0744,-3.0814,-3.0698,-3.0679,-3.0679,-3.0679,-3.0679,-3.0609,-3.0417,-3.0398,-3.0398,-3.0398,-3.0398,-3.0398,-3.0398,-3.0398,-3.0417,-3.0467,-2.9602,-2.9055,-2.892,-2.7428,-2.6601,-2.6601,-2.5755,-2.5303,-2.5303,-2.5303,-2.5303,-2.5303,-2.5303,-2.5303,-2.5303,-2.5303,-2.5303,-2.5303,-2.5303,-2.5303,-2.5303,-2.5303,-2.5303,-2.5303,-2.537,-2.539,-2.539,-2.5447,-2.5466,-2.5563,-2.6237,-2.6593,-2.6882,-2.7554,-2.7901,-2.8055,-2.8055,-2.8055,-2.8055,-2.8055,-2.8478,-2.8959,-2.9132,-2.9525,-2.9871,-2.9871,-2.9333,-2.9083,-2.9948,-3.0121,-3.0179,-3.0359,-3.0256,-3.0179,-3.0359,-3.0237,-3.0179,-3.0359,-3.0398,-3.0321,-3.014,-3.0067,-3.0067,-3.011,-3.0713,-3.1059,-3.102,-3.1649,-3.1651,-3.0768,-3.0712,-3.0394,-2.9662,-2.9678,-2.9589,-2.931,-2.9372,-2.9267,-2.8994,-2.8994,-2.8994,-2.8957,-2.7903,-2.7094,-2.6435,-2.5447,-2.452,-2.3692,-2.3692,-2.3544,-2.3323,-2.3522,-2.3588,-2.361,-2.3896,-2.3996,-2.3955,-3.0661,-3.0626,-3.0564,-3.0467,-3.0448,-3.0448,-3.0398,-3.0398,-3.0398,-3.0398,-3.0398,-3.0398,-3.0398,-3.0025,-2.964,-2.9236,-2.9948,-3.0083,-2.9313,-2.9159,-2.8756,-2.7986,-2.7082,-2.6409,-2.5986,-2.5534,-2.5303,-2.5303,-2.5303,-2.5303,-2.5303,-2.5303,-2.5303,-2.5303,-2.5303,-2.5303,-2.5303,-2.5303,-2.5303,-2.5303,-2.5322,-2.5341,-2.537,-2.5428,-2.5444,-2.5456,-2.5495,-2.5774,-2.6188,-2.666,-2.7346,-2.8109,-2.8586,-2.8977,-2.9298,-2.9298,-2.9298,-2.9298,-2.9298,-2.9569,-2.9872,-2.9877,-3.0179,-3.0487,-3.0448,-3.0063,-2.9871,-3.039,-3.0467,-3.0448,-3.0448,-3.0467,-3.0467,-3.0398,-3.0417,-3.0448,-3.0398,-3.0398,-3.0398,-3.0398,-3.0398,-3.0398,-3.0398,-3.1198,-3.1469,-3.0918,-3.1684,-3.1738,-3.0776,-3.0704,-3.0449,-2.9864,-2.9958,-2.9834,-2.9412,-2.9494,-2.9355,-2.8994,-2.8994,-2.8994,-2.8957,-2.8172,-2.7365,-2.6557,-2.575,-2.4846,-2.3937,-2.3937,-2.3855,-2.3692,-2.3876,-2.3937,-2.3976,-2.4151,-2.419,-2.417,-3.0684,-3.0667,-3.0598,-3.0527,-3.0521,-3.0506,-3.0448,-3.0417,-3.0417,-3.0417,-3.0417,-3.0379,-3.0225,-2.9448,-2.864,-2.7948,-2.9179,-2.941,-2.8005,-2.839,-2.8063,-2.6678,-2.6486,-2.6063,-2.5341,-2.5322,-2.5322,-2.5322,-2.5322,-2.5322,-2.5322,-2.5322,-2.5322,-2.5322,-2.5322,-2.5322,-2.5322,-2.5322,-2.5322,-2.5341,-2.539,-2.5409,-2.5427,-2.5486,-2.5514,-2.5521,-2.5526,-2.6089,-2.6852,-2.7008,-2.8123,-2.9457,-2.9613,-3.0107,-3.0643,-3.0643,-3.0643,-3.0643,-3.0643,-3.0624,-3.0619,-3.0614,-3.0598,-3.0582,-3.0537,-3.0483,-3.0466,-3.0575,-3.056,-3.0565,-3.0719,-3.0656,-3.0614,-3.0651,-3.0579,-3.0487,-3.0417,-3.0398,-3.0398,-3.0398,-3.0398,-3.0398,-3.0398,-3.1198,-3.141,-3.0679,-3.1429,-3.1525,-3.0679,-3.0609,-3.0452,-3.0075,-3.0279,-3.0099,-2.9513,-2.9661,-2.9533,-2.9115,-2.9115,-2.9093,-2.9048,-2.8368,-2.7656,-2.6886,-2.6016,-2.5186,-2.4431,-2.4264,-2.419,-2.419,-2.419,-2.419,-2.419,-2.4247,-2.4228,-2.419,-3.0566,-3.0681,-3.0679,-3.0594,-3.0588,-3.0583,-3.0564,-3.0564,-3.0564,-3.0564,-3.0564,-3.0283,-2.9529,-2.8725,-2.8151,-2.7909,-2.8151,-2.8228,-2.8003,-2.7322,-2.69,-2.6785,-2.5996,-2.5524,-2.5466,-2.5466,-2.5447,-2.539,-2.539,-2.5428,-2.5466,-2.5466,-2.5466,-2.5466,-2.5466,-2.5466,-2.5466,-2.5466,-2.5466,-2.5466,-2.5486,-2.5495,-2.5485,-2.5569,-2.5582,-2.5595,-2.5654,-2.6229,-2.7088,-2.783,-2.8748,-2.9705,-3.0468,-3.0779,-3.0857,-3.0857,-3.0857,-3.0857,-3.0857,-3.0779,-3.0679,-3.0694,-3.0646,-3.0603,-3.0659,-3.0616,-3.0583,-3.0601,-3.0597,-3.0827,-3.1573,-3.1101,-3.0846,-3.1584,-3.1023,-3.0506,-3.0487,-3.0448,-3.0398,-3.0398,-3.0398,-3.0398,-3.0398,-3.1198,-3.166,-3.1525,-3.2275,-3.2372,-3.1564,-3.1525,-3.1167,-3.0374,-3.0367,-3.0241,-2.9924,-2.9954,-2.9845,-2.9607,-2.9607,-2.9514,-2.9351,-2.924,-2.8838,-2.8194,-2.7157,-2.6228,-2.5427,-2.4561,-2.419,-2.419,-2.419,-2.419,-2.4228,-2.4393,-2.4339,-2.4228,-2.9394,-3.0137,-3.0643,-3.0079,-3.0353,-3.0639,-3.061,-3.0593,-3.0593,-3.0593,-3.0593,-3.0247,-2.9351,-2.852,-2.7634,-2.6645,-2.7479,-2.7651,-2.6668,-2.6657,-2.6514,-2.6102,-2.5677,-2.5459,-2.5505,-2.5505,-2.5503,-2.5505,-2.5464,-2.5459,-2.5505,-2.5505,-2.5505,-2.5505,-2.5505,-2.5505,-2.5505,-2.5505,-2.5505,-2.549,-2.5542,-2.5551,-2.5561,-2.5634,-2.5667,-2.566,-2.5698,-2.6269,-2.7129,-2.8008,-2.8887,-2.9746,-3.0625,-3.0898,-3.0898,-3.0898,-3.0898,-3.0898,-3.0898,-3.0859,-3.0818,-3.0817,-3.0792,-3.0775,-3.0786,-3.0798,-3.0903,-3.1393,-3.1421,-3.1495,-3.1877,-3.1293,-3.0831,-3.1073,-3.083,-3.0583,-3.0506,-3.0506,-3.0506,-3.0506,-3.0506,-3.0506,-3.0506,-3.1742,-3.2127,-3.116,-3.2288,-3.2442,-3.1102,-3.0987,-3.0814,-3.0398,-3.0398,-3.0497,-3.0719,-3.0242,-3.0136,-3.0429,-2.994,-2.9643,-2.957,-2.957,-2.8857,-2.76,-2.7206,-2.6293,-2.5013,-2.4659,-2.4545,-2.4545,-2.4545,-2.4545,-2.4561,-2.4639,-2.4545,-2.4375]}]]